Time,TemperatureF,DewpointF,PressureIn,WindDirection,WindDirectionDegrees,WindSpeedMPH,WindSpeedGustMPH,Humidity,HourlyPrecipIn,Conditions,Clouds,dailyrainin,SoftwareType,DateUTC
2013-03-15 00:00:00,36.9,31.9,30.22,WSW,257,3.0,4.5,82,0.00,,,0.00,VWS V14.01,2013-03-15 04:00:00,
2013-03-15 00:01:00,36.9,32.2,30.22,WSW,254,4.5,4.5,83,0.00,,,0.00,VWS V14.01,2013-03-15 04:01:00,
2013-03-15 00:02:00,36.9,32.2,30.22,West,262,4.5,6.0,83,0.00,,,0.00,VWS V14.01,2013-03-15 04:02:00,
2013-03-15 00:03:00,36.8,32.1,30.22,WSW,255,3.0,4.5,83,0.00,,,0.00,VWS V14.01,2013-03-15 04:03:00,
2013-03-15 00:04:00,36.8,32.1,30.22,West,261,4.5,6.0,83,0.00,,,0.00,VWS V14.01,2013-03-15 04:04:00,
2013-03-15 00:05:00,36.8,32.1,30.22,WSW,257,4.5,4.5,83,0.00,,,0.00,VWS V14.01,2013-03-15 04:05:00,
2013-03-15 00:06:00,36.7,32.0,30.22,WSW,243,4.5,4.5,83,0.00,,,0.00,VWS V14.01,2013-03-15 04:06:00,
2013-03-15 00:07:00,36.7,32.0,30.22,WSW,245,4.5,6.0,83,0.00,,,0.00,VWS V14.01,2013-03-15 04:07:00,
2013-03-15 00:08:00,36.7,32.0,30.22,WSW,237,4.5,4.5,83,0.00,,,0.00,VWS V14.01,2013-03-15 04:08:00,
2013-03-15 00:09:00,36.6,31.9,30.22,West,260,4.5,6.0,83,0.00,,,0.00,VWS V14.01,2013-03-15 04:09:00,
2013-03-15 00:10:00,36.6,32.2,30.22,WSW,255,4.5,6.0,84,0.00,,,0.00,VWS V14.01,2013-03-15 04:10:00,
2013-03-15 00:11:00,36.6,32.2,30.22,WSW,237,6.0,6.0,84,0.00,,,0.00,VWS V14.01,2013-03-15 04:11:00,
2013-03-15 00:12:00,36.6,32.2,30.22,WSW,240,3.0,6.0,84,0.00,,,0.00,VWS V14.01,2013-03-15 04:12:00,
2013-03-15 00:13:00,36.6,32.2,30.22,SW,236,4.5,6.0,84,0.00,,,0.00,VWS V14.01,2013-03-15 04:13:00,
2013-03-15 00:14:00,36.6,32.2,30.21,WSW,257,1.5,4.5,84,0.00,,,0.00,VWS V14.01,2013-03-15 04:14:00,
2013-03-15 00:15:00,36.6,32.2,30.21,WSW,247,1.5,1.5,84,0.00,,,0.00,VWS V14.01,2013-03-15 04:15:00,
2013-03-15 00:16:00,36.5,32.1,30.21,SW,215,4.5,4.5,84,0.00,,,0.00,VWS V14.01,2013-03-15 04:16:00,
2013-03-15 00:17:00,36.5,32.1,30.21,SSW,209,4.5,4.5,84,0.00,,,0.00,VWS V14.01,2013-03-15 04:17:00,
2013-03-15 00:18:00,36.5,32.1,30.21,SW,229,4.5,4.5,84,0.00,,,0.00,VWS V14.01,2013-03-15 04:18:00,
2013-03-15 00:19:00,36.5,32.1,30.21,SW,231,4.5,6.0,84,0.00,,,0.00,VWS V14.01,2013-03-15 04:19:00,
2013-03-15 00:20:00,36.5,32.1,30.21,SW,219,6.0,6.0,84,0.00,,,0.00,VWS V14.01,2013-03-15 04:20:00,
2013-03-15 00:21:00,36.5,32.1,30.21,SSW,209,4.5,6.0,84,0.00,,,0.00,VWS V14.01,2013-03-15 04:21:00,
2013-03-15 00:22:00,36.5,32.1,30.21,SSW,212,3.0,4.5,84,0.00,,,0.00,VWS V14.01,2013-03-15 04:22:00,
2013-03-15 00:23:00,36.5,32.1,30.21,SW,223,4.5,4.5,84,0.00,,,0.00,VWS V14.01,2013-03-15 04:23:00,
2013-03-15 00:24:00,36.5,32.1,30.22,SW,219,1.5,4.5,84,0.00,,,0.00,VWS V14.01,2013-03-15 04:24:00,
2013-03-15 00:25:00,36.4,32.0,30.21,SW,217,1.5,3.0,84,0.00,,,0.00,VWS V14.01,2013-03-15 04:25:00,
2013-03-15 00:26:00,36.4,32.0,30.21,SW,217,3.0,3.0,84,0.00,,,0.00,VWS V14.01,2013-03-15 04:26:00,
2013-03-15 00:27:00,36.3,31.9,30.21,SW,217,1.5,3.0,84,0.00,,,0.00,VWS V14.01,2013-03-15 04:27:00,
2013-03-15 00:28:00,36.3,31.9,30.21,SW,215,3.0,3.0,84,0.00,,,0.00,VWS V14.01,2013-03-15 04:28:00,
2013-03-15 00:29:00,36.2,31.8,30.21,SSW,213,3.0,3.0,84,0.00,,,0.00,VWS V14.01,2013-03-15 04:29:00,
2013-03-15 00:30:00,36.1,31.7,30.21,SSW,202,3.0,3.0,84,0.00,,,0.00,VWS V14.01,2013-03-15 04:30:00,
2013-03-15 00:31:00,36.1,32.0,30.21,SSW,202,3.0,3.0,85,0.00,,,0.00,VWS V14.01,2013-03-15 04:31:00,
2013-03-15 00:32:00,36.0,31.9,30.21,SSW,202,3.0,3.0,85,0.00,,,0.00,VWS V14.01,2013-03-15 04:32:00,
2013-03-15 00:33:00,36.0,31.9,30.20,SSW,201,3.0,3.0,85,0.00,,,0.00,VWS V14.01,2013-03-15 04:33:00,
2013-03-15 00:34:00,36.0,31.9,30.20,SSW,213,4.5,4.5,85,0.00,,,0.00,VWS V14.01,2013-03-15 04:34:00,
2013-03-15 00:35:00,35.9,31.8,30.20,SSW,212,4.5,4.5,85,0.00,,,0.00,VWS V14.01,2013-03-15 04:35:00,
2013-03-15 00:36:00,35.9,31.8,30.21,SSW,212,1.5,3.0,85,0.00,,,0.00,VWS V14.01,2013-03-15 04:36:00,
2013-03-15 00:37:00,35.8,31.7,30.21,SSW,210,1.5,3.0,85,0.00,,,0.00,VWS V14.01,2013-03-15 04:37:00,
2013-03-15 00:38:00,35.8,31.7,30.21,SSW,210,1.5,1.5,85,0.00,,,0.00,VWS V14.01,2013-03-15 04:38:00,
2013-03-15 00:39:00,35.7,31.6,30.21,SSW,210,1.5,3.0,85,0.00,,,0.00,VWS V14.01,2013-03-15 04:39:00,
2013-03-15 00:40:00,35.6,31.5,30.21,SSW,210,1.5,1.5,85,0.00,,,0.00,VWS V14.01,2013-03-15 04:40:00,
2013-03-15 00:41:00,35.6,31.8,30.21,SSW,212,1.5,1.5,86,0.00,,,0.00,VWS V14.01,2013-03-15 04:41:00,
2013-03-15 00:42:00,35.6,31.8,30.21,SSW,212,1.5,3.0,86,0.00,,,0.00,VWS V14.01,2013-03-15 04:42:00,
2013-03-15 00:43:00,35.5,31.7,30.20,SSW,212,1.5,1.5,86,0.00,,,0.00,VWS V14.01,2013-03-15 04:43:00,
2013-03-15 00:44:00,35.4,31.6,30.20,SSW,212,1.5,1.5,86,0.00,,,0.00,VWS V14.01,2013-03-15 04:44:00,
2013-03-15 00:45:00,35.4,31.6,30.20,SSW,212,1.5,1.5,86,0.00,,,0.00,VWS V14.01,2013-03-15 04:45:00,
2013-03-15 00:46:00,35.3,31.5,30.20,SSW,212,1.5,1.5,86,0.00,,,0.00,VWS V14.01,2013-03-15 04:46:00,
2013-03-15 00:47:00,35.2,31.4,30.20,SSW,202,3.0,4.5,86,0.00,,,0.00,VWS V14.01,2013-03-15 04:47:00,
2013-03-15 00:48:00,35.2,31.4,30.20,SSW,213,1.5,4.5,86,0.00,,,0.00,VWS V14.01,2013-03-15 04:48:00,
2013-03-15 00:49:00,35.2,31.7,30.20,SSW,213,1.5,3.0,87,0.00,,,0.00,VWS V14.01,2013-03-15 04:49:00,
2013-03-15 00:50:00,35.2,31.7,30.20,SSW,213,1.5,1.5,87,0.00,,,0.00,VWS V14.01,2013-03-15 04:50:00,
2013-03-15 00:51:00,35.2,31.7,30.20,SSW,213,1.5,1.5,87,0.00,,,0.00,VWS V14.01,2013-03-15 04:51:00,
2013-03-15 00:52:00,35.2,31.7,30.20,SSW,213,1.5,1.5,87,0.00,,,0.00,VWS V14.01,2013-03-15 04:52:00,
2013-03-15 00:53:00,35.1,31.6,30.20,SSW,213,1.5,3.0,87,0.00,,,0.00,VWS V14.01,2013-03-15 04:53:00,
2013-03-15 00:54:00,35.1,31.6,30.20,SSW,209,3.0,3.0,87,0.00,,,0.00,VWS V14.01,2013-03-15 04:54:00,
2013-03-15 00:55:00,35.1,31.6,30.20,SSW,209,1.5,3.0,87,0.00,,,0.00,VWS V14.01,2013-03-15 04:55:00,
2013-03-15 00:56:00,35.1,31.6,30.20,SSW,209,1.5,1.5,87,0.00,,,0.00,VWS V14.01,2013-03-15 04:56:00,
2013-03-15 00:57:00,35.0,31.5,30.20,SSW,209,1.5,1.5,87,0.00,,,0.00,VWS V14.01,2013-03-15 04:57:00,
2013-03-15 00:58:00,35.0,31.5,30.20,SSW,208,1.5,1.5,87,0.00,,,0.00,VWS V14.01,2013-03-15 04:58:00,
2013-03-15 00:59:00,34.9,31.4,30.20,SSW,209,1.5,1.5,87,0.00,,,0.00,VWS V14.01,2013-03-15 04:59:00,
2013-03-15 01:00:00,34.9,31.4,30.20,SSW,209,1.5,1.5,87,0.00,,,0.00,VWS V14.01,2013-03-15 05:00:00,
2013-03-15 01:01:00,34.9,31.4,30.20,SSW,209,1.5,1.5,87,0.00,,,0.00,VWS V14.01,2013-03-15 05:01:00,
2013-03-15 01:02:00,34.8,31.3,30.20,SW,220,1.5,3.0,87,0.00,,,0.00,VWS V14.01,2013-03-15 05:02:00,
2013-03-15 01:03:00,34.8,31.3,30.20,SSW,209,3.0,6.0,87,0.00,,,0.00,VWS V14.01,2013-03-15 05:03:00,
2013-03-15 01:04:00,34.8,31.6,30.20,SSW,213,1.5,3.0,88,0.00,,,0.00,VWS V14.01,2013-03-15 05:04:00,
2013-03-15 01:05:00,34.8,31.6,30.20,SSW,213,1.5,3.0,88,0.00,,,0.00,VWS V14.01,2013-03-15 05:05:00,
2013-03-15 01:06:00,34.9,31.7,30.20,SW,214,1.5,1.5,88,0.00,,,0.00,VWS V14.01,2013-03-15 05:06:00,
2013-03-15 01:07:00,34.9,31.7,30.20,SSW,213,3.0,3.0,88,0.00,,,0.00,VWS V14.01,2013-03-15 05:07:00,
2013-03-15 01:08:00,34.9,31.7,30.20,SW,224,4.5,4.5,88,0.00,,,0.00,VWS V14.01,2013-03-15 05:08:00,
2013-03-15 01:09:00,34.9,31.7,30.20,SW,236,1.5,3.0,88,0.00,,,0.00,VWS V14.01,2013-03-15 05:09:00,
2013-03-15 01:10:00,34.9,31.7,30.20,SW,236,1.5,3.0,88,0.00,,,0.00,VWS V14.01,2013-03-15 05:10:00,
2013-03-15 01:11:00,34.9,31.7,30.20,SW,236,1.5,3.0,88,0.00,,,0.00,VWS V14.01,2013-03-15 05:11:00,
2013-03-15 01:12:00,34.9,31.7,30.20,WSW,246,4.5,6.0,88,0.00,,,0.00,VWS V14.01,2013-03-15 05:12:00,
2013-03-15 01:13:00,34.9,31.4,30.20,WSW,243,3.0,4.5,87,0.00,,,0.00,VWS V14.01,2013-03-15 05:13:00,
2013-03-15 01:14:00,34.9,31.4,30.20,SW,231,4.5,4.5,87,0.00,,,0.00,VWS V14.01,2013-03-15 05:14:00,
2013-03-15 01:15:00,34.9,31.7,30.20,SW,232,3.0,4.5,88,0.00,,,0.00,VWS V14.01,2013-03-15 05:15:00,
2013-03-15 01:16:00,34.8,31.6,30.20,WSW,244,6.0,6.0,88,0.00,,,0.00,VWS V14.01,2013-03-15 05:16:00,
2013-03-15 01:17:00,34.9,31.7,30.20,WSW,243,4.5,6.0,88,0.00,,,0.00,VWS V14.01,2013-03-15 05:17:00,
2013-03-15 01:18:00,34.9,31.7,30.20,WSW,251,6.0,7.5,88,0.00,,,0.00,VWS V14.01,2013-03-15 05:18:00,
2013-03-15 01:19:00,35.1,31.9,30.20,WSW,255,4.5,6.0,88,0.00,,,0.00,VWS V14.01,2013-03-15 05:19:00,
2013-03-15 01:20:00,35.1,31.9,30.20,SW,223,6.0,7.5,88,0.00,,,0.00,VWS V14.01,2013-03-15 05:20:00,
2013-03-15 01:21:00,35.2,32.0,30.20,SW,225,4.5,6.0,88,0.00,,,0.00,VWS V14.01,2013-03-15 05:21:00,
2013-03-15 01:22:00,35.3,32.1,30.20,WSW,237,6.0,6.0,88,0.00,,,0.00,VWS V14.01,2013-03-15 05:22:00,
2013-03-15 01:23:00,35.3,32.1,30.20,WSW,257,6.0,7.5,88,0.00,,,0.00,VWS V14.01,2013-03-15 05:23:00,
2013-03-15 01:24:00,35.5,32.0,30.20,SW,229,6.0,7.5,87,0.00,,,0.00,VWS V14.01,2013-03-15 05:24:00,
2013-03-15 01:25:00,35.6,32.1,30.20,WSW,257,6.0,7.5,87,0.00,,,0.00,VWS V14.01,2013-03-15 05:25:00,
2013-03-15 01:26:00,35.6,32.1,30.20,SW,226,7.5,7.5,87,0.00,,,0.00,VWS V14.01,2013-03-15 05:26:00,
2013-03-15 01:27:00,35.7,32.2,30.20,SW,236,7.5,7.5,87,0.00,,,0.00,VWS V14.01,2013-03-15 05:27:00,
2013-03-15 01:28:00,35.8,32.3,30.20,SW,234,7.5,7.5,87,0.00,,,0.00,VWS V14.01,2013-03-15 05:28:00,
2013-03-15 01:29:00,35.9,32.4,30.20,WSW,244,6.0,6.0,87,0.00,,,0.00,VWS V14.01,2013-03-15 05:29:00,
2013-03-15 01:30:00,35.9,32.4,30.20,SW,229,9.0,9.0,87,0.00,,,0.00,VWS V14.01,2013-03-15 05:30:00,
2013-03-15 01:31:00,36.0,32.5,30.19,SW,230,4.5,9.0,87,0.00,,,0.00,VWS V14.01,2013-03-15 05:31:00,
2013-03-15 01:32:00,36.0,32.5,30.19,WSW,237,4.5,7.5,87,0.00,,,0.00,VWS V14.01,2013-03-15 05:32:00,
2013-03-15 01:33:00,36.1,32.6,30.19,SW,215,4.5,7.5,87,0.00,,,0.00,VWS V14.01,2013-03-15 05:33:00,
2013-03-15 01:34:00,36.1,32.6,30.19,WSW,248,4.5,6.0,87,0.00,,,0.00,VWS V14.01,2013-03-15 05:34:00,
2013-03-15 01:35:00,36.2,32.7,30.19,SW,224,7.5,7.5,87,0.00,,,0.00,VWS V14.01,2013-03-15 05:35:00,
2013-03-15 01:36:00,36.2,32.7,30.19,SW,226,7.5,7.5,87,0.00,,,0.00,VWS V14.01,2013-03-15 05:36:00,
2013-03-15 01:37:00,36.3,32.5,30.19,WSW,240,6.0,7.5,86,0.00,,,0.00,VWS V14.01,2013-03-15 05:37:00,
2013-03-15 01:38:00,36.3,32.5,30.19,SW,231,6.0,6.0,86,0.00,,,0.00,VWS V14.01,2013-03-15 05:38:00,
2013-03-15 01:39:00,36.4,32.6,30.19,SW,236,6.0,9.0,86,0.00,,,0.00,VWS V14.01,2013-03-15 05:39:00,
2013-03-15 01:40:00,36.4,32.6,30.19,SW,231,4.5,9.0,86,0.00,,,0.00,VWS V14.01,2013-03-15 05:40:00,
2013-03-15 01:41:00,36.4,32.6,30.19,SW,234,9.0,9.0,86,0.00,,,0.00,VWS V14.01,2013-03-15 05:41:00,
2013-03-15 01:42:00,36.4,32.6,30.19,WSW,237,4.5,9.0,86,0.00,,,0.00,VWS V14.01,2013-03-15 05:42:00,
2013-03-15 01:43:00,36.5,32.7,30.19,SW,233,6.0,6.0,86,0.00,,,0.00,VWS V14.01,2013-03-15 05:43:00,
2013-03-15 01:44:00,36.5,32.7,30.19,SW,232,4.5,6.0,86,0.00,,,0.00,VWS V14.01,2013-03-15 05:44:00,
2013-03-15 01:45:00,36.5,32.7,30.19,SW,236,6.0,6.0,86,0.00,,,0.00,VWS V14.01,2013-03-15 05:45:00,
2013-03-15 01:46:00,36.5,32.7,30.19,WSW,243,9.0,9.0,86,0.00,,,0.00,VWS V14.01,2013-03-15 05:46:00,
2013-03-15 01:47:00,36.5,32.7,30.19,WSW,254,3.0,9.0,86,0.00,,,0.00,VWS V14.01,2013-03-15 05:47:00,
2013-03-15 01:48:00,36.5,32.7,30.19,WSW,243,3.0,6.0,86,0.00,,,0.00,VWS V14.01,2013-03-15 05:48:00,
2013-03-15 01:49:00,36.5,32.7,30.19,SW,236,4.5,4.5,86,0.00,,,0.00,VWS V14.01,2013-03-15 05:49:00,
2013-03-15 01:50:00,36.5,32.7,30.19,WSW,243,4.5,4.5,86,0.00,,,0.00,VWS V14.01,2013-03-15 05:50:00,
2013-03-15 01:51:00,36.5,32.7,30.19,SW,236,3.0,4.5,86,0.00,,,0.00,VWS V14.01,2013-03-15 05:51:00,
2013-03-15 01:52:00,36.4,32.6,30.19,SW,224,3.0,4.5,86,0.00,,,0.00,VWS V14.01,2013-03-15 05:52:00,
2013-03-15 01:53:00,36.4,32.6,30.19,SW,220,3.0,4.5,86,0.00,,,0.00,VWS V14.01,2013-03-15 05:53:00,
2013-03-15 01:54:00,36.3,32.5,30.19,WSW,247,1.5,4.5,86,0.00,,,0.00,VWS V14.01,2013-03-15 05:54:00,
2013-03-15 01:55:00,36.3,32.5,30.19,WSW,239,1.5,4.5,86,0.00,,,0.00,VWS V14.01,2013-03-15 05:55:00,
2013-03-15 01:56:00,36.3,32.5,30.19,SW,227,4.5,6.0,86,0.00,,,0.00,VWS V14.01,2013-03-15 05:56:00,
2013-03-15 01:57:00,36.2,32.4,30.18,SW,229,6.0,6.0,86,0.00,,,0.00,VWS V14.01,2013-03-15 05:57:00,
2013-03-15 01:58:00,36.2,32.4,30.19,SSW,201,3.0,6.0,86,0.00,,,0.00,VWS V14.01,2013-03-15 05:58:00,
2013-03-15 01:59:00,36.1,32.3,30.18,SSW,206,4.5,4.5,86,0.00,,,0.00,VWS V14.01,2013-03-15 05:59:00,
2013-03-15 02:00:00,36.1,32.3,30.18,SW,217,3.0,4.5,86,0.00,,,0.00,VWS V14.01,2013-03-15 06:00:00,
2013-03-15 02:01:00,36.0,32.2,30.18,SSW,212,3.0,3.0,86,0.00,,,0.00,VWS V14.01,2013-03-15 06:01:00,
2013-03-15 02:02:00,36.0,32.5,30.18,SW,223,3.0,3.0,87,0.00,,,0.00,VWS V14.01,2013-03-15 06:02:00,
2013-03-15 02:03:00,35.9,32.4,30.18,SW,223,1.5,4.5,87,0.00,,,0.00,VWS V14.01,2013-03-15 06:03:00,
2013-03-15 02:04:00,35.9,32.4,30.18,SSW,213,1.5,4.5,87,0.00,,,0.00,VWS V14.01,2013-03-15 06:04:00,
2013-03-15 02:05:00,35.8,32.3,30.18,SW,215,3.0,4.5,87,0.00,,,0.00,VWS V14.01,2013-03-15 06:05:00,
2013-03-15 02:06:00,35.8,32.3,30.18,SSW,210,3.0,4.5,87,0.00,,,0.00,VWS V14.01,2013-03-15 06:06:00,
2013-03-15 02:07:00,35.7,32.2,30.18,SSW,206,1.5,3.0,87,0.00,,,0.00,VWS V14.01,2013-03-15 06:07:00,
2013-03-15 02:08:00,35.7,32.2,30.18,SSW,208,3.0,3.0,87,0.00,,,0.00,VWS V14.01,2013-03-15 06:08:00,
2013-03-15 02:09:00,35.6,32.1,30.18,SSW,206,1.5,3.0,87,0.00,,,0.00,VWS V14.01,2013-03-15 06:09:00,
2013-03-15 02:10:00,35.6,32.1,30.18,SSW,206,1.5,3.0,87,0.00,,,0.00,VWS V14.01,2013-03-15 06:10:00,
2013-03-15 02:11:00,35.6,32.1,30.18,SSW,201,3.0,3.0,87,0.00,,,0.00,VWS V14.01,2013-03-15 06:11:00,
2013-03-15 02:12:00,35.5,32.0,30.18,SSW,201,1.5,3.0,87,0.00,,,0.00,VWS V14.01,2013-03-15 06:12:00,
2013-03-15 02:13:00,35.5,32.0,30.18,WSW,239,4.5,4.5,87,0.00,,,0.00,VWS V14.01,2013-03-15 06:13:00,
2013-03-15 02:14:00,35.4,32.2,30.17,SSW,213,1.5,1.5,88,0.00,,,0.00,VWS V14.01,2013-03-15 06:14:00,
2013-03-15 02:15:00,35.4,32.2,30.17,SSW,213,1.5,1.5,88,0.00,,,0.00,VWS V14.01,2013-03-15 06:15:00,
2013-03-15 02:16:00,35.3,32.1,30.17,SSW,213,1.5,1.5,88,0.00,,,0.00,VWS V14.01,2013-03-15 06:16:00,
2013-03-15 02:17:00,35.3,32.1,30.17,SW,236,1.5,3.0,88,0.00,,,0.00,VWS V14.01,2013-03-15 06:17:00,
2013-03-15 02:18:00,35.2,32.0,30.17,SW,223,1.5,3.0,88,0.00,,,0.00,VWS V14.01,2013-03-15 06:18:00,
2013-03-15 02:19:00,35.2,32.0,30.17,SW,223,1.5,1.5,88,0.00,,,0.00,VWS V14.01,2013-03-15 06:19:00,
2013-03-15 02:20:00,35.1,31.9,30.17,South,179,3.0,3.0,88,0.00,,,0.00,VWS V14.01,2013-03-15 06:20:00,
2013-03-15 02:21:00,35.1,31.9,30.17,SSE,157,1.5,3.0,88,0.00,,,0.00,VWS V14.01,2013-03-15 06:21:00,
2013-03-15 02:22:00,35.0,31.8,30.17,SSE,158,1.5,1.5,88,0.00,,,0.00,VWS V14.01,2013-03-15 06:22:00,
2013-03-15 02:23:00,35.0,31.8,30.17,SSE,158,1.5,1.5,88,0.00,,,0.00,VWS V14.01,2013-03-15 06:23:00,
2013-03-15 02:24:00,34.9,32.0,30.17,SSE,157,1.5,1.5,89,0.00,,,0.00,VWS V14.01,2013-03-15 06:24:00,
2013-03-15 02:25:00,34.9,32.0,30.17,SSE,157,1.5,1.5,89,0.00,,,0.00,VWS V14.01,2013-03-15 06:25:00,
2013-03-15 02:26:00,34.8,31.9,30.17,SSE,157,1.5,1.5,89,0.00,,,0.00,VWS V14.01,2013-03-15 06:26:00,
2013-03-15 02:27:00,34.8,31.9,30.17,SSE,157,1.5,1.5,89,0.00,,,0.00,VWS V14.01,2013-03-15 06:27:00,
2013-03-15 02:28:00,34.7,31.8,30.17,SSE,157,1.5,1.5,89,0.00,,,0.00,VWS V14.01,2013-03-15 06:28:00,
2013-03-15 02:29:00,34.6,31.7,30.17,SSE,157,1.5,1.5,89,0.00,,,0.00,VWS V14.01,2013-03-15 06:29:00,
2013-03-15 02:30:00,34.6,31.7,30.17,SSE,157,1.5,1.5,89,0.00,,,0.00,VWS V14.01,2013-03-15 06:30:00,
2013-03-15 02:31:00,34.6,31.7,30.17,SSE,157,1.5,1.5,89,0.00,,,0.00,VWS V14.01,2013-03-15 06:31:00,
2013-03-15 02:32:00,34.5,31.6,30.17,SE,141,1.5,1.5,89,0.00,,,0.00,VWS V14.01,2013-03-15 06:32:00,
2013-03-15 02:33:00,34.5,31.9,30.17,SE,141,1.5,1.5,90,0.00,,,0.00,VWS V14.01,2013-03-15 06:33:00,
2013-03-15 02:34:00,34.4,31.8,30.17,SSE,163,3.0,3.0,90,0.00,,,0.00,VWS V14.01,2013-03-15 06:34:00,
2013-03-15 02:35:00,34.4,31.8,30.17,SSE,147,1.5,4.5,90,0.00,,,0.00,VWS V14.01,2013-03-15 06:35:00,
2013-03-15 02:36:00,34.4,31.8,30.17,SSE,162,1.5,3.0,90,0.00,,,0.00,VWS V14.01,2013-03-15 06:36:00,
2013-03-15 02:37:00,34.4,31.8,30.17,SSE,161,1.5,1.5,90,0.00,,,0.00,VWS V14.01,2013-03-15 06:37:00,
2013-03-15 02:38:00,34.4,31.8,30.16,SSE,155,3.0,3.0,90,0.00,,,0.00,VWS V14.01,2013-03-15 06:38:00,
2013-03-15 02:39:00,34.4,31.8,30.16,SSW,206,1.5,4.5,90,0.00,,,0.00,VWS V14.01,2013-03-15 06:39:00,
2013-03-15 02:41:00,34.4,31.8,30.16,SSW,198,1.5,1.5,90,0.00,,,0.00,VWS V14.01,2013-03-15 06:41:00,
2013-03-15 02:42:00,34.4,31.8,30.17,SSW,195,1.5,3.0,90,0.00,,,0.00,VWS V14.01,2013-03-15 06:42:00,
2013-03-15 02:43:00,34.4,31.8,30.17,SSW,195,1.5,1.5,90,0.00,,,0.00,VWS V14.01,2013-03-15 06:43:00,
2013-03-15 02:44:00,34.3,31.7,30.17,SSW,209,3.0,3.0,90,0.00,,,0.00,VWS V14.01,2013-03-15 06:44:00,
2013-03-15 02:45:00,34.3,31.7,30.17,SSW,196,4.5,4.5,90,0.00,,,0.00,VWS V14.01,2013-03-15 06:45:00,
2013-03-15 02:46:00,34.3,31.7,30.17,SSW,192,1.5,4.5,90,0.00,,,0.00,VWS V14.01,2013-03-15 06:46:00,
2013-03-15 02:47:00,34.3,31.7,30.17,SSW,192,1.5,1.5,90,0.00,,,0.00,VWS V14.01,2013-03-15 06:47:00,
2013-03-15 02:48:00,34.2,31.6,30.17,SSW,192,1.5,1.5,90,0.00,,,0.00,VWS V14.01,2013-03-15 06:48:00,
2013-03-15 02:49:00,34.2,31.6,30.17,SSW,192,1.5,1.5,90,0.00,,,0.00,VWS V14.01,2013-03-15 06:49:00,
2013-03-15 02:50:00,34.2,31.6,30.17,SSW,192,1.5,1.5,90,0.00,,,0.00,VWS V14.01,2013-03-15 06:50:00,
2013-03-15 02:51:00,34.2,31.6,30.17,SSW,192,1.5,1.5,90,0.00,,,0.00,VWS V14.01,2013-03-15 06:51:00,
2013-03-15 02:52:00,34.2,31.6,30.17,SSW,192,1.5,1.5,90,0.00,,,0.00,VWS V14.01,2013-03-15 06:52:00,
2013-03-15 02:53:00,34.1,31.5,30.17,SSW,192,1.5,1.5,90,0.00,,,0.00,VWS V14.01,2013-03-15 06:53:00,
2013-03-15 02:54:00,34.1,31.8,30.17,SSW,192,1.5,1.5,91,0.00,,,0.00,VWS V14.01,2013-03-15 06:54:00,
2013-03-15 02:55:00,34.1,31.8,30.17,SSW,192,1.5,1.5,91,0.00,,,0.00,VWS V14.01,2013-03-15 06:55:00,
2013-03-15 02:56:00,34.1,31.8,30.17,SSW,192,1.5,1.5,91,0.00,,,0.00,VWS V14.01,2013-03-15 06:56:00,
2013-03-15 02:57:00,34.0,31.6,30.17,SSW,192,1.5,1.5,91,0.00,,,0.00,VWS V14.01,2013-03-15 06:57:00,
2013-03-15 02:58:00,34.0,31.6,30.17,SSW,192,1.5,1.5,91,0.00,,,0.00,VWS V14.01,2013-03-15 06:58:00,
2013-03-15 02:59:00,34.0,31.6,30.17,SSW,193,1.5,1.5,91,0.00,,,0.00,VWS V14.01,2013-03-15 06:59:00,
2013-03-15 03:00:00,34.0,31.6,30.17,SSW,192,1.5,1.5,91,0.00,,,0.00,VWS V14.01,2013-03-15 07:00:00,
2013-03-15 03:01:00,33.9,31.6,30.17,SSW,192,1.5,1.5,91,0.00,,,0.00,VWS V14.01,2013-03-15 07:01:00,
2013-03-15 03:03:00,33.9,31.6,30.17,SSW,192,1.5,1.5,91,0.00,,,0.00,VWS V14.01,2013-03-15 07:03:00,
2013-03-15 03:04:00,33.9,31.6,30.17,SSW,192,1.5,1.5,91,0.00,,,0.00,VWS V14.01,2013-03-15 07:04:00,
2013-03-15 03:05:00,33.8,31.5,30.17,SSW,192,1.5,1.5,91,0.00,,,0.00,VWS V14.01,2013-03-15 07:05:00,
2013-03-15 03:06:00,33.9,31.6,30.17,SSW,192,1.5,1.5,91,0.00,,,0.00,VWS V14.01,2013-03-15 07:06:00,
2013-03-15 03:07:00,33.9,31.8,30.17,SSW,192,1.5,1.5,92,0.00,,,0.00,VWS V14.01,2013-03-15 07:07:00,
2013-03-15 03:08:00,33.9,31.8,30.17,SSW,192,1.5,1.5,92,0.00,,,0.00,VWS V14.01,2013-03-15 07:08:00,
2013-03-15 03:09:00,33.9,31.6,30.17,SSW,193,1.5,1.5,91,0.00,,,0.00,VWS V14.01,2013-03-15 07:09:00,
2013-03-15 03:10:00,33.9,31.6,30.17,SSW,192,1.5,1.5,91,0.00,,,0.00,VWS V14.01,2013-03-15 07:10:00,
2013-03-15 03:11:00,33.9,31.6,30.17,SSW,192,1.5,1.5,91,0.00,,,0.00,VWS V14.01,2013-03-15 07:11:00,
2013-03-15 03:12:00,33.8,31.5,30.17,SSW,192,1.5,1.5,91,0.00,,,0.00,VWS V14.01,2013-03-15 07:12:00,
2013-03-15 03:14:00,33.7,31.4,30.17,SSW,192,1.5,1.5,91,0.00,,,0.00,VWS V14.01,2013-03-15 07:14:00,
2013-03-15 03:16:00,33.7,31.6,30.16,SSW,192,1.5,1.5,92,0.00,,,0.00,VWS V14.01,2013-03-15 07:16:00,
2013-03-15 03:18:00,33.6,31.5,30.16,SSW,192,1.5,1.5,92,0.00,,,0.00,VWS V14.01,2013-03-15 07:18:00,
2013-03-15 03:19:00,33.6,31.5,30.16,SSW,192,1.5,1.5,92,0.00,,,0.00,VWS V14.01,2013-03-15 07:19:00,
2013-03-15 03:20:00,33.6,31.5,30.16,SSW,192,1.5,1.5,92,0.00,,,0.00,VWS V14.01,2013-03-15 07:20:00,
2013-03-15 03:21:00,33.6,31.5,30.16,SSW,192,1.5,1.5,92,0.00,,,0.00,VWS V14.01,2013-03-15 07:21:00,
2013-03-15 03:22:00,33.5,31.4,30.16,SSW,192,1.5,1.5,92,0.00,,,0.00,VWS V14.01,2013-03-15 07:22:00,
2013-03-15 03:23:00,33.5,31.4,30.16,SSW,192,1.5,1.5,92,0.00,,,0.00,VWS V14.01,2013-03-15 07:23:00,
2013-03-15 03:24:00,33.5,31.4,30.16,SSW,192,1.5,1.5,92,0.00,,,0.00,VWS V14.01,2013-03-15 07:24:00,
2013-03-15 03:25:00,33.5,31.4,30.16,SSW,192,1.5,1.5,92,0.00,,,0.00,VWS V14.01,2013-03-15 07:25:00,
2013-03-15 03:26:00,33.5,31.4,30.16,SSW,192,1.5,1.5,92,0.00,,,0.00,VWS V14.01,2013-03-15 07:26:00,
2013-03-15 03:27:00,33.5,31.4,30.15,SSW,192,1.5,1.5,92,0.00,,,0.00,VWS V14.01,2013-03-15 07:27:00,
2013-03-15 03:28:00,33.5,31.4,30.15,SSW,192,1.5,1.5,92,0.00,,,0.00,VWS V14.01,2013-03-15 07:28:00,
2013-03-15 03:29:00,33.5,31.4,30.15,SSW,192,1.5,1.5,92,0.00,,,0.00,VWS V14.01,2013-03-15 07:29:00,
2013-03-15 03:30:00,33.4,31.3,30.15,SSW,192,1.5,1.5,92,0.00,,,0.00,VWS V14.01,2013-03-15 07:30:00,
2013-03-15 03:31:00,33.4,31.3,30.15,SSW,192,1.5,1.5,92,0.00,,,0.00,VWS V14.01,2013-03-15 07:31:00,
2013-03-15 03:32:00,33.3,31.2,30.15,SSW,193,1.5,1.5,92,0.00,,,0.00,VWS V14.01,2013-03-15 07:32:00,
2013-03-15 03:33:00,33.3,31.2,30.15,SSW,192,1.5,1.5,92,0.00,,,0.00,VWS V14.01,2013-03-15 07:33:00,
2013-03-15 03:34:00,33.3,31.2,30.15,SSW,192,1.5,1.5,92,0.00,,,0.00,VWS V14.01,2013-03-15 07:34:00,
2013-03-15 03:35:00,33.2,31.4,30.15,SSW,192,1.5,1.5,93,0.00,,,0.00,VWS V14.01,2013-03-15 07:35:00,
2013-03-15 03:36:00,33.2,31.4,30.15,SSW,192,1.5,1.5,93,0.00,,,0.00,VWS V14.01,2013-03-15 07:36:00,
2013-03-15 03:37:00,33.1,31.3,30.15,SSW,192,1.5,1.5,93,0.00,,,0.00,VWS V14.01,2013-03-15 07:37:00,
2013-03-15 03:38:00,33.1,31.3,30.15,SSW,192,1.5,1.5,93,0.00,,,0.00,VWS V14.01,2013-03-15 07:38:00,
2013-03-15 03:39:00,33.0,31.5,30.15,SSW,192,1.5,1.5,94,0.00,,,0.00,VWS V14.01,2013-03-15 07:39:00,
2013-03-15 03:40:00,33.0,31.5,30.15,SSW,192,1.5,1.5,94,0.00,,,0.00,VWS V14.01,2013-03-15 07:40:00,
2013-03-15 03:41:00,33.0,31.5,30.15,SSW,192,1.5,1.5,94,0.00,,,0.00,VWS V14.01,2013-03-15 07:41:00,
2013-03-15 03:42:00,32.9,31.4,30.15,SSW,192,1.5,1.5,94,0.00,,,0.00,VWS V14.01,2013-03-15 07:42:00,
2013-03-15 03:43:00,32.9,31.4,30.15,SSW,192,1.5,1.5,94,0.00,,,0.00,VWS V14.01,2013-03-15 07:43:00,
2013-03-15 03:44:00,32.9,31.6,30.14,SSW,192,1.5,1.5,95,0.00,,,0.00,VWS V14.01,2013-03-15 07:44:00,
2013-03-15 03:45:00,32.9,31.6,30.14,SSW,192,1.5,1.5,95,0.00,,,0.00,VWS V14.01,2013-03-15 07:45:00,
2013-03-15 03:46:00,32.9,31.6,30.15,SSW,192,1.5,1.5,95,0.00,,,0.00,VWS V14.01,2013-03-15 07:46:00,
2013-03-15 03:47:00,32.9,31.6,30.14,SSW,192,1.5,1.5,95,0.00,,,0.00,VWS V14.01,2013-03-15 07:47:00,
2013-03-15 03:48:00,32.9,31.6,30.14,SSW,192,1.5,1.5,95,0.00,,,0.00,VWS V14.01,2013-03-15 07:48:00,
2013-03-15 03:49:00,32.9,31.6,30.14,SSW,192,1.5,1.5,95,0.00,,,0.00,VWS V14.01,2013-03-15 07:49:00,
2013-03-15 03:52:00,32.8,31.5,30.14,SSW,192,1.5,1.5,95,0.00,,,0.00,VWS V14.01,2013-03-15 07:52:00,
2013-03-15 03:53:00,32.8,31.5,30.14,SSW,192,1.5,1.5,95,0.00,,,0.00,VWS V14.01,2013-03-15 07:53:00,
2013-03-15 03:54:00,32.8,31.5,30.14,SSW,192,1.5,1.5,95,0.00,,,0.00,VWS V14.01,2013-03-15 07:54:00,
2013-03-15 03:56:00,32.7,31.4,30.14,SSW,192,1.5,1.5,95,0.00,,,0.00,VWS V14.01,2013-03-15 07:56:00,
2013-03-15 03:57:00,32.7,31.4,30.14,SSW,192,1.5,1.5,95,0.00,,,0.00,VWS V14.01,2013-03-15 07:57:00,
2013-03-15 03:58:00,32.7,31.4,30.14,SSW,192,1.5,1.5,95,0.00,,,0.00,VWS V14.01,2013-03-15 07:58:00,
2013-03-15 03:59:00,32.7,31.4,30.14,SSW,193,1.5,1.5,95,0.00,,,0.00,VWS V14.01,2013-03-15 07:59:00,
2013-03-15 04:00:00,32.7,31.4,30.14,SSW,192,1.5,1.5,95,0.00,,,0.00,VWS V14.01,2013-03-15 08:00:00,
2013-03-15 04:01:00,32.7,31.4,30.13,SSW,192,1.5,1.5,95,0.00,,,0.00,VWS V14.01,2013-03-15 08:01:00,
2013-03-15 04:02:00,32.6,31.3,30.13,SSW,192,1.5,3.0,95,0.00,,,0.00,VWS V14.01,2013-03-15 08:02:00,
2013-03-15 04:03:00,32.6,31.3,30.13,SSW,193,1.5,3.0,95,0.00,,,0.00,VWS V14.01,2013-03-15 08:03:00,
2013-03-15 04:04:00,32.5,31.2,30.13,SSW,193,1.5,1.5,95,0.00,,,0.00,VWS V14.01,2013-03-15 08:04:00,
2013-03-15 04:05:00,32.5,31.2,30.13,SSW,192,1.5,1.5,95,0.00,,,0.00,VWS V14.01,2013-03-15 08:05:00,
2013-03-15 04:06:00,32.4,31.1,30.13,SSW,192,1.5,1.5,95,0.00,,,0.00,VWS V14.01,2013-03-15 08:06:00,
2013-03-15 04:07:00,32.4,31.1,30.13,SSW,193,1.5,1.5,95,0.00,,,0.00,VWS V14.01,2013-03-15 08:07:00,
2013-03-15 04:08:00,32.4,31.1,30.13,SSW,192,1.5,1.5,95,0.00,,,0.00,VWS V14.01,2013-03-15 08:08:00,
2013-03-15 04:09:00,32.3,31.0,30.12,SSW,192,1.5,1.5,95,0.00,,,0.00,VWS V14.01,2013-03-15 08:09:00,
2013-03-15 04:10:00,32.2,30.9,30.12,SSW,192,1.5,1.5,95,0.00,,,0.00,VWS V14.01,2013-03-15 08:10:00,
2013-03-15 04:11:00,32.2,30.9,30.12,SSW,192,1.5,1.5,95,0.00,,,0.00,VWS V14.01,2013-03-15 08:11:00,
2013-03-15 04:12:00,32.2,30.9,30.12,SSW,192,1.5,1.5,95,0.00,,,0.00,VWS V14.01,2013-03-15 08:12:00,
2013-03-15 04:13:00,32.1,30.8,30.12,SSW,192,1.5,1.5,95,0.00,,,0.00,VWS V14.01,2013-03-15 08:13:00,
2013-03-15 04:14:00,32.1,30.8,30.12,SSW,192,1.5,1.5,95,0.00,,,0.00,VWS V14.01,2013-03-15 08:14:00,
2013-03-15 04:15:00,32.0,30.7,30.12,SSW,192,1.5,1.5,95,0.00,,,0.00,VWS V14.01,2013-03-15 08:15:00,
2013-03-15 04:16:00,32.0,30.7,30.12,SSW,192,1.5,1.5,95,0.00,,,0.00,VWS V14.01,2013-03-15 08:16:00,
2013-03-15 04:17:00,31.9,30.6,30.12,SSW,192,1.5,1.5,95,0.00,,,0.00,VWS V14.01,2013-03-15 08:17:00,
2013-03-15 04:18:00,31.9,30.6,30.12,SSW,192,1.5,1.5,95,0.00,,,0.00,VWS V14.01,2013-03-15 08:18:00,
2013-03-15 04:19:00,31.8,30.5,30.12,SSW,193,1.5,1.5,95,0.00,,,0.00,VWS V14.01,2013-03-15 08:19:00,
2013-03-15 04:20:00,31.8,30.8,30.12,SSW,192,1.5,1.5,96,0.00,,,0.00,VWS V14.01,2013-03-15 08:20:00,
2013-03-15 04:21:00,31.7,30.7,30.12,SSW,193,1.5,1.5,96,0.00,,,0.00,VWS V14.01,2013-03-15 08:21:00,
2013-03-15 04:22:00,31.7,30.7,30.12,SSW,192,1.5,1.5,96,0.00,,,0.00,VWS V14.01,2013-03-15 08:22:00,
2013-03-15 04:23:00,31.7,30.7,30.12,SSW,192,1.5,1.5,96,0.00,,,0.00,VWS V14.01,2013-03-15 08:23:00,
2013-03-15 04:24:00,31.6,30.6,30.12,SSW,192,1.5,1.5,96,0.00,,,0.00,VWS V14.01,2013-03-15 08:24:00,
2013-03-15 04:25:00,31.6,30.6,30.12,SSW,193,1.5,1.5,96,0.00,,,0.00,VWS V14.01,2013-03-15 08:25:00,
2013-03-15 04:26:00,31.5,30.5,30.12,SSW,192,1.5,1.5,96,0.00,,,0.00,VWS V14.01,2013-03-15 08:26:00,
2013-03-15 04:27:00,31.5,30.5,30.12,SSW,192,1.5,1.5,96,0.00,,,0.00,VWS V14.01,2013-03-15 08:27:00,
2013-03-15 04:28:00,31.4,30.4,30.11,SSW,193,1.5,1.5,96,0.00,,,0.00,VWS V14.01,2013-03-15 08:28:00,
2013-03-15 04:29:00,31.3,30.3,30.11,SSW,192,1.5,1.5,96,0.00,,,0.00,VWS V14.01,2013-03-15 08:29:00,
2013-03-15 04:30:00,31.3,30.3,30.11,SSW,192,1.5,1.5,96,0.00,,,0.00,VWS V14.01,2013-03-15 08:30:00,
2013-03-15 04:31:00,31.2,30.2,30.11,SSW,192,1.5,1.5,96,0.00,,,0.00,VWS V14.01,2013-03-15 08:31:00,
2013-03-15 04:32:00,31.2,30.2,30.11,SSW,192,1.5,1.5,96,0.00,,,0.00,VWS V14.01,2013-03-15 08:32:00,
2013-03-15 04:33:00,31.1,30.1,30.11,SSW,192,1.5,1.5,96,0.00,,,0.00,VWS V14.01,2013-03-15 08:33:00,
2013-03-15 04:34:00,31.0,30.0,30.11,SSW,192,1.5,1.5,96,0.00,,,0.00,VWS V14.01,2013-03-15 08:34:00,
2013-03-15 04:35:00,31.0,30.0,30.11,SSW,192,1.5,1.5,96,0.00,,,0.00,VWS V14.01,2013-03-15 08:35:00,
2013-03-15 04:36:00,31.0,30.0,30.11,SSW,192,1.5,1.5,96,0.00,,,0.00,VWS V14.01,2013-03-15 08:36:00,
2013-03-15 04:37:00,30.9,30.1,30.11,SSW,192,1.5,1.5,97,0.00,,,0.00,VWS V14.01,2013-03-15 08:37:00,
2013-03-15 04:38:00,30.9,30.1,30.11,SSW,192,1.5,1.5,97,0.00,,,0.00,VWS V14.01,2013-03-15 08:38:00,
2013-03-15 04:39:00,30.9,30.1,30.11,SSW,192,1.5,1.5,97,0.00,,,0.00,VWS V14.01,2013-03-15 08:39:00,
2013-03-15 04:40:00,30.9,30.1,30.11,SSW,193,1.5,1.5,97,0.00,,,0.00,VWS V14.01,2013-03-15 08:40:00,
2013-03-15 04:41:00,30.8,30.0,30.11,SSW,192,1.5,1.5,97,0.00,,,0.00,VWS V14.01,2013-03-15 08:41:00,
2013-03-15 04:42:00,30.8,30.0,30.11,SSW,192,1.5,1.5,97,0.00,,,0.00,VWS V14.01,2013-03-15 08:42:00,
2013-03-15 04:43:00,30.8,30.0,30.11,SSW,192,1.5,1.5,97,0.00,,,0.00,VWS V14.01,2013-03-15 08:43:00,
2013-03-15 04:44:00,30.7,30.0,30.11,SSW,192,1.5,1.5,97,0.00,,,0.00,VWS V14.01,2013-03-15 08:44:00,
2013-03-15 04:45:00,30.7,30.0,30.11,SSW,192,1.5,1.5,97,0.00,,,0.00,VWS V14.01,2013-03-15 08:45:00,
2013-03-15 04:46:00,30.7,30.0,30.11,SSW,192,1.5,1.5,97,0.00,,,0.00,VWS V14.01,2013-03-15 08:46:00,
2013-03-15 04:47:00,30.7,30.0,30.11,SSW,192,1.5,1.5,97,0.00,,,0.00,VWS V14.01,2013-03-15 08:47:00,
2013-03-15 04:48:00,30.7,30.2,30.10,SSW,193,1.5,1.5,98,0.00,,,0.00,VWS V14.01,2013-03-15 08:48:00,
2013-03-15 04:49:00,30.7,30.2,30.10,SSW,192,1.5,1.5,98,0.00,,,0.00,VWS V14.01,2013-03-15 08:49:00,
2013-03-15 04:50:00,30.7,30.2,30.10,SSW,192,1.5,1.5,98,0.00,,,0.00,VWS V14.01,2013-03-15 08:50:00,
2013-03-15 04:51:00,30.7,30.2,30.10,SSW,193,1.5,1.5,98,0.00,,,0.00,VWS V14.01,2013-03-15 08:51:00,
2013-03-15 04:52:00,30.7,30.2,30.11,SSW,192,1.5,1.5,98,0.00,,,0.00,VWS V14.01,2013-03-15 08:52:00,
2013-03-15 04:53:00,30.7,30.2,30.11,SSW,192,1.5,1.5,98,0.00,,,0.00,VWS V14.01,2013-03-15 08:53:00,
2013-03-15 04:54:00,30.7,30.2,30.11,SSW,192,1.5,1.5,98,0.00,,,0.00,VWS V14.01,2013-03-15 08:54:00,
2013-03-15 04:55:00,30.7,30.2,30.11,SSW,192,1.5,1.5,98,0.00,,,0.00,VWS V14.01,2013-03-15 08:55:00,
2013-03-15 04:56:00,30.7,30.2,30.11,SSW,193,1.5,1.5,98,0.00,,,0.00,VWS V14.01,2013-03-15 08:56:00,
2013-03-15 04:57:00,30.6,30.1,30.11,SSW,192,1.5,1.5,98,0.00,,,0.00,VWS V14.01,2013-03-15 08:57:00,
2013-03-15 04:58:00,30.6,30.1,30.11,SSW,192,1.5,1.5,98,0.00,,,0.00,VWS V14.01,2013-03-15 08:58:00,
2013-03-15 04:59:00,30.5,29.8,30.11,SSW,192,1.5,1.5,97,0.00,,,0.00,VWS V14.01,2013-03-15 08:59:00,
2013-03-15 05:00:00,30.5,29.8,30.11,SSW,192,1.5,1.5,97,0.00,,,0.00,VWS V14.01,2013-03-15 09:00:00,
2013-03-15 05:01:00,30.5,29.8,30.11,SSW,192,1.5,1.5,97,0.00,,,0.00,VWS V14.01,2013-03-15 09:01:00,
2013-03-15 05:02:00,30.5,30.0,30.11,SSW,192,1.5,1.5,98,0.00,,,0.00,VWS V14.01,2013-03-15 09:02:00,
2013-03-15 05:03:00,30.6,30.1,30.11,SSW,192,1.5,1.5,98,0.00,,,0.00,VWS V14.01,2013-03-15 09:03:00,
2013-03-15 05:04:00,30.7,30.2,30.11,SSW,192,1.5,1.5,98,0.00,,,0.00,VWS V14.01,2013-03-15 09:04:00,
2013-03-15 05:05:00,30.7,30.5,30.11,SSW,192,1.5,1.5,99,0.00,,,0.00,VWS V14.01,2013-03-15 09:05:00,
2013-03-15 05:06:00,30.8,30.5,30.11,SSW,192,1.5,1.5,99,0.00,,,0.00,VWS V14.01,2013-03-15 09:06:00,
2013-03-15 05:07:00,30.8,30.5,30.11,SSW,192,1.5,1.5,99,0.00,,,0.00,VWS V14.01,2013-03-15 09:07:00,
2013-03-15 05:08:00,30.9,30.4,30.11,SSW,193,1.5,1.5,98,0.00,,,0.00,VWS V14.01,2013-03-15 09:08:00,
2013-03-15 05:09:00,30.9,30.4,30.11,SSW,192,1.5,1.5,98,0.00,,,0.00,VWS V14.01,2013-03-15 09:09:00,
2013-03-15 05:10:00,30.9,30.4,30.10,SSW,193,1.5,1.5,98,0.00,,,0.00,VWS V14.01,2013-03-15 09:10:00,
2013-03-15 05:11:00,30.9,30.4,30.10,SSW,192,1.5,1.5,98,0.00,,,0.00,VWS V14.01,2013-03-15 09:11:00,
2013-03-15 05:12:00,30.9,30.4,30.11,SSW,192,1.5,1.5,98,0.00,,,0.00,VWS V14.01,2013-03-15 09:12:00,
2013-03-15 05:13:00,30.9,30.4,30.10,SSW,192,1.5,1.5,98,0.00,,,0.00,VWS V14.01,2013-03-15 09:13:00,
2013-03-15 05:14:00,30.9,30.4,30.10,SSW,192,1.5,1.5,98,0.00,,,0.00,VWS V14.01,2013-03-15 09:14:00,
2013-03-15 05:15:00,30.9,30.4,30.10,SSW,192,1.5,1.5,98,0.00,,,0.00,VWS V14.01,2013-03-15 09:15:00,
2013-03-15 05:16:00,30.9,30.4,30.10,SSW,192,1.5,1.5,98,0.00,,,0.00,VWS V14.01,2013-03-15 09:16:00,
2013-03-15 05:17:00,30.9,30.4,30.10,SSW,192,1.5,1.5,98,0.00,,,0.00,VWS V14.01,2013-03-15 09:17:00,
2013-03-15 05:18:00,30.8,30.3,30.10,SSW,192,1.5,1.5,98,0.00,,,0.00,VWS V14.01,2013-03-15 09:18:00,
2013-03-15 05:19:00,30.8,30.3,30.10,SSW,192,1.5,1.5,98,0.00,,,0.00,VWS V14.01,2013-03-15 09:19:00,
2013-03-15 05:20:00,30.8,30.3,30.10,SSW,192,1.5,1.5,98,0.00,,,0.00,VWS V14.01,2013-03-15 09:20:00,
2013-03-15 05:21:00,30.8,30.3,30.10,SSW,192,1.5,1.5,98,0.00,,,0.00,VWS V14.01,2013-03-15 09:21:00,
2013-03-15 05:22:00,30.7,30.2,30.10,SSW,192,1.5,1.5,98,0.00,,,0.00,VWS V14.01,2013-03-15 09:22:00,
2013-03-15 05:23:00,30.7,30.2,30.10,SSW,193,1.5,1.5,98,0.00,,,0.00,VWS V14.01,2013-03-15 09:23:00,
2013-03-15 05:24:00,30.7,30.2,30.10,SSW,192,1.5,1.5,98,0.00,,,0.00,VWS V14.01,2013-03-15 09:24:00,
2013-03-15 05:25:00,30.7,30.2,30.10,SSW,192,1.5,1.5,98,0.00,,,0.00,VWS V14.01,2013-03-15 09:25:00,
2013-03-15 05:26:00,30.7,30.2,30.10,SSW,192,1.5,1.5,98,0.00,,,0.00,VWS V14.01,2013-03-15 09:26:00,
2013-03-15 05:27:00,30.6,30.1,30.09,SSW,192,1.5,1.5,98,0.00,,,0.00,VWS V14.01,2013-03-15 09:27:00,
2013-03-15 05:28:00,30.6,30.1,30.09,SSW,193,1.5,1.5,98,0.00,,,0.00,VWS V14.01,2013-03-15 09:28:00,
2013-03-15 05:29:00,30.6,30.1,30.09,SSW,192,1.5,1.5,98,0.00,,,0.00,VWS V14.01,2013-03-15 09:29:00,
2013-03-15 05:30:00,30.6,30.1,30.09,SSW,192,1.5,1.5,98,0.00,,,0.00,VWS V14.01,2013-03-15 09:30:00,
2013-03-15 05:31:00,30.5,30.0,30.09,SSW,192,1.5,1.5,98,0.00,,,0.00,VWS V14.01,2013-03-15 09:31:00,
2013-03-15 05:32:00,30.5,30.0,30.09,SSW,192,1.5,1.5,98,0.00,,,0.00,VWS V14.01,2013-03-15 09:32:00,
2013-03-15 05:33:00,30.5,30.0,30.09,SSW,193,1.5,1.5,98,0.00,,,0.00,VWS V14.01,2013-03-15 09:33:00,
2013-03-15 05:34:00,30.5,30.0,30.09,South,182,1.5,1.5,98,0.00,,,0.00,VWS V14.01,2013-03-15 09:34:00,
2013-03-15 05:35:00,30.5,30.0,30.09,South,182,1.5,1.5,98,0.00,,,0.00,VWS V14.01,2013-03-15 09:35:00,
2013-03-15 05:36:00,30.5,30.0,30.09,SW,220,3.0,4.5,98,0.00,,,0.00,VWS V14.01,2013-03-15 09:36:00,
2013-03-15 05:37:00,30.5,30.0,30.09,SW,219,1.5,3.0,98,0.00,,,0.00,VWS V14.01,2013-03-15 09:37:00,
2013-03-15 05:38:00,30.5,30.0,30.09,SSW,199,1.5,1.5,98,0.00,,,0.00,VWS V14.01,2013-03-15 09:38:00,
2013-03-15 05:39:00,30.5,30.0,30.09,SSW,199,1.5,1.5,98,0.00,,,0.00,VWS V14.01,2013-03-15 09:39:00,
2013-03-15 05:40:00,30.6,30.1,30.09,SSW,196,1.5,1.5,98,0.00,,,0.00,VWS V14.01,2013-03-15 09:40:00,
2013-03-15 05:41:00,30.6,30.1,30.08,SSW,196,1.5,1.5,98,0.00,,,0.00,VWS V14.01,2013-03-15 09:41:00,
2013-03-15 05:42:00,30.6,30.1,30.09,SSW,196,1.5,1.5,98,0.00,,,0.00,VWS V14.01,2013-03-15 09:42:00,
2013-03-15 05:43:00,30.6,30.1,30.09,SSW,196,1.5,1.5,98,0.00,,,0.00,VWS V14.01,2013-03-15 09:43:00,
2013-03-15 05:44:00,30.6,30.1,30.09,ESE,102,1.5,3.0,98,0.00,,,0.00,VWS V14.01,2013-03-15 09:44:00,
2013-03-15 05:45:00,30.6,30.1,30.09,ESE,102,1.5,3.0,98,0.00,,,0.00,VWS V14.01,2013-03-15 09:45:00,
2013-03-15 05:46:00,30.6,30.1,30.09,ESE,102,1.5,3.0,98,0.00,,,0.00,VWS V14.01,2013-03-15 09:46:00,
2013-03-15 05:47:00,30.7,30.2,30.09,ESE,102,1.5,1.5,98,0.00,,,0.00,VWS V14.01,2013-03-15 09:47:00,
2013-03-15 05:48:00,30.7,30.2,30.09,ESE,102,1.5,1.5,98,0.00,,,0.00,VWS V14.01,2013-03-15 09:48:00,
2013-03-15 05:49:00,30.7,30.2,30.09,ESE,102,1.5,1.5,98,0.00,,,0.00,VWS V14.01,2013-03-15 09:49:00,
2013-03-15 05:50:00,30.7,30.2,30.09,ESE,102,1.5,1.5,98,0.00,,,0.00,VWS V14.01,2013-03-15 09:50:00,
2013-03-15 05:51:00,30.7,30.2,30.08,ESE,102,1.5,1.5,98,0.00,,,0.00,VWS V14.01,2013-03-15 09:51:00,
2013-03-15 05:52:00,30.6,30.1,30.09,ESE,102,1.5,1.5,98,0.00,,,0.00,VWS V14.01,2013-03-15 09:52:00,
2013-03-15 05:53:00,30.6,30.1,30.09,ESE,102,1.5,1.5,98,0.00,,,0.00,VWS V14.01,2013-03-15 09:53:00,
2013-03-15 05:54:00,30.6,30.1,30.08,ESE,102,1.5,1.5,98,0.00,,,0.00,VWS V14.01,2013-03-15 09:54:00,
2013-03-15 05:55:00,30.5,30.0,30.09,ESE,120,1.5,3.0,98,0.00,,,0.00,VWS V14.01,2013-03-15 09:55:00,
2013-03-15 05:56:00,30.5,30.0,30.08,ESE,120,1.5,1.5,98,0.00,,,0.00,VWS V14.01,2013-03-15 09:56:00,
2013-03-15 05:57:00,30.6,30.1,30.08,ESE,120,1.5,1.5,98,0.00,,,0.00,VWS V14.01,2013-03-15 09:57:00,
2013-03-15 05:58:00,30.6,30.1,30.08,ESE,120,1.5,1.5,98,0.00,,,0.00,VWS V14.01,2013-03-15 09:58:00,
2013-03-15 05:59:00,30.6,30.1,30.08,ESE,120,1.5,1.5,98,0.00,,,0.00,VWS V14.01,2013-03-15 09:59:00,
2013-03-15 06:00:00,30.6,30.1,30.08,SSW,207,1.5,3.0,98,0.00,,,0.00,VWS V14.01,2013-03-15 10:00:00,
2013-03-15 06:01:00,30.6,30.1,30.08,SSW,207,1.5,3.0,98,0.00,,,0.00,VWS V14.01,2013-03-15 10:01:00,
2013-03-15 06:02:00,30.6,30.1,30.08,SSW,206,1.5,3.0,98,0.00,,,0.00,VWS V14.01,2013-03-15 10:02:00,
2013-03-15 06:03:00,30.6,30.1,30.08,SSW,206,1.5,3.0,98,0.00,,,0.00,VWS V14.01,2013-03-15 10:03:00,
2013-03-15 06:04:00,30.6,30.1,30.08,SSW,206,1.5,1.5,98,0.00,,,0.00,VWS V14.01,2013-03-15 10:04:00,
2013-03-15 06:05:00,30.6,30.1,30.08,SSW,206,1.5,1.5,98,0.00,,,0.00,VWS V14.01,2013-03-15 10:05:00,
2013-03-15 06:06:00,30.6,30.1,30.08,SSW,206,1.5,1.5,98,0.00,,,0.00,VWS V14.01,2013-03-15 10:06:00,
2013-03-15 06:07:00,30.6,30.1,30.08,SSW,206,1.5,1.5,98,0.00,,,0.00,VWS V14.01,2013-03-15 10:07:00,
2013-03-15 06:08:00,30.6,30.1,30.07,South,187,1.5,1.5,98,0.00,,,0.00,VWS V14.01,2013-03-15 10:08:00,
2013-03-15 06:09:00,30.6,30.1,30.07,SE,130,1.5,1.5,98,0.00,,,0.00,VWS V14.01,2013-03-15 10:09:00,
2013-03-15 06:10:00,30.6,30.1,30.07,SE,131,1.5,1.5,98,0.00,,,0.00,VWS V14.01,2013-03-15 10:10:00,
2013-03-15 06:11:00,30.7,30.2,30.07,SW,233,1.5,3.0,98,0.00,,,0.00,VWS V14.01,2013-03-15 10:11:00,
2013-03-15 06:12:00,30.7,30.2,30.07,SSE,147,1.5,3.0,98,0.00,,,0.00,VWS V14.01,2013-03-15 10:12:00,
2013-03-15 06:13:00,30.7,30.2,30.07,South,177,1.5,3.0,98,0.00,,,0.00,VWS V14.01,2013-03-15 10:13:00,
2013-03-15 06:14:00,30.8,30.3,30.07,SSW,198,1.5,1.5,98,0.00,,,0.00,VWS V14.01,2013-03-15 10:14:00,
2013-03-15 06:15:00,30.8,30.3,30.07,SE,144,4.5,4.5,98,0.00,,,0.00,VWS V14.01,2013-03-15 10:15:00,
2013-03-15 06:16:00,30.9,30.4,30.07,SSW,194,1.5,4.5,98,0.00,,,0.00,VWS V14.01,2013-03-15 10:16:00,
2013-03-15 06:17:00,31.0,30.5,30.07,SW,231,1.5,3.0,98,0.00,,,0.00,VWS V14.01,2013-03-15 10:17:00,
2013-03-15 06:18:00,31.0,30.5,30.06,SW,232,1.5,1.5,98,0.00,,,0.00,VWS V14.01,2013-03-15 10:18:00,
2013-03-15 06:19:00,31.0,30.2,30.07,SSW,203,1.5,1.5,97,0.00,,,0.00,VWS V14.01,2013-03-15 10:19:00,
2013-03-15 06:20:00,31.1,30.4,30.07,SW,226,4.5,4.5,97,0.00,,,0.00,VWS V14.01,2013-03-15 10:20:00,
2013-03-15 06:21:00,31.2,30.5,30.07,WSW,255,1.5,4.5,97,0.00,,,0.00,VWS V14.01,2013-03-15 10:21:00,
2013-03-15 06:22:00,31.2,30.5,30.07,SSE,154,1.5,3.0,97,0.00,,,0.00,VWS V14.01,2013-03-15 10:22:00,
2013-03-15 06:23:00,31.3,30.5,30.07,SSE,154,1.5,1.5,97,0.00,,,0.00,VWS V14.01,2013-03-15 10:23:00,
2013-03-15 06:24:00,31.3,30.5,30.06,SSE,154,3.0,3.0,97,0.00,,,0.00,VWS V14.01,2013-03-15 10:24:00,
2013-03-15 06:25:00,31.3,30.5,30.06,SSE,154,1.5,3.0,97,0.00,,,0.00,VWS V14.01,2013-03-15 10:25:00,
2013-03-15 06:26:00,31.4,30.6,30.06,SSE,154,1.5,1.5,97,0.00,,,0.00,VWS V14.01,2013-03-15 10:26:00,
2013-03-15 06:27:00,31.4,30.4,30.06,SSE,149,1.5,1.5,96,0.00,,,0.00,VWS V14.01,2013-03-15 10:27:00,
2013-03-15 06:28:00,31.4,30.4,30.06,SSE,158,1.5,1.5,96,0.00,,,0.00,VWS V14.01,2013-03-15 10:28:00,
2013-03-15 06:29:00,31.5,30.5,30.07,SSE,159,1.5,1.5,96,0.00,,,0.00,VWS V14.01,2013-03-15 10:29:00,
2013-03-15 06:30:00,31.5,30.5,30.07,SSE,158,1.5,1.5,96,0.00,,,0.00,VWS V14.01,2013-03-15 10:30:00,
2013-03-15 06:31:00,31.5,30.5,30.06,SW,216,3.0,4.5,96,0.00,,,0.00,VWS V14.01,2013-03-15 10:31:00,
2013-03-15 06:32:00,31.6,30.6,30.06,SW,216,1.5,3.0,96,0.00,,,0.00,VWS V14.01,2013-03-15 10:32:00,
2013-03-15 06:33:00,31.6,30.6,30.07,SW,216,1.5,1.5,96,0.00,,,0.00,VWS V14.01,2013-03-15 10:33:00,
2013-03-15 06:34:00,31.6,30.6,30.07,SSW,213,1.5,1.5,96,0.00,,,0.00,VWS V14.01,2013-03-15 10:34:00,
2013-03-15 06:35:00,31.7,30.7,30.07,SSW,213,1.5,1.5,96,0.00,,,0.00,VWS V14.01,2013-03-15 10:35:00,
2013-03-15 06:36:00,31.7,30.7,30.07,SSW,213,1.5,1.5,96,0.00,,,0.00,VWS V14.01,2013-03-15 10:36:00,
2013-03-15 06:37:00,31.7,30.7,30.07,SSW,213,1.5,1.5,96,0.00,,,0.00,VWS V14.01,2013-03-15 10:37:00,
2013-03-15 06:38:00,31.7,30.7,30.07,SSW,213,1.5,1.5,96,0.00,,,0.00,VWS V14.01,2013-03-15 10:38:00,
2013-03-15 06:39:00,31.6,30.3,30.07,SSW,213,1.5,1.5,95,0.00,,,0.00,VWS V14.01,2013-03-15 10:39:00,
2013-03-15 06:40:00,31.6,30.3,30.07,SSW,213,1.5,1.5,95,0.00,,,0.00,VWS V14.01,2013-03-15 10:40:00,
2013-03-15 06:41:00,31.5,30.2,30.07,SSW,213,1.5,1.5,95,0.00,,,0.00,VWS V14.01,2013-03-15 10:41:00,
2013-03-15 06:42:00,31.4,30.1,30.07,SSW,213,1.5,1.5,95,0.00,,,0.00,VWS V14.01,2013-03-15 10:42:00,
2013-03-15 06:43:00,31.4,30.1,30.07,SSW,213,1.5,1.5,95,0.00,,,0.00,VWS V14.01,2013-03-15 10:43:00,
2013-03-15 06:44:00,31.4,30.1,30.07,SSW,213,1.5,1.5,95,0.00,,,0.00,VWS V14.01,2013-03-15 10:44:00,
2013-03-15 06:45:00,31.3,30.0,30.07,SSW,213,1.5,1.5,95,0.00,,,0.00,VWS V14.01,2013-03-15 10:45:00,
2013-03-15 06:46:00,31.3,30.0,30.07,SSW,213,1.5,1.5,95,0.00,,,0.00,VWS V14.01,2013-03-15 10:46:00,
2013-03-15 06:47:00,31.2,29.9,30.07,SSW,213,1.5,1.5,95,0.00,,,0.00,VWS V14.01,2013-03-15 10:47:00,
2013-03-15 06:48:00,31.2,29.9,30.07,SW,223,1.5,3.0,95,0.00,,,0.00,VWS V14.01,2013-03-15 10:48:00,
2013-03-15 06:49:00,31.2,30.2,30.07,SW,223,1.5,1.5,96,0.00,,,0.00,VWS V14.01,2013-03-15 10:49:00,
2013-03-15 06:50:00,31.3,30.3,30.07,SW,223,1.5,1.5,96,0.00,,,0.00,VWS V14.01,2013-03-15 10:50:00,
2013-03-15 06:51:00,31.4,30.4,30.07,SW,229,3.0,3.0,96,0.00,,,0.00,VWS V14.01,2013-03-15 10:51:00,
2013-03-15 06:52:00,31.4,30.6,30.07,SSW,202,3.0,3.0,97,0.00,,,0.00,VWS V14.01,2013-03-15 10:52:00,
2013-03-15 06:53:00,31.5,30.8,30.07,SSW,201,1.5,3.0,97,0.00,,,0.00,VWS V14.01,2013-03-15 10:53:00,
2013-03-15 06:54:00,31.6,30.6,30.06,SSW,202,1.5,1.5,96,0.00,,,0.00,VWS V14.01,2013-03-15 10:54:00,
2013-03-15 06:55:00,31.7,30.7,30.06,SSW,202,1.5,1.5,96,0.00,,,0.00,VWS V14.01,2013-03-15 10:55:00,
2013-03-15 06:56:00,31.7,30.7,30.07,SSW,202,1.5,1.5,96,0.00,,,0.00,VWS V14.01,2013-03-15 10:56:00,
2013-03-15 06:57:00,31.7,30.7,30.06,SSW,202,1.5,1.5,96,0.00,,,0.00,VWS V14.01,2013-03-15 10:57:00,
2013-03-15 06:58:00,31.7,30.7,30.07,SSW,202,1.5,1.5,96,0.00,,,0.00,VWS V14.01,2013-03-15 10:58:00,
2013-03-15 06:59:00,31.7,30.7,30.06,SSW,201,1.5,1.5,96,0.00,,,0.00,VWS V14.01,2013-03-15 10:59:00,
2013-03-15 07:00:00,31.7,30.4,30.06,SSW,202,1.5,1.5,95,0.00,,,0.00,VWS V14.01,2013-03-15 11:00:00,
2013-03-15 07:01:00,31.7,30.4,30.06,SSW,202,1.5,1.5,95,0.00,,,0.00,VWS V14.01,2013-03-15 11:01:00,
2013-03-15 07:02:00,31.6,30.3,30.06,SSW,202,1.5,1.5,95,0.00,,,0.00,VWS V14.01,2013-03-15 11:02:00,
2013-03-15 07:03:00,31.6,30.3,30.06,SSW,202,1.5,1.5,95,0.00,,,0.00,VWS V14.01,2013-03-15 11:03:00,
2013-03-15 07:04:00,31.5,30.2,30.06,SSW,201,1.5,1.5,95,0.00,,,0.00,VWS V14.01,2013-03-15 11:04:00,
2013-03-15 07:05:00,31.4,30.1,30.06,SSW,201,1.5,1.5,95,0.00,,,0.00,VWS V14.01,2013-03-15 11:05:00,
2013-03-15 07:06:00,31.4,30.1,30.06,SSW,202,1.5,1.5,95,0.00,,,0.00,VWS V14.01,2013-03-15 11:06:00,
2013-03-15 07:07:00,31.4,30.1,30.06,SSW,202,1.5,1.5,95,0.00,,,0.00,VWS V14.01,2013-03-15 11:07:00,
2013-03-15 07:08:00,31.4,30.1,30.06,SSW,202,1.5,1.5,95,0.00,,,0.00,VWS V14.01,2013-03-15 11:08:00,
2013-03-15 07:09:00,31.3,30.0,30.06,SSW,202,1.5,1.5,95,0.00,,,0.00,VWS V14.01,2013-03-15 11:09:00,
2013-03-15 07:10:00,31.3,30.3,30.06,SSW,202,1.5,1.5,96,0.00,,,0.00,VWS V14.01,2013-03-15 11:10:00,
2013-03-15 07:11:00,31.3,30.3,30.06,SSW,202,1.5,1.5,96,0.00,,,0.00,VWS V14.01,2013-03-15 11:11:00,
2013-03-15 07:12:00,31.3,30.3,30.06,SSW,201,1.5,1.5,96,0.00,,,0.00,VWS V14.01,2013-03-15 11:12:00,
2013-03-15 07:13:00,31.3,30.3,30.06,SSW,202,1.5,1.5,96,0.00,,,0.00,VWS V14.01,2013-03-15 11:13:00,
2013-03-15 07:14:00,31.3,30.3,30.06,SSW,202,1.5,1.5,96,0.00,,,0.00,VWS V14.01,2013-03-15 11:14:00,
2013-03-15 07:15:00,31.4,30.4,30.06,SSW,202,1.5,1.5,96,0.00,,,0.00,VWS V14.01,2013-03-15 11:15:00,
2013-03-15 07:16:00,31.4,30.4,30.06,SSW,201,1.5,1.5,96,0.00,,,0.00,VWS V14.01,2013-03-15 11:16:00,
2013-03-15 07:17:00,31.4,30.4,30.06,SSW,202,1.5,1.5,96,0.00,,,0.00,VWS V14.01,2013-03-15 11:17:00,
2013-03-15 07:18:00,31.4,30.4,30.06,SSW,202,1.5,1.5,96,0.00,,,0.00,VWS V14.01,2013-03-15 11:18:00,
2013-03-15 07:19:00,31.4,30.4,30.05,SSW,202,1.5,1.5,96,0.00,,,0.00,VWS V14.01,2013-03-15 11:19:00,
2013-03-15 07:20:00,31.4,30.4,30.05,SSW,202,1.5,1.5,96,0.00,,,0.00,VWS V14.01,2013-03-15 11:20:00,
2013-03-15 07:21:00,31.4,30.4,30.05,SSW,202,1.5,1.5,96,0.00,,,0.00,VWS V14.01,2013-03-15 11:21:00,
2013-03-15 07:22:00,31.4,30.4,30.05,SSW,202,1.5,1.5,96,0.00,,,0.00,VWS V14.01,2013-03-15 11:22:00,
2013-03-15 07:23:00,31.4,30.4,30.05,SSW,202,1.5,1.5,96,0.00,,,0.00,VWS V14.01,2013-03-15 11:23:00,
2013-03-15 07:24:00,31.4,30.4,30.06,SSW,202,1.5,1.5,96,0.00,,,0.00,VWS V14.01,2013-03-15 11:24:00,
2013-03-15 07:25:00,31.3,30.3,30.06,SSW,202,1.5,1.5,96,0.00,,,0.00,VWS V14.01,2013-03-15 11:25:00,
2013-03-15 07:26:00,31.3,30.3,30.06,SSW,202,1.5,1.5,96,0.00,,,0.00,VWS V14.01,2013-03-15 11:26:00,
2013-03-15 07:27:00,31.3,30.3,30.06,SSW,202,1.5,1.5,96,0.00,,,0.00,VWS V14.01,2013-03-15 11:27:00,
2013-03-15 07:28:00,31.3,30.3,30.06,SSW,202,1.5,1.5,96,0.00,,,0.00,VWS V14.01,2013-03-15 11:28:00,
2013-03-15 07:29:00,31.3,30.3,30.06,SSW,201,1.5,1.5,96,0.00,,,0.00,VWS V14.01,2013-03-15 11:29:00,
2013-03-15 07:30:00,31.3,30.3,30.06,SSW,202,1.5,1.5,96,0.00,,,0.00,VWS V14.01,2013-03-15 11:30:00,
2013-03-15 07:31:00,31.2,30.2,30.06,SSW,202,1.5,1.5,96,0.00,,,0.00,VWS V14.01,2013-03-15 11:31:00,
2013-03-15 07:32:00,31.1,30.1,30.06,SSW,202,1.5,1.5,96,0.00,,,0.00,VWS V14.01,2013-03-15 11:32:00,
2013-03-15 07:33:00,31.1,30.1,30.06,SSW,202,1.5,1.5,96,0.00,,,0.00,VWS V14.01,2013-03-15 11:33:00,
2013-03-15 07:34:00,31.0,30.0,30.06,SSW,202,1.5,1.5,96,0.00,,,0.00,VWS V14.01,2013-03-15 11:34:00,
2013-03-15 07:35:00,31.0,30.0,30.06,SSW,203,1.5,1.5,96,0.00,,,0.00,VWS V14.01,2013-03-15 11:35:00,
2013-03-15 07:36:00,30.9,29.9,30.06,SSW,202,1.5,1.5,96,0.00,,,0.00,VWS V14.01,2013-03-15 11:36:00,
2013-03-15 07:37:00,30.9,29.9,30.06,SSW,202,1.5,1.5,96,0.00,,,0.00,VWS V14.01,2013-03-15 11:37:00,
2013-03-15 07:38:00,30.9,29.9,30.06,SSW,201,1.5,1.5,96,0.00,,,0.00,VWS V14.01,2013-03-15 11:38:00,
2013-03-15 07:39:00,30.9,29.9,30.06,SSW,202,1.5,1.5,96,0.00,,,0.00,VWS V14.01,2013-03-15 11:39:00,
2013-03-15 07:40:00,31.0,30.2,30.06,SSW,202,1.5,1.5,97,0.00,,,0.00,VWS V14.01,2013-03-15 11:40:00,
2013-03-15 07:41:00,31.0,30.2,30.06,SSW,202,1.5,1.5,97,0.00,,,0.00,VWS V14.01,2013-03-15 11:41:00,
2013-03-15 07:42:00,31.0,30.2,30.06,SSW,202,1.5,1.5,97,0.00,,,0.00,VWS V14.01,2013-03-15 11:42:00,
2013-03-15 07:43:00,31.0,30.2,30.06,SSW,202,1.5,1.5,97,0.00,,,0.00,VWS V14.01,2013-03-15 11:43:00,
2013-03-15 07:44:00,31.1,30.4,30.06,SSW,202,1.5,1.5,97,0.00,,,0.00,VWS V14.01,2013-03-15 11:44:00,
2013-03-15 07:45:00,31.1,30.4,30.06,SSW,201,1.5,1.5,97,0.00,,,0.00,VWS V14.01,2013-03-15 11:45:00,
2013-03-15 07:46:00,31.1,30.4,30.06,SSW,201,1.5,1.5,97,0.00,,,0.00,VWS V14.01,2013-03-15 11:46:00,
2013-03-15 07:47:00,31.1,30.4,30.06,SSW,202,1.5,1.5,97,0.00,,,0.00,VWS V14.01,2013-03-15 11:47:00,
2013-03-15 07:48:00,31.1,30.4,30.06,SSW,201,1.5,1.5,97,0.00,,,0.00,VWS V14.01,2013-03-15 11:48:00,
2013-03-15 07:49:00,31.1,30.4,30.06,SSW,202,1.5,1.5,97,0.00,,,0.00,VWS V14.01,2013-03-15 11:49:00,
2013-03-15 07:50:00,31.1,30.4,30.06,SSW,202,1.5,1.5,97,0.00,,,0.00,VWS V14.01,2013-03-15 11:50:00,
2013-03-15 07:51:00,31.0,30.2,30.06,SSW,202,1.5,1.5,97,0.00,,,0.00,VWS V14.01,2013-03-15 11:51:00,
2013-03-15 07:52:00,31.0,30.2,30.06,SSW,202,1.5,1.5,97,0.00,,,0.00,VWS V14.01,2013-03-15 11:52:00,
2013-03-15 07:53:00,31.1,30.4,30.06,SSW,202,1.5,1.5,97,0.00,,,0.00,VWS V14.01,2013-03-15 11:53:00,
2013-03-15 07:54:00,31.1,30.4,30.06,SSW,202,1.5,1.5,97,0.00,,,0.00,VWS V14.01,2013-03-15 11:54:00,
2013-03-15 07:55:00,31.2,30.5,30.06,SSW,202,1.5,1.5,97,0.00,,,0.00,VWS V14.01,2013-03-15 11:55:00,
2013-03-15 07:56:00,31.2,30.5,30.06,SSW,202,1.5,1.5,97,0.00,,,0.00,VWS V14.01,2013-03-15 11:56:00,
2013-03-15 07:57:00,31.3,30.5,30.07,SSW,202,1.5,1.5,97,0.00,,,0.00,VWS V14.01,2013-03-15 11:57:00,
2013-03-15 07:58:00,31.3,30.5,30.06,SSW,202,1.5,1.5,97,0.00,,,0.00,VWS V14.01,2013-03-15 11:58:00,
2013-03-15 07:59:00,31.4,30.9,30.06,SSW,202,1.5,1.5,98,0.00,,,0.00,VWS V14.01,2013-03-15 11:59:00,
2013-03-15 08:00:00,31.4,30.9,30.06,SSW,202,1.5,1.5,98,0.00,,,0.00,VWS V14.01,2013-03-15 12:00:00,
2013-03-15 08:01:00,31.5,31.0,30.06,SSW,202,1.5,1.5,98,0.00,,,0.00,VWS V14.01,2013-03-15 12:01:00,
2013-03-15 08:02:00,31.5,30.8,30.06,SSW,202,1.5,1.5,97,0.00,,,0.00,VWS V14.01,2013-03-15 12:02:00,
2013-03-15 08:03:00,31.6,30.9,30.06,SSW,202,1.5,1.5,97,0.00,,,0.00,VWS V14.01,2013-03-15 12:03:00,
2013-03-15 08:04:00,31.6,30.9,30.06,SSW,202,1.5,1.5,97,0.00,,,0.00,VWS V14.01,2013-03-15 12:04:00,
2013-03-15 08:05:00,31.6,30.9,30.06,SSW,202,1.5,1.5,97,0.00,,,0.00,VWS V14.01,2013-03-15 12:05:00,
2013-03-15 08:06:00,31.6,30.9,30.06,SSW,202,1.5,1.5,97,0.00,,,0.00,VWS V14.01,2013-03-15 12:06:00,
2013-03-15 08:07:00,31.6,30.9,30.05,SSW,202,1.5,3.0,97,0.00,,,0.00,VWS V14.01,2013-03-15 12:07:00,
2013-03-15 08:08:00,31.7,31.0,30.05,NE,43,1.5,3.0,97,0.00,,,0.00,VWS V14.01,2013-03-15 12:08:00,
2013-03-15 08:09:00,31.7,31.0,30.05,NE,43,1.5,1.5,97,0.00,,,0.00,VWS V14.01,2013-03-15 12:09:00,
2013-03-15 08:10:00,31.8,31.0,30.05,ESE,119,1.5,3.0,97,0.00,,,0.00,VWS V14.01,2013-03-15 12:10:00,
2013-03-15 08:11:00,31.8,31.0,30.05,ESE,120,1.5,3.0,97,0.00,,,0.00,VWS V14.01,2013-03-15 12:11:00,
2013-03-15 08:12:00,31.8,31.0,30.05,ESE,119,1.5,1.5,97,0.00,,,0.00,VWS V14.01,2013-03-15 12:12:00,
2013-03-15 08:13:00,31.8,31.0,30.05,ESE,119,1.5,1.5,97,0.00,,,0.00,VWS V14.01,2013-03-15 12:13:00,
2013-03-15 08:14:00,31.8,31.0,30.05,ESE,119,1.5,1.5,97,0.00,,,0.00,VWS V14.01,2013-03-15 12:14:00,
2013-03-15 08:15:00,31.8,30.8,30.05,ESE,119,1.5,1.5,96,0.00,,,0.00,VWS V14.01,2013-03-15 12:15:00,
2013-03-15 08:16:00,31.9,30.9,30.05,ESE,119,1.5,1.5,96,0.00,,,0.00,VWS V14.01,2013-03-15 12:16:00,
2013-03-15 08:17:00,31.9,30.9,30.06,ESE,120,1.5,1.5,96,0.00,,,0.00,VWS V14.01,2013-03-15 12:17:00,
2013-03-15 08:18:00,31.9,31.1,30.06,ESE,119,1.5,1.5,97,0.00,,,0.00,VWS V14.01,2013-03-15 12:18:00,
2013-03-15 08:19:00,32.0,31.2,30.06,ESE,119,1.5,1.5,97,0.00,,,0.00,VWS V14.01,2013-03-15 12:19:00,
2013-03-15 08:20:00,32.1,31.4,30.05,ESE,119,1.5,1.5,97,0.00,,,0.00,VWS V14.01,2013-03-15 12:20:00,
2013-03-15 08:21:00,32.1,31.4,30.06,ESE,119,1.5,1.5,97,0.00,,,0.00,VWS V14.01,2013-03-15 12:21:00,
2013-03-15 08:22:00,32.2,31.5,30.06,ESE,119,1.5,1.5,97,0.00,,,0.00,VWS V14.01,2013-03-15 12:22:00,
2013-03-15 08:23:00,32.2,31.5,30.06,ESE,119,1.5,1.5,97,0.00,,,0.00,VWS V14.01,2013-03-15 12:23:00,
2013-03-15 08:24:00,32.4,31.6,30.06,ESE,119,1.5,1.5,97,0.00,,,0.00,VWS V14.01,2013-03-15 12:24:00,
2013-03-15 08:25:00,32.4,31.6,30.06,ESE,119,1.5,1.5,97,0.00,,,0.00,VWS V14.01,2013-03-15 12:25:00,
2013-03-15 08:26:00,32.5,31.8,30.06,ESE,119,1.5,1.5,97,0.00,,,0.00,VWS V14.01,2013-03-15 12:26:00,
2013-03-15 08:27:00,32.5,31.8,30.06,ESE,119,1.5,1.5,97,0.00,,,0.00,VWS V14.01,2013-03-15 12:27:00,
2013-03-15 08:28:00,32.6,32.1,30.05,ESE,119,1.5,1.5,98,0.00,,,0.00,VWS V14.01,2013-03-15 12:28:00,
2013-03-15 08:29:00,32.7,31.9,30.05,ESE,119,1.5,1.5,97,0.00,,,0.00,VWS V14.01,2013-03-15 12:29:00,
2013-03-15 08:30:00,32.7,31.9,30.05,ESE,119,1.5,1.5,97,0.00,,,0.00,VWS V14.01,2013-03-15 12:30:00,
2013-03-15 08:31:00,32.8,32.0,30.05,ESE,119,1.5,1.5,97,0.00,,,0.00,VWS V14.01,2013-03-15 12:31:00,
2013-03-15 08:32:00,32.9,32.1,30.05,ESE,119,1.5,1.5,97,0.00,,,0.00,VWS V14.01,2013-03-15 12:32:00,
2013-03-15 08:33:00,33.0,32.2,30.05,ESE,119,1.5,1.5,97,0.00,,,0.00,VWS V14.01,2013-03-15 12:33:00,
2013-03-15 08:34:00,33.1,32.3,30.05,ESE,119,1.5,1.5,97,0.00,,,0.00,VWS V14.01,2013-03-15 12:34:00,
2013-03-15 08:35:00,33.2,32.4,30.05,ESE,119,1.5,1.5,97,0.00,,,0.00,VWS V14.01,2013-03-15 12:35:00,
2013-03-15 08:36:00,33.3,32.5,30.05,ESE,119,1.5,1.5,97,0.00,,,0.00,VWS V14.01,2013-03-15 12:36:00,
2013-03-15 08:37:00,33.3,32.5,30.05,ESE,119,1.5,1.5,97,0.00,,,0.00,VWS V14.01,2013-03-15 12:37:00,
2013-03-15 08:38:00,33.4,32.6,30.05,ESE,119,1.5,1.5,97,0.00,,,0.00,VWS V14.01,2013-03-15 12:38:00,
2013-03-15 08:39:00,33.5,32.7,30.05,ESE,119,1.5,1.5,97,0.00,,,0.00,VWS V14.01,2013-03-15 12:39:00,
2013-03-15 08:40:00,33.6,32.8,30.05,ESE,119,1.5,1.5,97,0.00,,,0.00,VWS V14.01,2013-03-15 12:40:00,
2013-03-15 08:41:00,33.7,32.7,30.05,ESE,119,1.5,1.5,96,0.00,,,0.00,VWS V14.01,2013-03-15 12:41:00,
2013-03-15 08:42:00,33.7,32.7,30.05,ESE,119,1.5,1.5,96,0.00,,,0.00,VWS V14.01,2013-03-15 12:42:00,
2013-03-15 08:43:00,33.8,32.8,30.05,ESE,119,1.5,1.5,96,0.00,,,0.00,VWS V14.01,2013-03-15 12:43:00,
2013-03-15 08:44:00,33.9,32.9,30.05,ESE,119,1.5,3.0,96,0.00,,,0.00,VWS V14.01,2013-03-15 12:44:00,
2013-03-15 08:45:00,34.0,33.0,30.05,SE,140,1.5,3.0,96,0.00,,,0.00,VWS V14.01,2013-03-15 12:45:00,
2013-03-15 08:46:00,34.0,33.0,30.05,SE,144,1.5,3.0,96,0.00,,,0.00,VWS V14.01,2013-03-15 12:46:00,
2013-03-15 08:47:00,34.1,33.1,30.05,SE,144,1.5,1.5,96,0.00,,,0.00,VWS V14.01,2013-03-15 12:47:00,
2013-03-15 08:48:00,34.2,33.2,30.05,ENE,68,1.5,3.0,96,0.00,,,0.00,VWS V14.01,2013-03-15 12:48:00,
2013-03-15 08:49:00,34.2,32.9,30.05,ENE,68,1.5,1.5,95,0.00,,,0.00,VWS V14.01,2013-03-15 12:49:00,
2013-03-15 08:50:00,34.2,32.9,30.05,ENE,68,1.5,1.5,95,0.00,,,0.00,VWS V14.01,2013-03-15 12:50:00,
2013-03-15 08:51:00,34.3,33.0,30.05,ENE,69,1.5,1.5,95,0.00,,,0.00,VWS V14.01,2013-03-15 12:51:00,
2013-03-15 08:52:00,34.3,33.0,30.05,ESE,115,1.5,1.5,95,0.00,,,0.00,VWS V14.01,2013-03-15 12:52:00,
2013-03-15 08:53:00,34.4,33.1,30.05,ESE,120,1.5,3.0,95,0.00,,,0.00,VWS V14.01,2013-03-15 12:53:00,
2013-03-15 08:54:00,34.5,33.0,30.05,ESE,119,1.5,1.5,94,0.00,,,0.00,VWS V14.01,2013-03-15 12:54:00,
2013-03-15 08:55:00,34.6,33.0,30.05,ESE,119,1.5,1.5,94,0.00,,,0.00,VWS V14.01,2013-03-15 12:55:00,
2013-03-15 08:56:00,34.7,33.2,30.05,SE,124,3.0,3.0,94,0.00,,,0.00,VWS V14.01,2013-03-15 12:56:00,
2013-03-15 08:57:00,34.8,33.2,30.05,SW,229,1.5,6.0,94,0.00,,,0.00,VWS V14.01,2013-03-15 12:57:00,
2013-03-15 08:58:00,34.8,33.2,30.05,SW,231,1.5,1.5,94,0.00,,,0.00,VWS V14.01,2013-03-15 12:58:00,
2013-03-15 08:59:00,34.9,33.3,30.05,West,261,1.5,3.0,94,0.00,,,0.00,VWS V14.01,2013-03-15 12:59:00,
2013-03-15 09:00:00,35.0,33.2,30.05,WNW,302,1.5,4.5,93,0.00,,,0.00,VWS V14.01,2013-03-15 13:00:00,
2013-03-15 09:01:00,35.1,33.3,30.05,WNW,302,1.5,1.5,93,0.00,,,0.00,VWS V14.01,2013-03-15 13:01:00,
2013-03-15 09:02:00,35.1,33.3,30.05,SE,144,4.5,4.5,93,0.00,,,0.00,VWS V14.01,2013-03-15 13:02:00,
2013-03-15 09:03:00,35.2,33.4,30.04,SSE,153,3.0,6.0,93,0.00,,,0.00,VWS V14.01,2013-03-15 13:03:00,
2013-03-15 09:04:00,35.3,33.5,30.05,SE,136,4.5,6.0,93,0.00,,,0.00,VWS V14.01,2013-03-15 13:04:00,
2013-03-15 09:05:00,35.5,33.7,30.05,WNW,282,3.0,7.5,93,0.00,,,0.00,VWS V14.01,2013-03-15 13:05:00,
2013-03-15 09:06:00,35.6,33.5,30.05,WNW,298,1.5,4.5,92,0.00,,,0.00,VWS V14.01,2013-03-15 13:06:00,
2013-03-15 09:07:00,35.7,33.6,30.05,WNW,293,1.5,1.5,92,0.00,,,0.00,VWS V14.01,2013-03-15 13:07:00,
2013-03-15 09:08:00,35.7,33.6,30.05,SE,139,3.0,3.0,92,0.00,,,0.00,VWS V14.01,2013-03-15 13:08:00,
2013-03-15 09:09:00,35.8,33.7,30.05,SE,133,1.5,4.5,92,0.00,,,0.00,VWS V14.01,2013-03-15 13:09:00,
2013-03-15 09:10:00,35.9,33.8,30.05,West,267,3.0,3.0,92,0.00,,,0.00,VWS V14.01,2013-03-15 13:10:00,
2013-03-15 09:11:00,36.0,33.6,30.05,WSW,253,1.5,3.0,91,0.00,,,0.00,VWS V14.01,2013-03-15 13:11:00,
2013-03-15 09:12:00,36.1,33.7,30.05,South,189,3.0,3.0,91,0.00,,,0.00,VWS V14.01,2013-03-15 13:12:00,
2013-03-15 09:13:00,36.1,33.7,30.04,SE,136,1.5,3.0,91,0.00,,,0.00,VWS V14.01,2013-03-15 13:13:00,
2013-03-15 09:14:00,36.2,33.8,30.05,West,276,3.0,3.0,91,0.00,,,0.00,VWS V14.01,2013-03-15 13:14:00,
2013-03-15 09:15:00,36.3,33.9,30.05,WNW,302,1.5,4.5,91,0.00,,,0.00,VWS V14.01,2013-03-15 13:15:00,
2013-03-15 09:16:00,36.4,34.0,30.05,SW,231,3.0,3.0,91,0.00,,,0.00,VWS V14.01,2013-03-15 13:16:00,
2013-03-15 09:17:00,36.5,33.8,30.05,SSW,201,4.5,4.5,90,0.00,,,0.00,VWS V14.01,2013-03-15 13:17:00,
2013-03-15 09:18:00,36.5,33.8,30.04,SSE,157,1.5,4.5,90,0.00,,,0.00,VWS V14.01,2013-03-15 13:18:00,
2013-03-15 09:19:00,36.6,34.2,30.04,SSW,198,1.5,4.5,91,0.00,,,0.00,VWS V14.01,2013-03-15 13:19:00,
2013-03-15 09:20:00,36.7,34.3,30.04,West,276,1.5,3.0,91,0.00,,,0.00,VWS V14.01,2013-03-15 13:20:00,
2013-03-15 09:21:00,36.8,34.4,30.04,WNW,291,1.5,4.5,91,0.00,,,0.00,VWS V14.01,2013-03-15 13:21:00,
2013-03-15 09:22:00,36.9,34.2,30.04,NW,307,1.5,1.5,90,0.00,,,0.00,VWS V14.01,2013-03-15 13:22:00,
2013-03-15 09:23:00,37.0,34.3,30.04,NW,307,1.5,1.5,90,0.00,,,0.00,VWS V14.01,2013-03-15 13:23:00,
2013-03-15 09:24:00,37.1,34.4,30.04,SSE,155,3.0,3.0,90,0.00,,,0.00,VWS V14.01,2013-03-15 13:24:00,
2013-03-15 09:25:00,37.2,34.5,30.04,ESE,111,1.5,4.5,90,0.00,,,0.00,VWS V14.01,2013-03-15 13:25:00,
2013-03-15 09:26:00,37.3,34.6,30.04,SW,218,4.5,6.0,90,0.00,,,0.00,VWS V14.01,2013-03-15 13:26:00,
2013-03-15 09:27:00,37.4,34.5,30.04,West,264,4.5,6.0,89,0.00,,,0.00,VWS V14.01,2013-03-15 13:27:00,
2013-03-15 09:28:00,37.6,34.7,30.04,SW,220,3.0,4.5,89,0.00,,,0.00,VWS V14.01,2013-03-15 13:28:00,
2013-03-15 09:29:00,37.6,34.7,30.04,SSW,194,1.5,4.5,89,0.00,,,0.00,VWS V14.01,2013-03-15 13:29:00,
2013-03-15 09:30:00,37.7,34.8,30.04,SW,224,3.0,4.5,89,0.00,,,0.00,VWS V14.01,2013-03-15 13:30:00,
2013-03-15 09:31:00,37.8,34.8,30.04,SW,226,4.5,4.5,89,0.00,,,0.00,VWS V14.01,2013-03-15 13:31:00,
2013-03-15 09:32:00,37.9,35.0,30.04,SW,236,4.5,6.0,89,0.00,,,0.00,VWS V14.01,2013-03-15 13:32:00,
2013-03-15 09:33:00,38.0,34.8,30.04,SW,234,1.5,6.0,88,0.00,,,0.00,VWS V14.01,2013-03-15 13:33:00,
2013-03-15 09:34:00,38.0,34.8,30.04,WSW,247,3.0,6.0,88,0.00,,,0.00,VWS V14.01,2013-03-15 13:34:00,
2013-03-15 09:35:00,38.1,34.9,30.04,SW,215,6.0,6.0,88,0.00,,,0.00,VWS V14.01,2013-03-15 13:35:00,
2013-03-15 09:36:00,38.2,35.0,30.04,WSW,250,4.5,7.5,88,0.00,,,0.00,VWS V14.01,2013-03-15 13:36:00,
2013-03-15 09:37:00,38.3,35.1,30.04,West,260,4.5,9.0,88,0.00,,,0.00,VWS V14.01,2013-03-15 13:37:00,
2013-03-15 09:38:00,38.4,34.9,30.04,SW,226,3.0,4.5,87,0.00,,,0.00,VWS V14.01,2013-03-15 13:38:00,
2013-03-15 09:39:00,38.4,34.9,30.04,SW,217,3.0,4.5,87,0.00,,,0.00,VWS V14.01,2013-03-15 13:39:00,
2013-03-15 09:40:00,38.5,35.0,30.04,SSE,154,3.0,4.5,87,0.00,,,0.00,VWS V14.01,2013-03-15 13:40:00,
2013-03-15 09:41:00,38.6,35.1,30.04,SW,222,1.5,4.5,87,0.00,,,0.00,VWS V14.01,2013-03-15 13:41:00,
2013-03-15 09:42:00,38.7,35.2,30.04,SSW,212,4.5,6.0,87,0.00,,,0.00,VWS V14.01,2013-03-15 13:42:00,
2013-03-15 09:43:00,38.9,35.1,30.04,SSW,206,4.5,6.0,86,0.00,,,0.00,VWS V14.01,2013-03-15 13:43:00,
2013-03-15 09:44:00,38.9,35.1,30.04,SSW,205,6.0,6.0,86,0.00,,,0.00,VWS V14.01,2013-03-15 13:44:00,
2013-03-15 09:45:00,39.0,35.2,30.04,SSW,213,3.0,6.0,86,0.00,,,0.00,VWS V14.01,2013-03-15 13:45:00,
2013-03-15 09:46:00,39.1,35.3,30.04,SSW,204,7.5,7.5,86,0.00,,,0.00,VWS V14.01,2013-03-15 13:46:00,
2013-03-15 09:47:00,39.2,35.4,30.04,SW,229,3.0,7.5,86,0.00,,,0.00,VWS V14.01,2013-03-15 13:47:00,
2013-03-15 09:48:00,39.3,35.5,30.04,WSW,246,9.0,9.0,86,0.00,,,0.00,VWS V14.01,2013-03-15 13:48:00,
2013-03-15 09:49:00,39.3,35.2,30.04,WSW,247,6.0,9.0,85,0.00,,,0.00,VWS V14.01,2013-03-15 13:49:00,
2013-03-15 09:50:00,39.4,35.3,30.04,SW,233,6.0,10.5,85,0.00,,,0.00,VWS V14.01,2013-03-15 13:50:00,
2013-03-15 09:51:00,39.4,35.0,30.04,WSW,243,6.0,6.0,84,0.00,,,0.00,VWS V14.01,2013-03-15 13:51:00,
2013-03-15 09:52:00,39.5,35.1,30.03,WSW,246,6.0,10.5,84,0.00,,,0.00,VWS V14.01,2013-03-15 13:52:00,
2013-03-15 09:53:00,39.5,35.4,30.03,WSW,244,4.5,6.0,85,0.00,,,0.00,VWS V14.01,2013-03-15 13:53:00,
2013-03-15 09:54:00,39.6,35.5,30.03,WSW,248,1.5,4.5,85,0.00,,,0.00,VWS V14.01,2013-03-15 13:54:00,
2013-03-15 09:55:00,39.7,35.6,30.03,WSW,239,7.5,9.0,85,0.00,,,0.00,VWS V14.01,2013-03-15 13:55:00,
2013-03-15 09:56:00,39.8,35.4,30.03,SSW,196,6.0,7.5,84,0.00,,,0.00,VWS V14.01,2013-03-15 13:56:00,
2013-03-15 09:57:00,39.8,35.4,30.03,WSW,243,6.0,13.5,84,0.00,,,0.00,VWS V14.01,2013-03-15 13:57:00,
2013-03-15 09:58:00,39.9,35.5,30.03,SW,227,3.0,6.0,84,0.00,,,0.00,VWS V14.01,2013-03-15 13:58:00,
2013-03-15 09:59:00,40.0,35.6,30.03,WSW,247,4.5,9.0,84,0.00,,,0.00,VWS V14.01,2013-03-15 13:59:00,
2013-03-15 10:00:00,40.1,35.7,30.03,WSW,241,10.5,12.0,84,0.00,,,0.00,VWS V14.01,2013-03-15 14:00:00,
2013-03-15 10:01:00,40.1,35.4,30.03,WSW,255,10.5,13.5,83,0.00,,,0.00,VWS V14.01,2013-03-15 14:01:00,
2013-03-15 10:02:00,40.1,35.4,30.03,WSW,237,9.0,13.5,83,0.00,,,0.00,VWS V14.01,2013-03-15 14:02:00,
2013-03-15 10:03:00,40.1,35.4,30.03,SW,223,6.0,10.5,83,0.00,,,0.00,VWS V14.01,2013-03-15 14:03:00,
2013-03-15 10:04:00,40.1,35.4,30.03,WSW,244,9.0,13.5,83,0.00,,,0.00,VWS V14.01,2013-03-15 14:04:00,
2013-03-15 10:05:00,40.2,35.5,30.03,West,265,7.5,10.5,83,0.00,,,0.00,VWS V14.01,2013-03-15 14:05:00,
2013-03-15 10:06:00,40.2,35.5,30.03,SW,218,6.0,13.5,83,0.00,,,0.00,VWS V14.01,2013-03-15 14:06:00,
2013-03-15 10:07:00,40.3,35.6,30.03,SW,224,9.0,12.0,83,0.00,,,0.00,VWS V14.01,2013-03-15 14:07:00,
2013-03-15 10:08:00,40.3,35.6,30.03,WSW,238,9.0,9.0,83,0.00,,,0.00,VWS V14.01,2013-03-15 14:08:00,
2013-03-15 10:09:00,40.3,35.6,30.03,SW,234,10.5,10.5,83,0.00,,,0.00,VWS V14.01,2013-03-15 14:09:00,
2013-03-15 10:10:00,40.4,35.3,30.03,WSW,248,12.0,16.5,82,0.00,,,0.00,VWS V14.01,2013-03-15 14:10:00,
2013-03-15 10:11:00,40.4,35.3,30.03,SW,236,6.0,12.0,82,0.00,,,0.00,VWS V14.01,2013-03-15 14:11:00,
2013-03-15 10:12:00,40.4,35.7,30.02,SSW,208,9.0,10.5,83,0.00,,,0.00,VWS V14.01,2013-03-15 14:12:00,
2013-03-15 10:13:00,40.5,35.8,30.02,WSW,244,16.5,16.5,83,0.00,,,0.00,VWS V14.01,2013-03-15 14:13:00,
2013-03-15 10:14:00,40.5,35.5,30.02,SW,230,10.5,16.5,82,0.00,,,0.00,VWS V14.01,2013-03-15 14:14:00,
2013-03-15 10:15:00,40.5,35.5,30.02,SSW,209,10.5,13.5,82,0.00,,,0.00,VWS V14.01,2013-03-15 14:15:00,
2013-03-15 10:16:00,40.5,35.5,30.02,WSW,249,10.5,15.0,82,0.00,,,0.00,VWS V14.01,2013-03-15 14:16:00,
2013-03-15 10:17:00,40.5,35.5,30.02,SSW,209,9.0,12.0,82,0.00,,,0.00,VWS V14.01,2013-03-15 14:17:00,
2013-03-15 10:18:00,40.6,35.5,30.02,WSW,243,15.0,15.0,82,0.00,,,0.00,VWS V14.01,2013-03-15 14:18:00,
2013-03-15 10:19:00,40.7,35.6,30.02,WSW,251,10.5,15.0,82,0.00,,,0.00,VWS V14.01,2013-03-15 14:19:00,
2013-03-15 10:20:00,40.7,35.6,30.02,SSW,195,15.0,16.5,82,0.00,,,0.00,VWS V14.01,2013-03-15 14:20:00,
2013-03-15 10:21:00,40.8,35.7,30.02,WSW,240,7.5,15.0,82,0.00,,,0.00,VWS V14.01,2013-03-15 14:21:00,
2013-03-15 10:22:00,40.9,35.8,30.02,SSW,212,4.5,12.0,82,0.00,,,0.00,VWS V14.01,2013-03-15 14:22:00,
2013-03-15 10:23:00,41.0,35.9,30.02,West,281,12.0,12.0,82,0.00,,,0.00,VWS V14.01,2013-03-15 14:23:00,
2013-03-15 10:24:00,41.1,36.0,30.02,WSW,255,7.5,12.0,82,0.00,,,0.00,VWS V14.01,2013-03-15 14:24:00,
2013-03-15 10:25:00,41.2,35.8,30.02,SW,229,7.5,15.0,81,0.00,,,0.00,VWS V14.01,2013-03-15 14:25:00,
2013-03-15 10:26:00,41.2,35.8,30.02,WSW,251,10.5,12.0,81,0.00,,,0.00,VWS V14.01,2013-03-15 14:26:00,
2013-03-15 10:27:00,41.3,35.9,30.02,WSW,250,7.5,12.0,81,0.00,,,0.00,VWS V14.01,2013-03-15 14:27:00,
2013-03-15 10:28:00,41.3,35.9,30.02,SW,227,10.5,15.0,81,0.00,,,0.00,VWS V14.01,2013-03-15 14:28:00,
2013-03-15 10:29:00,41.4,36.3,30.02,WSW,239,7.5,10.5,82,0.00,,,0.00,VWS V14.01,2013-03-15 14:29:00,
2013-03-15 10:30:00,41.5,36.1,30.02,WSW,246,9.0,13.5,81,0.00,,,0.00,VWS V14.01,2013-03-15 14:30:00,
2013-03-15 10:31:00,41.6,36.2,30.01,SW,229,16.5,16.5,81,0.00,,,0.00,VWS V14.01,2013-03-15 14:31:00,
2013-03-15 10:32:00,41.6,36.2,30.01,SW,220,12.0,16.5,81,0.00,,,0.00,VWS V14.01,2013-03-15 14:32:00,
2013-03-15 10:33:00,41.6,35.9,30.01,SW,229,15.0,16.5,80,0.00,,,0.00,VWS V14.01,2013-03-15 14:33:00,
2013-03-15 10:34:00,41.6,36.2,30.01,SW,222,10.5,15.0,81,0.00,,,0.00,VWS V14.01,2013-03-15 14:34:00,
2013-03-15 10:35:00,41.7,36.3,30.01,WSW,237,12.0,16.5,81,0.00,,,0.00,VWS V14.01,2013-03-15 14:35:00,
2013-03-15 10:36:00,41.7,36.3,30.01,WSW,246,7.5,13.5,81,0.00,,,0.00,VWS V14.01,2013-03-15 14:36:00,
2013-03-15 10:37:00,41.8,36.4,30.01,SW,226,12.0,13.5,81,0.00,,,0.00,VWS V14.01,2013-03-15 14:37:00,
2013-03-15 10:38:00,41.9,36.5,30.01,WSW,245,7.5,16.5,81,0.00,,,0.00,VWS V14.01,2013-03-15 14:38:00,
2013-03-15 10:39:00,42.0,36.6,30.01,WSW,253,12.0,13.5,81,0.00,,,0.00,VWS V14.01,2013-03-15 14:39:00,
2013-03-15 10:40:00,42.1,36.4,30.01,SW,231,7.5,15.0,80,0.00,,,0.00,VWS V14.01,2013-03-15 14:40:00,
2013-03-15 10:41:00,42.2,36.5,30.00,SW,223,12.0,13.5,80,0.00,,,0.00,VWS V14.01,2013-03-15 14:41:00,
2013-03-15 10:42:00,42.3,36.6,30.00,West,267,7.5,15.0,80,0.00,,,0.00,VWS V14.01,2013-03-15 14:42:00,
2013-03-15 10:43:00,42.5,36.8,30.00,West,263,6.0,13.5,80,0.00,,,0.00,VWS V14.01,2013-03-15 14:43:00,
2013-03-15 10:44:00,42.5,36.8,30.00,WSW,239,9.0,13.5,80,0.00,,,0.00,VWS V14.01,2013-03-15 14:44:00,
2013-03-15 10:45:00,42.6,36.9,30.00,WSW,247,9.0,18.0,80,0.00,,,0.00,VWS V14.01,2013-03-15 14:45:00,
2013-03-15 10:46:00,42.7,37.0,30.00,SW,231,15.0,15.0,80,0.00,,,0.00,VWS V14.01,2013-03-15 14:46:00,
2013-03-15 10:47:00,42.8,37.1,30.00,SW,231,9.0,15.0,80,0.00,,,0.00,VWS V14.01,2013-03-15 14:47:00,
2013-03-15 10:48:00,43.0,37.3,30.00,West,272,3.0,9.0,80,0.00,,,0.00,VWS V14.01,2013-03-15 14:48:00,
2013-03-15 10:49:00,43.1,37.7,30.00,WSW,243,6.0,9.0,81,0.00,,,0.00,VWS V14.01,2013-03-15 14:49:00,
2013-03-15 10:50:00,43.2,37.1,30.00,WSW,250,13.5,13.5,79,0.00,,,0.00,VWS V14.01,2013-03-15 14:50:00,
2013-03-15 10:51:00,43.4,37.3,30.00,SW,229,7.5,15.0,79,0.00,,,0.00,VWS V14.01,2013-03-15 14:51:00,
2013-03-15 10:52:00,43.5,37.4,30.00,South,179,12.0,15.0,79,0.00,,,0.00,VWS V14.01,2013-03-15 14:52:00,
2013-03-15 10:53:00,43.6,37.5,30.00,SW,234,4.5,9.0,79,0.00,,,0.00,VWS V14.01,2013-03-15 14:53:00,
2013-03-15 10:54:00,43.7,37.6,30.00,WSW,243,7.5,9.0,79,0.00,,,0.00,VWS V14.01,2013-03-15 14:54:00,
2013-03-15 10:55:00,43.7,37.3,30.00,SSW,205,6.0,10.5,78,0.00,,,0.00,VWS V14.01,2013-03-15 14:55:00,
2013-03-15 10:56:00,43.9,37.8,30.00,SW,219,10.5,10.5,79,0.00,,,0.00,VWS V14.01,2013-03-15 14:56:00,
2013-03-15 10:57:00,44.0,37.6,30.00,SW,227,4.5,10.5,78,0.00,,,0.00,VWS V14.01,2013-03-15 14:57:00,
2013-03-15 10:58:00,44.2,37.8,29.99,SW,229,7.5,9.0,78,0.00,,,0.00,VWS V14.01,2013-03-15 14:58:00,
2013-03-15 10:59:00,44.2,37.8,29.99,SW,229,7.5,9.0,78,0.00,,,0.00,VWS V14.01,2013-03-15 14:59:00,
2013-03-15 11:00:00,44.3,37.9,30.00,WSW,255,9.0,12.0,78,0.00,,,0.00,VWS V14.01,2013-03-15 15:00:00,
2013-03-15 11:01:00,44.4,37.7,29.99,SSW,206,6.0,9.0,77,0.00,,,0.00,VWS V14.01,2013-03-15 15:01:00,
2013-03-15 11:02:00,44.5,38.1,29.99,SE,126,4.5,10.5,78,0.00,,,0.00,VWS V14.01,2013-03-15 15:02:00,
2013-03-15 11:03:00,44.7,37.9,29.99,WSW,250,9.0,9.0,77,0.00,,,0.00,VWS V14.01,2013-03-15 15:03:00,
2013-03-15 11:04:00,44.7,37.9,29.99,West,260,9.0,9.0,77,0.00,,,0.00,VWS V14.01,2013-03-15 15:04:00,
2013-03-15 11:05:00,44.8,38.0,29.99,SW,227,9.0,9.0,77,0.00,,,0.00,VWS V14.01,2013-03-15 15:05:00,
2013-03-15 11:06:00,44.9,38.1,29.99,West,268,9.0,12.0,77,0.00,,,0.00,VWS V14.01,2013-03-15 15:06:00,
2013-03-15 11:07:00,44.9,37.8,29.99,West,281,7.5,9.0,76,0.00,,,0.00,VWS V14.01,2013-03-15 15:07:00,
2013-03-15 11:08:00,45.0,37.9,29.99,SSW,203,4.5,10.5,76,0.00,,,0.00,VWS V14.01,2013-03-15 15:08:00,
2013-03-15 11:09:00,45.0,37.9,29.99,SW,226,4.5,10.5,76,0.00,,,0.00,VWS V14.01,2013-03-15 15:09:00,
2013-03-15 11:10:00,45.1,38.0,29.99,SSW,206,9.0,12.0,76,0.00,,,0.00,VWS V14.01,2013-03-15 15:10:00,
2013-03-15 11:11:00,45.1,38.0,29.99,WSW,243,7.5,9.0,76,0.00,,,0.00,VWS V14.01,2013-03-15 15:11:00,
2013-03-15 11:12:00,45.2,38.1,29.99,SW,231,3.0,7.5,76,0.00,,,0.00,VWS V14.01,2013-03-15 15:12:00,
2013-03-15 11:13:00,45.5,38.4,29.99,WSW,248,10.5,10.5,76,0.00,,,0.00,VWS V14.01,2013-03-15 15:13:00,
2013-03-15 11:14:00,45.6,38.5,29.99,WSW,255,6.0,10.5,76,0.00,,,0.00,VWS V14.01,2013-03-15 15:14:00,
2013-03-15 11:15:00,45.7,38.6,29.99,SW,227,1.5,7.5,76,0.00,,,0.00,VWS V14.01,2013-03-15 15:15:00,
2013-03-15 11:16:00,45.9,38.4,29.99,WSW,240,6.0,7.5,75,0.00,,,0.00,VWS V14.01,2013-03-15 15:16:00,
2013-03-15 11:17:00,46.0,38.5,29.99,West,272,10.5,10.5,75,0.00,,,0.00,VWS V14.01,2013-03-15 15:17:00,
2013-03-15 11:18:00,46.1,39.0,29.99,SW,215,4.5,6.0,76,0.00,,,0.00,VWS V14.01,2013-03-15 15:18:00,
2013-03-15 11:19:00,46.2,39.1,29.99,SW,226,6.0,6.0,76,0.00,,,0.00,VWS V14.01,2013-03-15 15:19:00,
2013-03-15 11:20:00,46.3,38.8,29.99,West,265,6.0,12.0,75,0.00,,,0.00,VWS V14.01,2013-03-15 15:20:00,
2013-03-15 11:21:00,46.3,38.5,29.99,WSW,250,10.5,12.0,74,0.00,,,0.00,VWS V14.01,2013-03-15 15:21:00,
2013-03-15 11:22:00,46.3,38.5,29.99,SW,236,6.0,12.0,74,0.00,,,0.00,VWS V14.01,2013-03-15 15:22:00,
2013-03-15 11:23:00,46.4,38.6,29.99,SW,223,7.5,10.5,74,0.00,,,0.00,VWS V14.01,2013-03-15 15:23:00,
2013-03-15 11:24:00,46.4,38.6,29.99,WSW,247,9.0,10.5,74,0.00,,,0.00,VWS V14.01,2013-03-15 15:24:00,
2013-03-15 11:25:00,46.3,38.1,29.99,SW,236,9.0,15.0,73,0.00,,,0.00,VWS V14.01,2013-03-15 15:25:00,
2013-03-15 11:26:00,46.3,38.1,29.99,WSW,247,7.5,9.0,73,0.00,,,0.00,VWS V14.01,2013-03-15 15:26:00,
2013-03-15 11:27:00,46.3,38.1,29.99,West,267,7.5,10.5,73,0.00,,,0.00,VWS V14.01,2013-03-15 15:27:00,
2013-03-15 11:28:00,46.5,38.7,29.99,WSW,238,12.0,13.5,74,0.00,,,0.00,VWS V14.01,2013-03-15 15:28:00,
2013-03-15 11:29:00,46.5,38.7,29.99,WSW,255,10.5,13.5,74,0.00,,,0.00,VWS V14.01,2013-03-15 15:29:00,
2013-03-15 11:30:00,46.5,38.3,29.99,SW,236,12.0,12.0,73,0.00,,,0.00,VWS V14.01,2013-03-15 15:30:00,
2013-03-15 11:31:00,46.5,38.3,29.99,WSW,258,9.0,12.0,73,0.00,,,0.00,VWS V14.01,2013-03-15 15:31:00,
2013-03-15 11:32:00,46.6,38.4,29.99,SW,234,7.5,13.5,73,0.00,,,0.00,VWS V14.01,2013-03-15 15:32:00,
2013-03-15 11:33:00,46.7,38.5,29.99,SW,223,10.5,10.5,73,0.00,,,0.00,VWS V14.01,2013-03-15 15:33:00,
2013-03-15 11:34:00,46.7,38.5,29.99,SW,231,7.5,10.5,73,0.00,,,0.00,VWS V14.01,2013-03-15 15:34:00,
2013-03-15 11:35:00,46.8,38.6,29.99,SW,233,10.5,10.5,73,0.00,,,0.00,VWS V14.01,2013-03-15 15:35:00,
2013-03-15 11:36:00,46.9,38.4,29.99,WSW,248,6.0,10.5,72,0.00,,,0.00,VWS V14.01,2013-03-15 15:36:00,
2013-03-15 11:37:00,47.0,38.8,29.99,WSW,246,9.0,12.0,73,0.00,,,0.00,VWS V14.01,2013-03-15 15:37:00,
2013-03-15 11:38:00,47.1,38.5,29.99,West,270,12.0,13.5,72,0.00,,,0.00,VWS V14.01,2013-03-15 15:38:00,
2013-03-15 11:39:00,47.1,38.5,29.99,WSW,238,9.0,13.5,72,0.00,,,0.00,VWS V14.01,2013-03-15 15:39:00,
2013-03-15 11:40:00,47.1,38.5,29.99,West,265,6.0,10.5,72,0.00,,,0.00,VWS V14.01,2013-03-15 15:40:00,
2013-03-15 11:41:00,47.2,38.7,29.99,WSW,250,10.5,15.0,72,0.00,,,0.00,VWS V14.01,2013-03-15 15:41:00,
2013-03-15 11:42:00,47.3,38.7,29.99,WSW,246,10.5,10.5,72,0.00,,,0.00,VWS V14.01,2013-03-15 15:42:00,
2013-03-15 11:43:00,47.3,38.7,29.99,WSW,243,12.0,13.5,72,0.00,,,0.00,VWS V14.01,2013-03-15 15:43:00,
2013-03-15 11:44:00,47.4,38.8,29.99,West,274,9.0,12.0,72,0.00,,,0.00,VWS V14.01,2013-03-15 15:44:00,
2013-03-15 11:45:00,47.4,38.5,29.99,West,274,9.0,10.5,71,0.00,,,0.00,VWS V14.01,2013-03-15 15:45:00,
2013-03-15 11:46:00,47.5,38.6,29.99,WNW,299,3.0,9.0,71,0.00,,,0.00,VWS V14.01,2013-03-15 15:46:00,
2013-03-15 11:47:00,47.6,39.0,29.99,WSW,247,9.0,9.0,72,0.00,,,0.00,VWS V14.01,2013-03-15 15:47:00,
2013-03-15 11:48:00,47.7,39.1,29.99,SW,217,4.5,13.5,72,0.00,,,0.00,VWS V14.01,2013-03-15 15:48:00,
2013-03-15 11:49:00,47.8,39.2,29.99,West,267,6.0,9.0,72,0.00,,,0.00,VWS V14.01,2013-03-15 15:49:00,
2013-03-15 11:50:00,48.0,39.4,29.99,WSW,246,10.5,10.5,72,0.00,,,0.00,VWS V14.01,2013-03-15 15:50:00,
2013-03-15 11:51:00,48.1,39.2,29.99,West,262,3.0,10.5,71,0.00,,,0.00,VWS V14.01,2013-03-15 15:51:00,
2013-03-15 11:52:00,48.2,39.2,29.99,WSW,241,1.5,3.0,71,0.00,,,0.00,VWS V14.01,2013-03-15 15:52:00,
2013-03-15 11:53:00,48.6,39.6,29.99,West,263,7.5,7.5,71,0.00,,,0.00,VWS V14.01,2013-03-15 15:53:00,
2013-03-15 11:54:00,48.6,39.6,29.99,West,262,9.0,9.0,71,0.00,,,0.00,VWS V14.01,2013-03-15 15:54:00,
2013-03-15 11:55:00,48.7,39.7,29.99,SW,215,7.5,12.0,71,0.00,,,0.00,VWS V14.01,2013-03-15 15:55:00,
2013-03-15 11:56:00,48.9,39.6,29.99,WSW,255,4.5,10.5,70,0.00,,,0.00,VWS V14.01,2013-03-15 15:56:00,
2013-03-15 11:57:00,49.0,39.7,29.99,SW,223,16.5,16.5,70,0.00,,,0.00,VWS V14.01,2013-03-15 15:57:00,
2013-03-15 11:58:00,49.1,39.8,29.99,WSW,251,6.0,10.5,70,0.00,,,0.00,VWS V14.01,2013-03-15 15:58:00,
2013-03-15 11:59:00,49.1,39.8,29.99,WSW,251,6.0,10.5,70,0.00,,,0.00,VWS V14.01,2013-03-15 15:59:00,
2013-03-15 12:00:00,49.2,39.8,29.99,WSW,248,9.0,12.0,70,0.00,,,0.00,VWS V14.01,2013-03-15 16:00:00,
2013-03-15 12:01:00,49.3,39.6,29.99,West,271,13.5,13.5,69,0.00,,,0.00,VWS V14.01,2013-03-15 16:01:00,
2013-03-15 12:02:00,49.4,39.3,29.99,WSW,251,13.5,15.0,68,0.00,,,0.00,VWS V14.01,2013-03-15 16:02:00,
2013-03-15 12:03:00,49.2,38.7,29.99,West,276,9.0,10.5,67,0.00,,,0.00,VWS V14.01,2013-03-15 16:03:00,
2013-03-15 12:04:00,49.2,38.7,29.99,West,260,9.0,10.5,67,0.00,,,0.00,VWS V14.01,2013-03-15 16:04:00,
2013-03-15 12:05:00,49.2,39.1,29.99,West,270,6.0,9.0,68,0.00,,,0.00,VWS V14.01,2013-03-15 16:05:00,
2013-03-15 12:06:00,49.2,39.5,29.99,SW,220,6.0,7.5,69,0.00,,,0.00,VWS V14.01,2013-03-15 16:06:00,
2013-03-15 12:07:00,49.4,39.7,29.99,West,268,9.0,10.5,69,0.00,,,0.00,VWS V14.01,2013-03-15 16:07:00,
2013-03-15 12:08:00,49.6,39.9,29.99,West,265,9.0,13.5,69,0.00,,,0.00,VWS V14.01,2013-03-15 16:08:00,
2013-03-15 12:09:00,49.7,40.0,29.99,West,281,7.5,13.5,69,0.00,,,0.00,VWS V14.01,2013-03-15 16:09:00,
2013-03-15 12:10:00,49.8,39.7,29.99,SW,227,15.0,15.0,68,0.00,,,0.00,VWS V14.01,2013-03-15 16:10:00,
2013-03-15 12:11:00,49.8,39.7,29.99,WSW,243,10.5,15.0,68,0.00,,,0.00,VWS V14.01,2013-03-15 16:11:00,
2013-03-15 12:12:00,49.7,39.2,29.99,SSW,213,7.5,10.5,67,0.00,,,0.00,VWS V14.01,2013-03-15 16:12:00,
2013-03-15 12:13:00,49.7,39.6,29.98,WSW,243,10.5,13.5,68,0.00,,,0.00,VWS V14.01,2013-03-15 16:13:00,
2013-03-15 12:14:00,49.7,39.6,29.98,WSW,249,9.0,13.5,68,0.00,,,0.00,VWS V14.01,2013-03-15 16:14:00,
2013-03-15 12:15:00,49.7,39.6,29.98,West,271,6.0,10.5,68,0.00,,,0.00,VWS V14.01,2013-03-15 16:15:00,
2013-03-15 12:16:00,49.7,39.6,29.98,WSW,257,9.0,9.0,68,0.00,,,0.00,VWS V14.01,2013-03-15 16:16:00,
2013-03-15 12:17:00,49.8,39.7,29.98,WNW,293,4.5,12.0,68,0.00,,,0.00,VWS V14.01,2013-03-15 16:17:00,
2013-03-15 12:18:00,49.9,39.8,29.98,WNW,290,6.0,10.5,68,0.00,,,0.00,VWS V14.01,2013-03-15 16:18:00,
2013-03-15 12:19:00,49.9,39.4,29.98,West,275,7.5,10.5,67,0.00,,,0.00,VWS V14.01,2013-03-15 16:19:00,
2013-03-15 12:20:00,49.9,39.8,29.98,WNW,285,6.0,7.5,68,0.00,,,0.00,VWS V14.01,2013-03-15 16:20:00,
2013-03-15 12:21:00,49.9,39.4,29.98,WSW,254,9.0,10.5,67,0.00,,,0.00,VWS V14.01,2013-03-15 16:21:00,
2013-03-15 12:22:00,50.0,39.9,29.98,SSW,208,6.0,12.0,68,0.00,,,0.00,VWS V14.01,2013-03-15 16:22:00,
2013-03-15 12:23:00,50.1,40.3,29.98,WSW,246,7.5,9.0,69,0.00,,,0.00,VWS V14.01,2013-03-15 16:23:00,
2013-03-15 12:24:00,50.1,40.3,29.98,SW,217,4.5,9.0,69,0.00,,,0.00,VWS V14.01,2013-03-15 16:24:00,
2013-03-15 12:25:00,50.3,40.5,29.98,SW,215,3.0,7.5,69,0.00,,,0.00,VWS V14.01,2013-03-15 16:25:00,
2013-03-15 12:26:00,50.4,40.2,29.98,SW,231,6.0,6.0,68,0.00,,,0.00,VWS V14.01,2013-03-15 16:26:00,
2013-03-15 12:27:00,50.5,40.3,29.98,SW,217,7.5,9.0,68,0.00,,,0.00,VWS V14.01,2013-03-15 16:27:00,
2013-03-15 12:28:00,50.6,40.1,29.98,West,278,10.5,12.0,67,0.00,,,0.00,VWS V14.01,2013-03-15 16:28:00,
2013-03-15 12:29:00,50.6,40.1,29.98,SW,223,9.0,12.0,67,0.00,,,0.00,VWS V14.01,2013-03-15 16:29:00,
2013-03-15 12:30:00,50.6,39.7,29.98,WSW,258,13.5,13.5,66,0.00,,,0.00,VWS V14.01,2013-03-15 16:30:00,
2013-03-15 12:31:00,50.5,39.6,29.98,WSW,258,13.5,13.5,66,0.00,,,0.00,VWS V14.01,2013-03-15 16:31:00,
2013-03-15 12:32:00,50.5,39.6,29.98,West,268,7.5,13.5,66,0.00,,,0.00,VWS V14.01,2013-03-15 16:32:00,
2013-03-15 12:33:00,50.5,40.0,29.98,West,271,9.0,10.5,67,0.00,,,0.00,VWS V14.01,2013-03-15 16:33:00,
2013-03-15 12:34:00,50.5,40.0,29.98,WSW,254,7.5,10.5,67,0.00,,,0.00,VWS V14.01,2013-03-15 16:34:00,
2013-03-15 12:35:00,50.5,40.0,29.98,West,261,13.5,15.0,67,0.00,,,0.00,VWS V14.01,2013-03-15 16:35:00,
2013-03-15 12:36:00,50.5,39.6,29.98,SW,228,4.5,16.5,66,0.00,,,0.00,VWS V14.01,2013-03-15 16:36:00,
2013-03-15 12:37:00,50.5,40.0,29.98,WSW,248,9.0,13.5,67,0.00,,,0.00,VWS V14.01,2013-03-15 16:37:00,
2013-03-15 12:38:00,50.5,40.0,29.98,WSW,250,12.0,12.0,67,0.00,,,0.00,VWS V14.01,2013-03-15 16:38:00,
2013-03-15 12:39:00,50.4,39.9,29.98,West,267,10.5,13.5,67,0.00,,,0.00,VWS V14.01,2013-03-15 16:39:00,
2013-03-15 12:40:00,50.5,40.0,29.98,WNW,285,7.5,12.0,67,0.00,,,0.00,VWS V14.01,2013-03-15 16:40:00,
2013-03-15 12:41:00,50.5,39.6,29.98,WSW,237,7.5,12.0,66,0.00,,,0.00,VWS V14.01,2013-03-15 16:41:00,
2013-03-15 12:42:00,50.5,39.6,29.98,West,272,7.5,12.0,66,0.00,,,0.00,VWS V14.01,2013-03-15 16:42:00,
2013-03-15 12:43:00,50.6,40.1,29.97,West,260,12.0,12.0,67,0.00,,,0.00,VWS V14.01,2013-03-15 16:43:00,
2013-03-15 12:44:00,50.6,40.1,29.97,WSW,251,13.5,13.5,67,0.00,,,0.00,VWS V14.01,2013-03-15 16:44:00,
2013-03-15 12:45:00,50.6,39.7,29.97,West,281,7.5,13.5,66,0.00,,,0.00,VWS V14.01,2013-03-15 16:45:00,
2013-03-15 12:46:00,50.6,39.7,29.98,West,272,12.0,12.0,66,0.00,,,0.00,VWS V14.01,2013-03-15 16:46:00,
2013-03-15 12:47:00,50.7,40.2,29.98,SW,231,10.5,13.5,67,0.00,,,0.00,VWS V14.01,2013-03-15 16:47:00,
2013-03-15 12:48:00,50.7,40.2,29.98,West,260,10.5,13.5,67,0.00,,,0.00,VWS V14.01,2013-03-15 16:48:00,
2013-03-15 12:49:00,50.7,40.2,29.98,SW,227,9.0,13.5,67,0.00,,,0.00,VWS V14.01,2013-03-15 16:49:00,
2013-03-15 12:50:00,50.7,40.2,29.98,WSW,239,9.0,12.0,67,0.00,,,0.00,VWS V14.01,2013-03-15 16:50:00,
2013-03-15 12:51:00,50.7,40.2,29.98,SW,236,9.0,10.5,67,0.00,,,0.00,VWS V14.01,2013-03-15 16:51:00,
2013-03-15 12:52:00,50.6,40.1,29.98,WSW,246,6.0,9.0,67,0.00,,,0.00,VWS V14.01,2013-03-15 16:52:00,
2013-03-15 12:53:00,50.7,40.2,29.97,SW,220,6.0,9.0,67,0.00,,,0.00,VWS V14.01,2013-03-15 16:53:00,
2013-03-15 12:54:00,50.8,40.2,29.97,SW,234,4.5,9.0,67,0.00,,,0.00,VWS V14.01,2013-03-15 16:54:00,
2013-03-15 12:55:00,50.9,40.3,29.97,SW,234,13.5,13.5,67,0.00,,,0.00,VWS V14.01,2013-03-15 16:55:00,
2013-03-15 12:56:00,51.0,40.4,29.97,SW,229,7.5,13.5,67,0.00,,,0.00,VWS V14.01,2013-03-15 16:56:00,
2013-03-15 12:57:00,51.1,40.5,29.97,SW,231,7.5,10.5,67,0.00,,,0.00,VWS V14.01,2013-03-15 16:57:00,
2013-03-15 12:58:00,51.3,40.7,29.97,WSW,246,7.5,9.0,67,0.00,,,0.00,VWS V14.01,2013-03-15 16:58:00,
2013-03-15 12:59:00,51.3,40.7,29.97,West,261,7.5,9.0,67,0.00,,,0.00,VWS V14.01,2013-03-15 16:59:00,
2013-03-15 13:00:00,51.4,40.8,29.97,West,267,6.0,10.5,67,0.00,,,0.00,VWS V14.01,2013-03-15 17:00:00,
2013-03-15 13:01:00,51.4,40.0,29.97,WSW,240,9.0,12.0,65,0.00,,,0.00,VWS V14.01,2013-03-15 17:01:00,
2013-03-15 13:02:00,51.4,40.4,29.97,WSW,244,9.0,13.5,66,0.00,,,0.00,VWS V14.01,2013-03-15 17:02:00,
2013-03-15 13:03:00,51.4,40.4,29.97,WSW,257,7.5,15.0,66,0.00,,,0.00,VWS V14.01,2013-03-15 17:03:00,
2013-03-15 13:04:00,51.4,40.4,29.97,West,269,4.5,15.0,66,0.00,,,0.00,VWS V14.01,2013-03-15 17:04:00,
2013-03-15 13:05:00,51.4,40.4,29.97,WSW,251,13.5,15.0,66,0.00,,,0.00,VWS V14.01,2013-03-15 17:05:00,
2013-03-15 13:06:00,51.4,40.4,29.97,WSW,257,13.5,15.0,66,0.00,,,0.00,VWS V14.01,2013-03-15 17:06:00,
2013-03-15 13:07:00,51.4,40.0,29.97,West,271,10.5,13.5,65,0.00,,,0.00,VWS V14.01,2013-03-15 17:07:00,
2013-03-15 13:08:00,51.5,40.1,29.97,WSW,246,6.0,9.0,65,0.00,,,0.00,VWS V14.01,2013-03-15 17:08:00,
2013-03-15 13:09:00,51.5,40.5,29.97,SW,229,9.0,9.0,66,0.00,,,0.00,VWS V14.01,2013-03-15 17:09:00,
2013-03-15 13:10:00,51.6,40.2,29.97,West,275,10.5,10.5,65,0.00,,,0.00,VWS V14.01,2013-03-15 17:10:00,
2013-03-15 13:11:00,51.6,40.6,29.97,WSW,250,12.0,12.0,66,0.00,,,0.00,VWS V14.01,2013-03-15 17:11:00,
2013-03-15 13:12:00,51.7,40.7,29.97,West,260,7.5,12.0,66,0.00,,,0.00,VWS V14.01,2013-03-15 17:12:00,
2013-03-15 13:13:00,51.7,40.3,29.97,West,267,4.5,10.5,65,0.00,,,0.00,VWS V14.01,2013-03-15 17:13:00,
2013-03-15 13:14:00,51.8,40.4,29.97,WSW,239,9.0,10.5,65,0.00,,,0.00,VWS V14.01,2013-03-15 17:14:00,
2013-03-15 13:15:00,51.8,40.8,29.97,WSW,251,7.5,12.0,66,0.00,,,0.00,VWS V14.01,2013-03-15 17:15:00,
2013-03-15 13:16:00,51.8,40.8,29.97,WSW,246,13.5,13.5,66,0.00,,,0.00,VWS V14.01,2013-03-15 17:16:00,
2013-03-15 13:17:00,52.0,41.0,29.97,WSW,250,9.0,13.5,66,0.00,,,0.00,VWS V14.01,2013-03-15 17:17:00,
2013-03-15 13:18:00,52.1,40.7,29.97,SW,223,9.0,10.5,65,0.00,,,0.00,VWS V14.01,2013-03-15 17:18:00,
2013-03-15 13:19:00,52.1,40.7,29.97,SW,224,7.5,10.5,65,0.00,,,0.00,VWS V14.01,2013-03-15 17:19:00,
2013-03-15 13:20:00,52.2,40.8,29.97,SSW,208,10.5,10.5,65,0.00,,,0.00,VWS V14.01,2013-03-15 17:20:00,
2013-03-15 13:21:00,52.3,41.3,29.96,SW,219,1.5,10.5,66,0.00,,,0.00,VWS V14.01,2013-03-15 17:21:00,
2013-03-15 13:22:00,52.5,41.5,29.96,West,265,3.0,4.5,66,0.00,,,0.00,VWS V14.01,2013-03-15 17:22:00,
2013-03-15 13:23:00,52.6,40.8,29.96,WSW,255,6.0,7.5,64,0.00,,,0.00,VWS V14.01,2013-03-15 17:23:00,
2013-03-15 13:24:00,52.7,40.9,29.96,WSW,247,6.0,7.5,64,0.00,,,0.00,VWS V14.01,2013-03-15 17:24:00,
2013-03-15 13:25:00,52.8,41.4,29.96,WNW,291,7.5,7.5,65,0.00,,,0.00,VWS V14.01,2013-03-15 17:25:00,
2013-03-15 13:26:00,52.9,41.5,29.96,West,262,9.0,10.5,65,0.00,,,0.00,VWS V14.01,2013-03-15 17:26:00,
2013-03-15 13:27:00,52.9,41.1,29.97,West,264,6.0,13.5,64,0.00,,,0.00,VWS V14.01,2013-03-15 17:27:00,
2013-03-15 13:28:00,52.9,41.1,29.97,SW,226,10.5,12.0,64,0.00,,,0.00,VWS V14.01,2013-03-15 17:28:00,
2013-03-15 13:29:00,52.9,41.1,29.97,WSW,250,10.5,12.0,64,0.00,,,0.00,VWS V14.01,2013-03-15 17:29:00,
2013-03-15 13:30:00,52.9,41.1,29.97,WSW,240,9.0,10.5,64,0.00,,,0.00,VWS V14.01,2013-03-15 17:30:00,
2013-03-15 13:31:00,52.9,41.5,29.97,West,276,9.0,12.0,65,0.00,,,0.00,VWS V14.01,2013-03-15 17:31:00,
2013-03-15 13:32:00,53.0,41.6,29.97,WSW,253,6.0,12.0,65,0.00,,,0.00,VWS V14.01,2013-03-15 17:32:00,
2013-03-15 13:33:00,53.0,41.6,29.97,WSW,249,6.0,13.5,65,0.00,,,0.00,VWS V14.01,2013-03-15 17:33:00,
2013-03-15 13:34:00,53.0,40.8,29.97,SSW,201,9.0,13.5,63,0.00,,,0.00,VWS V14.01,2013-03-15 17:34:00,
2013-03-15 13:35:00,53.0,41.2,29.96,WNW,295,9.0,9.0,64,0.00,,,0.00,VWS V14.01,2013-03-15 17:35:00,
2013-03-15 13:37:00,53.0,41.2,29.96,West,260,1.5,10.5,64,0.00,,,0.00,VWS V14.01,2013-03-15 17:37:00,
2013-03-15 13:38:00,53.2,41.3,29.96,West,265,9.0,10.5,64,0.00,,,0.00,VWS V14.01,2013-03-15 17:38:00,
2013-03-15 13:39:00,53.2,41.3,29.96,SW,234,7.5,10.5,64,0.00,,,0.00,VWS V14.01,2013-03-15 17:39:00,
2013-03-15 13:40:00,53.2,41.3,29.97,WSW,256,9.0,12.0,64,0.00,,,0.00,VWS V14.01,2013-03-15 17:40:00,
2013-03-15 13:41:00,53.2,41.3,29.97,SW,229,7.5,9.0,64,0.00,,,0.00,VWS V14.01,2013-03-15 17:41:00,
2013-03-15 13:42:00,53.2,41.3,29.97,WNW,288,6.0,9.0,64,0.00,,,0.00,VWS V14.01,2013-03-15 17:42:00,
2013-03-15 13:43:00,53.3,41.8,29.96,WSW,249,7.5,7.5,65,0.00,,,0.00,VWS V14.01,2013-03-15 17:43:00,
2013-03-15 13:44:00,53.4,41.9,29.96,NW,326,6.0,9.0,65,0.00,,,0.00,VWS V14.01,2013-03-15 17:44:00,
2013-03-15 13:45:00,53.4,41.9,29.96,WSW,246,10.5,10.5,65,0.00,,,0.00,VWS V14.01,2013-03-15 17:45:00,
2013-03-15 13:46:00,53.5,41.6,29.96,West,279,6.0,10.5,64,0.00,,,0.00,VWS V14.01,2013-03-15 17:46:00,
2013-03-15 13:47:00,53.6,41.7,29.96,WNW,300,9.0,12.0,64,0.00,,,0.00,VWS V14.01,2013-03-15 17:47:00,
2013-03-15 13:48:00,53.6,41.3,29.96,NW,319,4.5,6.0,63,0.00,,,0.00,VWS V14.01,2013-03-15 17:48:00,
2013-03-15 13:49:00,53.6,41.3,29.96,West,261,9.0,9.0,63,0.00,,,0.00,VWS V14.01,2013-03-15 17:49:00,
2013-03-15 13:50:00,53.7,41.4,29.96,NW,310,4.5,9.0,63,0.00,,,0.00,VWS V14.01,2013-03-15 17:50:00,
2013-03-15 13:51:00,53.8,41.5,29.96,SW,234,6.0,9.0,63,0.00,,,0.00,VWS V14.01,2013-03-15 17:51:00,
2013-03-15 13:52:00,53.9,42.0,29.96,WSW,239,4.5,7.5,64,0.00,,,0.00,VWS V14.01,2013-03-15 17:52:00,
2013-03-15 13:53:00,54.1,42.2,29.96,NW,307,7.5,10.5,64,0.00,,,0.00,VWS V14.01,2013-03-15 17:53:00,
2013-03-15 13:54:00,54.1,41.8,29.96,SW,234,7.5,10.5,63,0.00,,,0.00,VWS V14.01,2013-03-15 17:54:00,
2013-03-15 13:55:00,54.2,41.9,29.96,WSW,243,4.5,10.5,63,0.00,,,0.00,VWS V14.01,2013-03-15 17:55:00,
2013-03-15 13:56:00,54.3,41.6,29.96,WNW,291,7.5,12.0,62,0.00,,,0.00,VWS V14.01,2013-03-15 17:56:00,
2013-03-15 13:57:00,54.3,42.0,29.95,WSW,248,6.0,7.5,63,0.00,,,0.00,VWS V14.01,2013-03-15 17:57:00,
2013-03-15 13:58:00,54.4,42.5,29.96,WSW,250,7.5,12.0,64,0.00,,,0.00,VWS V14.01,2013-03-15 17:58:00,
2013-03-15 13:59:00,54.4,42.5,29.96,WSW,258,7.5,12.0,64,0.00,,,0.00,VWS V14.01,2013-03-15 17:59:00,
2013-03-15 14:00:00,54.4,42.1,29.96,SW,236,7.5,9.0,63,0.00,,,0.00,VWS V14.01,2013-03-15 18:00:00,
2013-03-15 14:01:00,54.5,42.2,29.96,NW,304,6.0,9.0,63,0.00,,,0.00,VWS V14.01,2013-03-15 18:01:00,
2013-03-15 14:02:00,54.5,42.2,29.96,WSW,249,15.0,15.0,63,0.00,,,0.00,VWS V14.01,2013-03-15 18:02:00,
2013-03-15 14:03:00,54.4,41.7,29.96,WSW,240,9.0,12.0,62,0.00,,,0.00,VWS V14.01,2013-03-15 18:03:00,
2013-03-15 14:04:00,54.3,41.6,29.96,WSW,243,10.5,12.0,62,0.00,,,0.00,VWS V14.01,2013-03-15 18:04:00,
2013-03-15 14:05:00,54.4,42.1,29.95,West,265,6.0,10.5,63,0.00,,,0.00,VWS V14.01,2013-03-15 18:05:00,
2013-03-15 14:06:00,54.5,42.2,29.95,WSW,248,9.0,12.0,63,0.00,,,0.00,VWS V14.01,2013-03-15 18:06:00,
2013-03-15 14:07:00,54.6,42.3,29.95,WSW,248,12.0,15.0,63,0.00,,,0.00,VWS V14.01,2013-03-15 18:07:00,
2013-03-15 14:08:00,54.8,42.5,29.95,WSW,251,9.0,10.5,63,0.00,,,0.00,VWS V14.01,2013-03-15 18:08:00,
2013-03-15 14:10:00,54.8,42.5,29.95,SW,215,7.5,12.0,63,0.00,,,0.00,VWS V14.01,2013-03-15 18:10:00,
2013-03-15 14:11:00,54.9,42.1,29.95,SW,227,6.0,13.5,62,0.00,,,0.00,VWS V14.01,2013-03-15 18:11:00,
2013-03-15 14:12:00,54.9,42.6,29.95,WSW,253,9.0,10.5,63,0.00,,,0.00,VWS V14.01,2013-03-15 18:12:00,
2013-03-15 14:13:00,54.9,42.1,29.95,WSW,258,10.5,12.0,62,0.00,,,0.00,VWS V14.01,2013-03-15 18:13:00,
2013-03-15 14:14:00,54.9,42.6,29.95,West,278,9.0,13.5,63,0.00,,,0.00,VWS V14.01,2013-03-15 18:14:00,
2013-03-15 14:15:00,54.9,42.1,29.95,WSW,247,12.0,15.0,62,0.00,,,0.00,VWS V14.01,2013-03-15 18:15:00,
2013-03-15 14:16:00,54.9,42.6,29.95,WSW,254,9.0,12.0,63,0.00,,,0.00,VWS V14.01,2013-03-15 18:16:00,
2013-03-15 14:17:00,55.0,43.1,29.95,SW,216,9.0,9.0,64,0.00,,,0.00,VWS V14.01,2013-03-15 18:17:00,
2013-03-15 14:18:00,55.1,42.8,29.95,West,267,7.5,9.0,63,0.00,,,0.00,VWS V14.01,2013-03-15 18:18:00,
2013-03-15 14:19:00,55.1,43.2,29.95,WSW,257,10.5,10.5,64,0.00,,,0.00,VWS V14.01,2013-03-15 18:19:00,
2013-03-15 14:20:00,55.1,42.8,29.95,WSW,253,10.5,16.5,63,0.00,,,0.00,VWS V14.01,2013-03-15 18:20:00,
2013-03-15 14:21:00,55.1,42.8,29.95,West,265,9.0,12.0,63,0.00,,,0.00,VWS V14.01,2013-03-15 18:21:00,
2013-03-15 14:23:00,55.3,42.9,29.95,West,260,12.0,12.0,63,0.00,,,0.00,VWS V14.01,2013-03-15 18:23:00,
2013-03-15 14:24:00,55.3,42.9,29.95,West,261,10.5,16.5,63,0.00,,,0.00,VWS V14.01,2013-03-15 18:24:00,
2013-03-15 14:25:00,55.3,42.1,29.95,West,278,10.5,15.0,61,0.00,,,0.00,VWS V14.01,2013-03-15 18:25:00,
2013-03-15 14:27:00,55.2,42.4,29.95,West,272,9.0,15.0,62,0.00,,,0.00,VWS V14.01,2013-03-15 18:27:00,
2013-03-15 14:28:00,55.2,42.4,29.94,WSW,258,12.0,13.5,62,0.00,,,0.00,VWS V14.01,2013-03-15 18:28:00,
2013-03-15 14:30:00,55.4,42.6,29.94,WNW,288,13.5,15.0,62,0.00,,,0.00,VWS V14.01,2013-03-15 18:30:00,
2013-03-15 14:32:00,55.5,42.7,29.95,WSW,240,9.0,15.0,62,0.00,,,0.00,VWS V14.01,2013-03-15 18:32:00,
2013-03-15 14:33:00,55.6,43.2,29.95,SW,233,9.0,13.5,63,0.00,,,0.00,VWS V14.01,2013-03-15 18:33:00,
2013-03-15 14:34:00,55.6,43.2,29.94,WSW,241,13.5,13.5,63,0.00,,,0.00,VWS V14.01,2013-03-15 18:34:00,
2013-03-15 14:35:00,55.6,42.8,29.94,WSW,248,12.0,13.5,62,0.00,,,0.00,VWS V14.01,2013-03-15 18:35:00,
2013-03-15 14:36:00,55.6,42.8,29.94,SW,229,12.0,12.0,62,0.00,,,0.00,VWS V14.01,2013-03-15 18:36:00,
2013-03-15 14:37:00,55.6,42.4,29.94,WSW,241,10.5,13.5,61,0.00,,,0.00,VWS V14.01,2013-03-15 18:37:00,
2013-03-15 14:38:00,55.5,42.7,29.94,SW,229,4.5,7.5,62,0.00,,,0.00,VWS V14.01,2013-03-15 18:38:00,
2013-03-15 14:39:00,55.5,42.7,29.94,West,264,4.5,7.5,62,0.00,,,0.00,VWS V14.01,2013-03-15 18:39:00,
2013-03-15 14:40:00,55.6,42.8,29.94,WSW,237,7.5,9.0,62,0.00,,,0.00,VWS V14.01,2013-03-15 18:40:00,
2013-03-15 14:41:00,55.7,42.9,29.94,West,276,4.5,7.5,62,0.00,,,0.00,VWS V14.01,2013-03-15 18:41:00,
2013-03-15 14:42:00,55.8,43.0,29.94,WNW,285,7.5,9.0,62,0.00,,,0.00,VWS V14.01,2013-03-15 18:42:00,
2013-03-15 14:43:00,56.1,43.3,29.94,West,274,4.5,9.0,62,0.00,,,0.00,VWS V14.01,2013-03-15 18:43:00,
2013-03-15 14:44:00,56.1,42.8,29.94,SW,235,7.5,9.0,61,0.00,,,0.00,VWS V14.01,2013-03-15 18:44:00,
2013-03-15 14:45:00,56.1,42.8,29.94,West,265,4.5,7.5,61,0.00,,,0.00,VWS V14.01,2013-03-15 18:45:00,
2013-03-15 14:46:00,56.1,42.8,29.94,WSW,255,6.0,9.0,61,0.00,,,0.00,VWS V14.01,2013-03-15 18:46:00,
2013-03-15 14:47:00,56.1,43.3,29.94,WSW,257,7.5,10.5,62,0.00,,,0.00,VWS V14.01,2013-03-15 18:47:00,
2013-03-15 14:48:00,56.1,43.3,29.94,West,264,7.5,9.0,62,0.00,,,0.00,VWS V14.01,2013-03-15 18:48:00,
2013-03-15 14:49:00,56.1,43.3,29.94,NNW,343,6.0,9.0,62,0.00,,,0.00,VWS V14.01,2013-03-15 18:49:00,
2013-03-15 14:50:00,56.3,43.5,29.94,NW,319,4.5,12.0,62,0.00,,,0.00,VWS V14.01,2013-03-15 18:50:00,
2013-03-15 14:51:00,56.4,43.1,29.94,WNW,285,7.5,7.5,61,0.00,,,0.00,VWS V14.01,2013-03-15 18:51:00,
2013-03-15 14:52:00,56.5,43.2,29.94,WNW,290,12.0,13.5,61,0.00,,,0.00,VWS V14.01,2013-03-15 18:52:00,
2013-03-15 14:53:00,56.5,43.2,29.94,WSW,251,4.5,7.5,61,0.00,,,0.00,VWS V14.01,2013-03-15 18:53:00,
2013-03-15 14:54:00,56.6,43.3,29.94,SW,226,4.5,7.5,61,0.00,,,0.00,VWS V14.01,2013-03-15 18:54:00,
2013-03-15 14:55:00,56.6,43.8,29.94,SW,234,10.5,15.0,62,0.00,,,0.00,VWS V14.01,2013-03-15 18:55:00,
2013-03-15 14:56:00,56.6,43.3,29.94,West,260,9.0,15.0,61,0.00,,,0.00,VWS V14.01,2013-03-15 18:56:00,
2013-03-15 14:57:00,56.6,43.8,29.94,SW,229,10.5,13.5,62,0.00,,,0.00,VWS V14.01,2013-03-15 18:57:00,
2013-03-15 14:58:00,56.5,43.2,29.94,West,274,7.5,12.0,61,0.00,,,0.00,VWS V14.01,2013-03-15 18:58:00,
2013-03-15 14:59:00,56.5,43.2,29.94,WSW,257,6.0,12.0,61,0.00,,,0.00,VWS V14.01,2013-03-15 18:59:00,
2013-03-15 15:00:00,56.5,43.7,29.93,WSW,248,12.0,12.0,62,0.00,,,0.00,VWS V14.01,2013-03-15 19:00:00,
2013-03-15 15:01:00,56.5,43.7,29.93,SW,229,7.5,12.0,62,0.00,,,0.00,VWS V14.01,2013-03-15 19:01:00,
2013-03-15 15:02:00,56.5,44.1,29.93,WSW,242,13.5,13.5,63,0.00,,,0.00,VWS V14.01,2013-03-15 19:02:00,
2013-03-15 15:03:00,56.5,43.7,29.93,SW,229,9.0,15.0,62,0.00,,,0.00,VWS V14.01,2013-03-15 19:03:00,
2013-03-15 15:04:00,56.5,43.7,29.93,West,267,10.5,15.0,62,0.00,,,0.00,VWS V14.01,2013-03-15 19:04:00,
2013-03-15 15:05:00,56.5,43.7,29.93,WSW,237,7.5,12.0,62,0.00,,,0.00,VWS V14.01,2013-03-15 19:05:00,
2013-03-15 15:06:00,56.5,43.7,29.93,SW,229,9.0,10.5,62,0.00,,,0.00,VWS V14.01,2013-03-15 19:06:00,
2013-03-15 15:07:00,56.5,43.7,29.93,WNW,285,7.5,13.5,62,0.00,,,0.00,VWS V14.01,2013-03-15 19:07:00,
2013-03-15 15:08:00,56.5,43.7,29.93,West,281,10.5,12.0,62,0.00,,,0.00,VWS V14.01,2013-03-15 19:08:00,
2013-03-15 15:09:00,56.6,43.8,29.93,NW,310,9.0,12.0,62,0.00,,,0.00,VWS V14.01,2013-03-15 19:09:00,
2013-03-15 15:10:00,56.6,43.3,29.93,WSW,237,10.5,10.5,61,0.00,,,0.00,VWS V14.01,2013-03-15 19:10:00,
2013-03-15 15:11:00,56.7,43.8,29.93,West,278,4.5,10.5,62,0.00,,,0.00,VWS V14.01,2013-03-15 19:11:00,
2013-03-15 15:12:00,56.8,43.9,29.93,WNW,285,7.5,7.5,62,0.00,,,0.00,VWS V14.01,2013-03-15 19:12:00,
2013-03-15 15:13:00,56.9,44.0,29.92,WSW,247,9.0,9.0,62,0.00,,,0.00,VWS V14.01,2013-03-15 19:13:00,
2013-03-15 15:14:00,56.9,44.0,29.92,WSW,242,9.0,10.5,62,0.00,,,0.00,VWS V14.01,2013-03-15 19:14:00,
2013-03-15 15:15:00,56.9,44.0,29.92,WSW,248,6.0,9.0,62,0.00,,,0.00,VWS V14.01,2013-03-15 19:15:00,
2013-03-15 15:16:00,57.0,43.7,29.92,WSW,239,10.5,10.5,61,0.00,,,0.00,VWS V14.01,2013-03-15 19:16:00,
2013-03-15 15:17:00,57.0,43.7,29.92,WSW,248,9.0,12.0,61,0.00,,,0.00,VWS V14.01,2013-03-15 19:17:00,
2013-03-15 15:18:00,57.0,43.7,29.92,WNW,284,6.0,9.0,61,0.00,,,0.00,VWS V14.01,2013-03-15 19:18:00,
2013-03-15 15:19:00,57.1,43.8,29.92,WSW,240,10.5,12.0,61,0.00,,,0.00,VWS V14.01,2013-03-15 19:19:00,
2013-03-15 15:20:00,57.1,43.8,29.92,WNW,296,9.0,12.0,61,0.00,,,0.00,VWS V14.01,2013-03-15 19:20:00,
2013-03-15 15:21:00,57.1,43.8,29.92,West,280,10.5,12.0,61,0.00,,,0.00,VWS V14.01,2013-03-15 19:21:00,
2013-03-15 15:22:00,57.1,44.2,29.92,WNW,295,7.5,13.5,62,0.00,,,0.00,VWS V14.01,2013-03-15 19:22:00,
2013-03-15 15:23:00,57.2,43.9,29.92,WNW,291,9.0,10.5,61,0.00,,,0.00,VWS V14.01,2013-03-15 19:23:00,
2013-03-15 15:24:00,57.2,43.9,29.91,West,281,10.5,10.5,61,0.00,,,0.00,VWS V14.01,2013-03-15 19:24:00,
2013-03-15 15:25:00,57.2,43.9,29.91,WSW,242,7.5,10.5,61,0.00,,,0.00,VWS V14.01,2013-03-15 19:25:00,
2013-03-15 15:26:00,57.3,44.0,29.91,WSW,243,9.0,13.5,61,0.00,,,0.00,VWS V14.01,2013-03-15 19:26:00,
2013-03-15 15:27:00,57.3,44.0,29.91,SW,229,10.5,13.5,61,0.00,,,0.00,VWS V14.01,2013-03-15 19:27:00,
2013-03-15 15:28:00,57.4,44.5,29.91,SW,226,10.5,12.0,62,0.00,,,0.00,VWS V14.01,2013-03-15 19:28:00,
2013-03-15 15:29:00,57.4,44.5,29.91,West,267,12.0,12.0,62,0.00,,,0.00,VWS V14.01,2013-03-15 19:29:00,
2013-03-15 15:30:00,57.5,44.2,29.91,WSW,237,7.5,13.5,61,0.00,,,0.00,VWS V14.01,2013-03-15 19:30:00,
2013-03-15 15:31:00,57.5,44.2,29.91,West,265,7.5,9.0,61,0.00,,,0.00,VWS V14.01,2013-03-15 19:31:00,
2013-03-15 15:32:00,57.5,44.2,29.91,West,274,9.0,9.0,61,0.00,,,0.00,VWS V14.01,2013-03-15 19:32:00,
2013-03-15 15:33:00,57.5,43.7,29.91,WSW,254,7.5,12.0,60,0.00,,,0.00,VWS V14.01,2013-03-15 19:33:00,
2013-03-15 15:34:00,57.5,43.7,29.91,WNW,282,6.0,12.0,60,0.00,,,0.00,VWS V14.01,2013-03-15 19:34:00,
2013-03-15 15:35:00,57.5,44.2,29.91,WSW,239,12.0,12.0,61,0.00,,,0.00,VWS V14.01,2013-03-15 19:35:00,
2013-03-15 15:36:00,57.6,44.7,29.91,West,264,7.5,12.0,62,0.00,,,0.00,VWS V14.01,2013-03-15 19:36:00,
2013-03-15 15:37:00,57.7,44.8,29.91,West,265,7.5,12.0,62,0.00,,,0.00,VWS V14.01,2013-03-15 19:37:00,
2013-03-15 15:38:00,57.7,44.4,29.91,WSW,251,12.0,16.5,61,0.00,,,0.00,VWS V14.01,2013-03-15 19:38:00,
2013-03-15 15:39:00,57.7,44.4,29.91,WSW,249,13.5,16.5,61,0.00,,,0.00,VWS V14.01,2013-03-15 19:39:00,
2013-03-15 15:40:00,57.7,44.4,29.91,WSW,254,15.0,16.5,61,0.00,,,0.00,VWS V14.01,2013-03-15 19:40:00,
2013-03-15 15:41:00,57.7,44.4,29.90,SW,226,12.0,15.0,61,0.00,,,0.00,VWS V14.01,2013-03-15 19:41:00,
2013-03-15 15:42:00,57.7,44.8,29.90,West,262,7.5,12.0,62,0.00,,,0.00,VWS V14.01,2013-03-15 19:42:00,
2013-03-15 15:43:00,57.8,44.5,29.90,WSW,237,7.5,10.5,61,0.00,,,0.00,VWS V14.01,2013-03-15 19:43:00,
2013-03-15 15:44:00,57.8,44.5,29.90,WSW,258,10.5,10.5,61,0.00,,,0.00,VWS V14.01,2013-03-15 19:44:00,
2013-03-15 15:45:00,57.8,44.5,29.90,WSW,258,10.5,10.5,61,0.00,,,0.00,VWS V14.01,2013-03-15 19:45:00,
2013-03-15 15:46:00,57.9,45.0,29.90,WSW,256,7.5,10.5,62,0.00,,,0.00,VWS V14.01,2013-03-15 19:46:00,
2013-03-15 15:47:00,58.0,45.1,29.90,SW,229,10.5,13.5,62,0.00,,,0.00,VWS V14.01,2013-03-15 19:47:00,
2013-03-15 15:48:00,58.0,44.6,29.90,WSW,257,4.5,7.5,61,0.00,,,0.00,VWS V14.01,2013-03-15 19:48:00,
2013-03-15 15:49:00,58.1,44.7,29.90,WSW,244,3.0,7.5,61,0.00,,,0.00,VWS V14.01,2013-03-15 19:49:00,
2013-03-15 15:50:00,58.2,44.8,29.90,West,271,4.5,7.5,61,0.00,,,0.00,VWS V14.01,2013-03-15 19:50:00,
2013-03-15 15:51:00,58.2,44.8,29.90,West,260,7.5,9.0,61,0.00,,,0.00,VWS V14.01,2013-03-15 19:51:00,
2013-03-15 15:52:00,58.3,44.9,29.90,West,281,6.0,12.0,61,0.00,,,0.00,VWS V14.01,2013-03-15 19:52:00,
2013-03-15 15:53:00,58.3,44.5,29.90,West,269,3.0,6.0,60,0.00,,,0.00,VWS V14.01,2013-03-15 19:53:00,
2013-03-15 15:54:00,58.4,45.0,29.90,West,260,6.0,6.0,61,0.00,,,0.00,VWS V14.01,2013-03-15 19:54:00,
2013-03-15 15:55:00,58.5,45.1,29.90,WSW,246,12.0,12.0,61,0.00,,,0.00,VWS V14.01,2013-03-15 19:55:00,
2013-03-15 15:56:00,58.5,45.1,29.90,WSW,257,9.0,12.0,61,0.00,,,0.00,VWS V14.01,2013-03-15 19:56:00,
2013-03-15 15:57:00,58.5,45.1,29.90,West,275,1.5,10.5,61,0.00,,,0.00,VWS V14.01,2013-03-15 19:57:00,
2013-03-15 15:58:00,58.5,45.1,29.90,West,272,9.0,10.5,61,0.00,,,0.00,VWS V14.01,2013-03-15 19:58:00,
2013-03-15 15:59:00,58.6,45.2,29.90,West,274,9.0,10.5,61,0.00,,,0.00,VWS V14.01,2013-03-15 19:59:00,
2013-03-15 16:00:00,58.6,44.8,29.90,WNW,301,12.0,13.5,60,0.00,,,0.00,VWS V14.01,2013-03-15 20:00:00,
2013-03-15 16:01:00,58.6,44.8,29.90,West,260,10.5,15.0,60,0.00,,,0.00,VWS V14.01,2013-03-15 20:01:00,
2013-03-15 16:02:00,58.5,44.7,29.89,West,265,13.5,15.0,60,0.00,,,0.00,VWS V14.01,2013-03-15 20:02:00,
2013-03-15 16:03:00,58.4,44.6,29.89,WSW,248,12.0,12.0,60,0.00,,,0.00,VWS V14.01,2013-03-15 20:03:00,
2013-03-15 16:04:00,58.5,44.7,29.89,WSW,258,9.0,12.0,60,0.00,,,0.00,VWS V14.01,2013-03-15 20:04:00,
2013-03-15 16:05:00,58.4,44.6,29.89,West,275,7.5,12.0,60,0.00,,,0.00,VWS V14.01,2013-03-15 20:05:00,
2013-03-15 16:06:00,58.4,44.6,29.89,West,267,4.5,12.0,60,0.00,,,0.00,VWS V14.01,2013-03-15 20:06:00,
2013-03-15 16:07:00,58.5,44.7,29.89,WSW,255,6.0,7.5,60,0.00,,,0.00,VWS V14.01,2013-03-15 20:07:00,
2013-03-15 16:08:00,58.6,44.8,29.89,West,274,7.5,7.5,60,0.00,,,0.00,VWS V14.01,2013-03-15 20:08:00,
2013-03-15 16:09:00,58.6,44.8,29.89,WNW,291,6.0,10.5,60,0.00,,,0.00,VWS V14.01,2013-03-15 20:09:00,
2013-03-15 16:10:00,58.7,44.4,29.89,WSW,258,6.0,15.0,59,0.00,,,0.00,VWS V14.01,2013-03-15 20:10:00,
2013-03-15 16:11:00,58.6,44.3,29.89,WSW,251,10.5,10.5,59,0.00,,,0.00,VWS V14.01,2013-03-15 20:11:00,
2013-03-15 16:12:00,58.5,44.2,29.89,WSW,248,10.5,15.0,59,0.00,,,0.00,VWS V14.01,2013-03-15 20:12:00,
2013-03-15 16:13:00,58.4,44.6,29.89,WNW,285,12.0,15.0,60,0.00,,,0.00,VWS V14.01,2013-03-15 20:13:00,
2013-03-15 16:14:00,58.4,44.6,29.89,West,267,12.0,15.0,60,0.00,,,0.00,VWS V14.01,2013-03-15 20:14:00,
2013-03-15 16:15:00,58.4,44.6,29.89,West,267,12.0,12.0,60,0.00,,,0.00,VWS V14.01,2013-03-15 20:15:00,
2013-03-15 16:16:00,58.4,44.6,29.89,WNW,287,9.0,12.0,60,0.00,,,0.00,VWS V14.01,2013-03-15 20:16:00,
2013-03-15 16:17:00,58.4,44.6,29.89,West,269,9.0,10.5,60,0.00,,,0.00,VWS V14.01,2013-03-15 20:17:00,
2013-03-15 16:18:00,58.4,44.6,29.89,West,274,7.5,7.5,60,0.00,,,0.00,VWS V14.01,2013-03-15 20:18:00,
2013-03-15 16:19:00,58.4,45.0,29.89,SW,228,7.5,12.0,61,0.00,,,0.00,VWS V14.01,2013-03-15 20:19:00,
2013-03-15 16:20:00,58.5,45.1,29.89,SW,234,13.5,15.0,61,0.00,,,0.00,VWS V14.01,2013-03-15 20:20:00,
2013-03-15 16:21:00,58.5,45.1,29.89,NW,319,7.5,16.5,61,0.00,,,0.00,VWS V14.01,2013-03-15 20:21:00,
2013-03-15 16:22:00,58.5,45.1,29.89,West,269,9.0,9.0,61,0.00,,,0.00,VWS V14.01,2013-03-15 20:22:00,
2013-03-15 16:23:00,58.6,44.8,29.89,WSW,246,10.5,10.5,60,0.00,,,0.00,VWS V14.01,2013-03-15 20:23:00,
2013-03-15 16:24:00,58.6,44.8,29.89,NW,306,9.0,10.5,60,0.00,,,0.00,VWS V14.01,2013-03-15 20:24:00,
2013-03-15 16:25:00,58.6,44.8,29.89,WNW,285,7.5,10.5,60,0.00,,,0.00,VWS V14.01,2013-03-15 20:25:00,
2013-03-15 16:26:00,58.7,44.9,29.89,WSW,253,4.5,9.0,60,0.00,,,0.00,VWS V14.01,2013-03-15 20:26:00,
2013-03-15 16:27:00,58.7,45.3,29.89,West,272,10.5,12.0,61,0.00,,,0.00,VWS V14.01,2013-03-15 20:27:00,
2013-03-15 16:28:00,58.8,45.4,29.89,West,261,6.0,9.0,61,0.00,,,0.00,VWS V14.01,2013-03-15 20:28:00,
2013-03-15 16:29:00,58.8,45.4,29.88,West,260,10.5,10.5,61,0.00,,,0.00,VWS V14.01,2013-03-15 20:29:00,
2013-03-15 16:30:00,58.8,45.0,29.88,SW,231,9.0,10.5,60,0.00,,,0.00,VWS V14.01,2013-03-15 20:30:00,
2013-03-15 16:31:00,58.8,45.0,29.88,WNW,296,7.5,10.5,60,0.00,,,0.00,VWS V14.01,2013-03-15 20:31:00,
2013-03-15 16:32:00,58.9,45.1,29.88,West,280,7.5,10.5,60,0.00,,,0.00,VWS V14.01,2013-03-15 20:32:00,
2013-03-15 16:33:00,59.0,45.6,29.88,WNW,295,9.0,9.0,61,0.00,,,0.00,VWS V14.01,2013-03-15 20:33:00,
2013-03-15 16:34:00,59.0,45.6,29.88,SW,223,7.5,9.0,61,0.00,,,0.00,VWS V14.01,2013-03-15 20:34:00,
2013-03-15 16:35:00,59.1,45.7,29.88,WSW,256,12.0,12.0,61,0.00,,,0.00,VWS V14.01,2013-03-15 20:35:00,
2013-03-15 16:36:00,59.1,45.2,29.88,West,268,6.0,12.0,60,0.00,,,0.00,VWS V14.01,2013-03-15 20:36:00,
2013-03-15 16:37:00,59.1,45.2,29.88,West,278,6.0,12.0,60,0.00,,,0.00,VWS V14.01,2013-03-15 20:37:00,
2013-03-15 16:38:00,59.1,45.2,29.88,West,260,7.5,10.5,60,0.00,,,0.00,VWS V14.01,2013-03-15 20:38:00,
2013-03-15 16:39:00,59.1,45.2,29.88,WNW,287,9.0,10.5,60,0.00,,,0.00,VWS V14.01,2013-03-15 20:39:00,
2013-03-15 16:40:00,59.2,45.3,29.88,West,281,9.0,9.0,60,0.00,,,0.00,VWS V14.01,2013-03-15 20:40:00,
2013-03-15 16:41:00,59.2,44.9,29.88,West,278,9.0,16.5,59,0.00,,,0.00,VWS V14.01,2013-03-15 20:41:00,
2013-03-15 16:43:00,59.4,45.1,29.88,SW,215,13.5,16.5,59,0.00,,,0.00,VWS V14.01,2013-03-15 20:43:00,
2013-03-15 16:44:00,59.4,45.1,29.88,WSW,254,12.0,18.0,59,0.00,,,0.00,VWS V14.01,2013-03-15 20:44:00,
2013-03-15 16:45:00,59.4,45.5,29.88,West,267,10.5,13.5,60,0.00,,,0.00,VWS V14.01,2013-03-15 20:45:00,
2013-03-15 16:46:00,59.5,45.2,29.88,West,267,13.5,18.0,59,0.00,,,0.00,VWS V14.01,2013-03-15 20:46:00,
2013-03-15 16:47:00,59.5,45.2,29.88,SSW,212,9.0,13.5,59,0.00,,,0.00,VWS V14.01,2013-03-15 20:47:00,
2013-03-15 16:48:00,59.6,45.3,29.88,WNW,291,10.5,12.0,59,0.00,,,0.00,VWS V14.01,2013-03-15 20:48:00,
2013-03-15 16:49:00,59.6,45.3,29.88,WSW,254,7.5,12.0,59,0.00,,,0.00,VWS V14.01,2013-03-15 20:49:00,
2013-03-15 16:50:00,59.7,45.4,29.88,West,267,4.5,9.0,59,0.00,,,0.00,VWS V14.01,2013-03-15 20:50:00,
2013-03-15 16:51:00,59.7,45.4,29.88,WSW,251,4.5,6.0,59,0.00,,,0.00,VWS V14.01,2013-03-15 20:51:00,
2013-03-15 16:52:00,59.8,45.9,29.88,West,267,9.0,10.5,60,0.00,,,0.00,VWS V14.01,2013-03-15 20:52:00,
2013-03-15 16:53:00,59.8,45.9,29.88,SW,227,9.0,9.0,60,0.00,,,0.00,VWS V14.01,2013-03-15 20:53:00,
2013-03-15 16:54:00,59.8,45.9,29.88,WSW,246,10.5,13.5,60,0.00,,,0.00,VWS V14.01,2013-03-15 20:54:00,
2013-03-15 16:55:00,59.7,45.4,29.88,West,261,4.5,10.5,59,0.00,,,0.00,VWS V14.01,2013-03-15 20:55:00,
2013-03-15 16:56:00,59.8,45.5,29.88,West,280,4.5,9.0,59,0.00,,,0.00,VWS V14.01,2013-03-15 20:56:00,
2013-03-15 16:57:00,59.8,45.5,29.88,West,279,6.0,7.5,59,0.00,,,0.00,VWS V14.01,2013-03-15 20:57:00,
2013-03-15 16:58:00,59.9,45.5,29.88,WSW,248,6.0,7.5,59,0.00,,,0.00,VWS V14.01,2013-03-15 20:58:00,
2013-03-15 16:59:00,59.9,45.5,29.88,WSW,254,3.0,7.5,59,0.00,,,0.00,VWS V14.01,2013-03-15 20:59:00,
2013-03-15 17:00:00,59.9,45.5,29.88,West,267,4.5,7.5,59,0.00,,,0.00,VWS V14.01,2013-03-15 21:00:00,
2013-03-15 17:01:00,60.0,45.7,29.88,WNW,287,9.0,9.0,59,0.00,,,0.00,VWS V14.01,2013-03-15 21:01:00,
2013-03-15 17:02:00,60.1,45.7,29.88,WSW,249,9.0,9.0,59,0.00,,,0.00,VWS V14.01,2013-03-15 21:02:00,
2013-03-15 17:03:00,60.1,45.3,29.88,West,274,4.5,7.5,58,0.00,,,0.00,VWS V14.01,2013-03-15 21:03:00,
2013-03-15 17:04:00,60.1,45.7,29.88,WSW,254,6.0,7.5,59,0.00,,,0.00,VWS V14.01,2013-03-15 21:04:00,
2013-03-15 17:05:00,60.2,45.4,29.88,West,271,6.0,12.0,58,0.00,,,0.00,VWS V14.01,2013-03-15 21:05:00,
2013-03-15 17:06:00,60.1,45.3,29.87,West,264,7.5,7.5,58,0.00,,,0.00,VWS V14.01,2013-03-15 21:06:00,
2013-03-15 17:07:00,60.1,45.3,29.87,WSW,244,15.0,16.5,58,0.00,,,0.00,VWS V14.01,2013-03-15 21:07:00,
2013-03-15 17:08:00,60.1,45.3,29.88,West,269,6.0,9.0,58,0.00,,,0.00,VWS V14.01,2013-03-15 21:08:00,
2013-03-15 17:09:00,60.1,45.3,29.88,WSW,240,12.0,16.5,58,0.00,,,0.00,VWS V14.01,2013-03-15 21:09:00,
2013-03-15 17:10:00,60.1,45.3,29.87,West,272,7.5,12.0,58,0.00,,,0.00,VWS V14.01,2013-03-15 21:10:00,
2013-03-15 17:11:00,60.1,44.8,29.87,West,269,7.5,9.0,57,0.00,,,0.00,VWS V14.01,2013-03-15 21:11:00,
2013-03-15 17:12:00,60.1,45.3,29.87,WNW,282,6.0,10.5,58,0.00,,,0.00,VWS V14.01,2013-03-15 21:12:00,
2013-03-15 17:13:00,60.1,45.3,29.87,WNW,296,4.5,9.0,58,0.00,,,0.00,VWS V14.01,2013-03-15 21:13:00,
2013-03-15 17:14:00,60.1,45.3,29.87,WNW,300,4.5,9.0,58,0.00,,,0.00,VWS V14.01,2013-03-15 21:14:00,
2013-03-15 17:15:00,60.1,45.3,29.87,WSW,251,3.0,6.0,58,0.00,,,0.00,VWS V14.01,2013-03-15 21:15:00,
2013-03-15 17:16:00,60.1,45.3,29.87,WNW,285,7.5,9.0,58,0.00,,,0.00,VWS V14.01,2013-03-15 21:16:00,
2013-03-15 17:17:00,60.1,45.3,29.87,West,260,9.0,9.0,58,0.00,,,0.00,VWS V14.01,2013-03-15 21:17:00,
2013-03-15 17:18:00,60.1,45.3,29.87,West,279,9.0,10.5,58,0.00,,,0.00,VWS V14.01,2013-03-15 21:18:00,
2013-03-15 17:19:00,60.1,45.7,29.87,West,279,4.5,10.5,59,0.00,,,0.00,VWS V14.01,2013-03-15 21:19:00,
2013-03-15 17:20:00,60.2,45.8,29.87,West,264,9.0,9.0,59,0.00,,,0.00,VWS V14.01,2013-03-15 21:20:00,
2013-03-15 17:21:00,60.2,45.4,29.87,West,263,6.0,9.0,58,0.00,,,0.00,VWS V14.01,2013-03-15 21:21:00,
2013-03-15 17:22:00,60.1,45.3,29.87,WSW,253,9.0,10.5,58,0.00,,,0.00,VWS V14.01,2013-03-15 21:22:00,
2013-03-15 17:23:00,60.1,45.7,29.87,WNW,286,4.5,4.5,59,0.00,,,0.00,VWS V14.01,2013-03-15 21:23:00,
2013-03-15 17:24:00,60.2,45.8,29.87,West,281,6.0,7.5,59,0.00,,,0.00,VWS V14.01,2013-03-15 21:24:00,
2013-03-15 17:25:00,60.2,45.8,29.87,West,281,6.0,6.0,59,0.00,,,0.00,VWS V14.01,2013-03-15 21:25:00,
2013-03-15 17:26:00,60.3,45.9,29.87,West,271,3.0,6.0,59,0.00,,,0.00,VWS V14.01,2013-03-15 21:26:00,
2013-03-15 17:27:00,60.3,45.9,29.87,WSW,251,3.0,3.0,59,0.00,,,0.00,VWS V14.01,2013-03-15 21:27:00,
2013-03-15 17:28:00,60.4,46.0,29.87,NW,313,3.0,3.0,59,0.00,,,0.00,VWS V14.01,2013-03-15 21:28:00,
2013-03-15 17:29:00,60.4,46.0,29.87,NNW,338,1.5,3.0,59,0.00,,,0.00,VWS V14.01,2013-03-15 21:29:00,
2013-03-15 17:30:00,60.5,46.1,29.87,WNW,285,4.5,4.5,59,0.00,,,0.00,VWS V14.01,2013-03-15 21:30:00,
2013-03-15 17:31:00,60.5,45.7,29.87,WNW,303,4.5,7.5,58,0.00,,,0.00,VWS V14.01,2013-03-15 21:31:00,
2013-03-15 17:32:00,60.5,45.7,29.87,NW,306,4.5,7.5,58,0.00,,,0.00,VWS V14.01,2013-03-15 21:32:00,
2013-03-15 17:33:00,60.4,45.6,29.87,NW,319,3.0,4.5,58,0.00,,,0.00,VWS V14.01,2013-03-15 21:33:00,
2013-03-15 17:34:00,60.4,46.0,29.87,WNW,287,7.5,9.0,59,0.00,,,0.00,VWS V14.01,2013-03-15 21:34:00,
2013-03-15 17:35:00,60.4,46.0,29.87,West,278,4.5,7.5,59,0.00,,,0.00,VWS V14.01,2013-03-15 21:35:00,
2013-03-15 17:36:00,60.4,46.0,29.87,West,270,4.5,6.0,59,0.00,,,0.00,VWS V14.01,2013-03-15 21:36:00,
2013-03-15 17:37:00,60.4,46.0,29.87,WSW,241,1.5,6.0,59,0.00,,,0.00,VWS V14.01,2013-03-15 21:37:00,
2013-03-15 17:38:00,60.4,45.6,29.86,West,262,9.0,9.0,58,0.00,,,0.00,VWS V14.01,2013-03-15 21:38:00,
2013-03-15 17:39:00,60.4,45.6,29.87,WNW,293,4.5,9.0,58,0.00,,,0.00,VWS V14.01,2013-03-15 21:39:00,
2013-03-15 17:40:00,60.4,45.6,29.87,WNW,293,1.5,4.5,58,0.00,,,0.00,VWS V14.01,2013-03-15 21:40:00,
2013-03-15 17:41:00,60.4,46.0,29.87,WSW,250,4.5,6.0,59,0.00,,,0.00,VWS V14.01,2013-03-15 21:41:00,
2013-03-15 17:42:00,60.4,45.6,29.87,West,269,6.0,13.5,58,0.00,,,0.00,VWS V14.01,2013-03-15 21:42:00,
2013-03-15 17:43:00,60.4,45.6,29.87,NW,316,10.5,10.5,58,0.00,,,0.00,VWS V14.01,2013-03-15 21:43:00,
2013-03-15 17:44:00,60.4,45.6,29.87,West,272,7.5,13.5,58,0.00,,,0.00,VWS V14.01,2013-03-15 21:44:00,
2013-03-15 17:45:00,60.3,45.5,29.87,West,278,6.0,10.5,58,0.00,,,0.00,VWS V14.01,2013-03-15 21:45:00,
2013-03-15 17:46:00,60.3,45.5,29.87,WNW,286,7.5,9.0,58,0.00,,,0.00,VWS V14.01,2013-03-15 21:46:00,
2013-03-15 17:47:00,60.3,45.5,29.87,West,265,10.5,10.5,58,0.00,,,0.00,VWS V14.01,2013-03-15 21:47:00,
2013-03-15 17:48:00,60.3,45.5,29.87,West,262,6.0,7.5,58,0.00,,,0.00,VWS V14.01,2013-03-15 21:48:00,
2013-03-15 17:49:00,60.3,45.5,29.87,WNW,296,10.5,12.0,58,0.00,,,0.00,VWS V14.01,2013-03-15 21:49:00,
2013-03-15 17:50:00,60.3,45.5,29.86,West,276,10.5,10.5,58,0.00,,,0.00,VWS V14.01,2013-03-15 21:50:00,
2013-03-15 17:51:00,60.3,45.5,29.86,West,268,7.5,10.5,58,0.00,,,0.00,VWS V14.01,2013-03-15 21:51:00,
2013-03-15 17:52:00,60.3,45.5,29.86,West,267,6.0,9.0,58,0.00,,,0.00,VWS V14.01,2013-03-15 21:52:00,
2013-03-15 17:53:00,60.3,45.5,29.86,WNW,291,3.0,7.5,58,0.00,,,0.00,VWS V14.01,2013-03-15 21:53:00,
2013-03-15 17:54:00,60.2,45.4,29.86,WNW,293,6.0,9.0,58,0.00,,,0.00,VWS V14.01,2013-03-15 21:54:00,
2013-03-15 17:55:00,60.2,45.4,29.86,WSW,250,7.5,7.5,58,0.00,,,0.00,VWS V14.01,2013-03-15 21:55:00,
2013-03-15 17:56:00,60.3,45.5,29.86,WNW,286,3.0,7.5,58,0.00,,,0.00,VWS V14.01,2013-03-15 21:56:00,
2013-03-15 17:57:00,60.3,45.5,29.86,West,267,6.0,10.5,58,0.00,,,0.00,VWS V14.01,2013-03-15 21:57:00,
2013-03-15 17:58:00,60.3,45.5,29.86,West,272,6.0,6.0,58,0.00,,,0.00,VWS V14.01,2013-03-15 21:58:00,
2013-03-15 17:59:00,60.3,45.5,29.86,NW,319,4.5,6.0,58,0.00,,,0.00,VWS V14.01,2013-03-15 21:59:00,
2013-03-15 18:00:00,60.3,45.5,29.86,WNW,293,9.0,9.0,58,0.00,,,0.00,VWS V14.01,2013-03-15 22:00:00,
2013-03-15 18:01:00,60.3,45.5,29.86,WSW,255,3.0,9.0,58,0.00,,,0.00,VWS V14.01,2013-03-15 22:01:00,
2013-03-15 18:02:00,60.3,45.5,29.86,WSW,255,6.0,7.5,58,0.00,,,0.00,VWS V14.01,2013-03-15 22:02:00,
2013-03-15 18:03:00,60.3,45.5,29.86,WNW,285,1.5,1.5,58,0.00,,,0.00,VWS V14.01,2013-03-15 22:03:00,
2013-03-15 18:04:00,60.3,45.9,29.86,West,265,4.5,4.5,59,0.00,,,0.00,VWS V14.01,2013-03-15 22:04:00,
2013-03-15 18:05:00,60.3,45.5,29.86,WNW,293,4.5,6.0,58,0.00,,,0.00,VWS V14.01,2013-03-15 22:05:00,
2013-03-15 18:06:00,60.3,45.5,29.86,NW,306,4.5,4.5,58,0.00,,,0.00,VWS V14.01,2013-03-15 22:06:00,
2013-03-15 18:07:00,60.3,45.5,29.86,WNW,285,3.0,6.0,58,0.00,,,0.00,VWS V14.01,2013-03-15 22:07:00,
2013-03-15 18:08:00,60.3,45.5,29.86,WNW,288,6.0,6.0,58,0.00,,,0.00,VWS V14.01,2013-03-15 22:08:00,
2013-03-15 18:09:00,60.3,45.9,29.86,WSW,253,4.5,7.5,59,0.00,,,0.00,VWS V14.01,2013-03-15 22:09:00,
2013-03-15 18:11:00,60.3,45.5,29.86,West,271,4.5,6.0,58,0.00,,,0.00,VWS V14.01,2013-03-15 22:11:00,
2013-03-15 18:12:00,60.3,45.9,29.86,West,261,4.5,4.5,59,0.00,,,0.00,VWS V14.01,2013-03-15 22:12:00,
2013-03-15 18:13:00,60.3,45.5,29.86,West,264,4.5,4.5,58,0.00,,,0.00,VWS V14.01,2013-03-15 22:13:00,
2013-03-15 18:14:00,60.3,45.9,29.86,West,274,3.0,4.5,59,0.00,,,0.00,VWS V14.01,2013-03-15 22:14:00,
2013-03-15 18:15:00,60.3,45.9,29.86,WNW,285,1.5,4.5,59,0.00,,,0.00,VWS V14.01,2013-03-15 22:15:00,
2013-03-15 18:16:00,60.3,45.9,29.86,WNW,293,4.5,4.5,59,0.00,,,0.00,VWS V14.01,2013-03-15 22:16:00,
2013-03-15 18:17:00,60.3,45.9,29.86,West,267,6.0,6.0,59,0.00,,,0.00,VWS V14.01,2013-03-15 22:17:00,
2013-03-15 18:18:00,60.3,45.5,29.86,WSW,251,6.0,6.0,58,0.00,,,0.00,VWS V14.01,2013-03-15 22:18:00,
2013-03-15 18:19:00,60.3,45.5,29.86,West,267,3.0,7.5,58,0.00,,,0.00,VWS V14.01,2013-03-15 22:19:00,
2013-03-15 18:20:00,60.3,45.5,29.86,WNW,284,7.5,9.0,58,0.00,,,0.00,VWS V14.01,2013-03-15 22:20:00,
2013-03-15 18:21:00,60.3,45.5,29.86,WSW,248,6.0,9.0,58,0.00,,,0.00,VWS V14.01,2013-03-15 22:21:00,
2013-03-15 18:22:00,60.2,45.4,29.86,West,276,7.5,9.0,58,0.00,,,0.00,VWS V14.01,2013-03-15 22:22:00,
2013-03-15 18:23:00,60.2,45.4,29.86,West,265,4.5,4.5,58,0.00,,,0.00,VWS V14.01,2013-03-15 22:23:00,
2013-03-15 18:24:00,60.2,45.4,29.86,WNW,300,4.5,6.0,58,0.00,,,0.00,VWS V14.01,2013-03-15 22:24:00,
2013-03-15 18:25:00,60.2,45.4,29.86,West,267,4.5,6.0,58,0.00,,,0.00,VWS V14.01,2013-03-15 22:25:00,
2013-03-15 18:26:00,60.2,45.4,29.86,WNW,303,1.5,4.5,58,0.00,,,0.00,VWS V14.01,2013-03-15 22:26:00,
2013-03-15 18:27:00,60.1,45.7,29.86,WSW,258,1.5,6.0,59,0.00,,,0.00,VWS V14.01,2013-03-15 22:27:00,
2013-03-15 18:28:00,60.2,45.8,29.86,West,267,1.5,1.5,59,0.00,,,0.00,VWS V14.01,2013-03-15 22:28:00,
2013-03-15 18:29:00,60.2,45.8,29.86,WSW,249,1.5,3.0,59,0.00,,,0.00,VWS V14.01,2013-03-15 22:29:00,
2013-03-15 18:30:00,60.2,45.8,29.86,West,274,4.5,4.5,59,0.00,,,0.00,VWS V14.01,2013-03-15 22:30:00,
2013-03-15 18:31:00,60.2,45.4,29.86,West,269,4.5,4.5,58,0.00,,,0.00,VWS V14.01,2013-03-15 22:31:00,
2013-03-15 18:32:00,60.1,45.7,29.86,West,268,4.5,6.0,59,0.00,,,0.00,VWS V14.01,2013-03-15 22:32:00,
2013-03-15 18:33:00,60.1,45.7,29.86,West,269,4.5,4.5,59,0.00,,,0.00,VWS V14.01,2013-03-15 22:33:00,
2013-03-15 18:35:00,60.1,45.7,29.86,West,276,1.5,4.5,59,0.00,,,0.00,VWS V14.01,2013-03-15 22:35:00,
2013-03-15 18:36:00,60.1,45.7,29.87,West,275,6.0,6.0,59,0.00,,,0.00,VWS V14.01,2013-03-15 22:36:00,
2013-03-15 18:37:00,60.1,45.7,29.87,West,269,4.5,6.0,59,0.00,,,0.00,VWS V14.01,2013-03-15 22:37:00,
2013-03-15 18:38:00,60.1,45.7,29.87,West,278,3.0,3.0,59,0.00,,,0.00,VWS V14.01,2013-03-15 22:38:00,
2013-03-15 18:39:00,60.1,45.7,29.87,West,281,4.5,4.5,59,0.00,,,0.00,VWS V14.01,2013-03-15 22:39:00,
2013-03-15 18:40:00,60.1,45.7,29.86,West,275,4.5,4.5,59,0.00,,,0.00,VWS V14.01,2013-03-15 22:40:00,
2013-03-15 18:41:00,60.1,45.7,29.87,West,265,1.5,4.5,59,0.00,,,0.00,VWS V14.01,2013-03-15 22:41:00,
2013-03-15 18:42:00,60.0,45.7,29.86,West,268,1.5,3.0,59,0.00,,,0.00,VWS V14.01,2013-03-15 22:42:00,
2013-03-15 18:43:00,60.0,45.7,29.86,West,274,1.5,1.5,59,0.00,,,0.00,VWS V14.01,2013-03-15 22:43:00,
2013-03-15 18:44:00,60.0,45.7,29.86,West,272,3.0,3.0,59,0.00,,,0.00,VWS V14.01,2013-03-15 22:44:00,
2013-03-15 18:45:00,60.0,45.7,29.86,WNW,293,1.5,4.5,59,0.00,,,0.00,VWS V14.01,2013-03-15 22:45:00,
2013-03-15 18:47:00,59.9,45.5,29.86,West,268,4.5,4.5,59,0.00,,,0.00,VWS V14.01,2013-03-15 22:47:00,
2013-03-15 18:48:00,59.9,45.5,29.86,WSW,258,1.5,4.5,59,0.00,,,0.00,VWS V14.01,2013-03-15 22:48:00,
2013-03-15 18:49:00,59.9,45.5,29.86,WSW,258,1.5,1.5,59,0.00,,,0.00,VWS V14.01,2013-03-15 22:49:00,
2013-03-15 18:50:00,59.9,46.0,29.87,WSW,257,1.5,1.5,60,0.00,,,0.00,VWS V14.01,2013-03-15 22:50:00,
2013-03-15 18:51:00,59.9,46.0,29.87,WSW,258,1.5,1.5,60,0.00,,,0.00,VWS V14.01,2013-03-15 22:51:00,
2013-03-15 18:52:00,59.9,46.0,29.87,WSW,258,1.5,1.5,60,0.00,,,0.00,VWS V14.01,2013-03-15 22:52:00,
2013-03-15 18:53:00,59.8,45.9,29.87,WSW,258,1.5,1.5,60,0.00,,,0.00,VWS V14.01,2013-03-15 22:53:00,
2013-03-15 18:54:00,59.8,46.3,29.86,West,260,1.5,1.5,61,0.00,,,0.00,VWS V14.01,2013-03-15 22:54:00,
2013-03-15 18:55:00,59.8,46.3,29.87,NNW,339,1.5,1.5,61,0.00,,,0.00,VWS V14.01,2013-03-15 22:55:00,
2013-03-15 18:56:00,59.7,46.7,29.87,North,6,1.5,3.0,62,0.00,,,0.00,VWS V14.01,2013-03-15 22:56:00,
2013-03-15 18:57:00,59.7,46.2,29.87,North,10,3.0,3.0,61,0.00,,,0.00,VWS V14.01,2013-03-15 22:57:00,
2013-03-15 18:58:00,59.6,46.6,29.86,North,10,1.5,3.0,62,0.00,,,0.00,VWS V14.01,2013-03-15 22:58:00,
2013-03-15 18:59:00,59.5,46.1,29.87,North,1,3.0,3.0,61,0.00,,,0.00,VWS V14.01,2013-03-15 22:59:00,
2013-03-15 19:00:00,59.5,46.5,29.87,North,2,1.5,3.0,62,0.00,,,0.00,VWS V14.01,2013-03-15 23:00:00,
2013-03-15 19:01:00,59.4,46.4,29.87,North,2,1.5,1.5,62,0.00,,,0.00,VWS V14.01,2013-03-15 23:01:00,
2013-03-15 19:02:00,59.3,46.3,29.87,North,2,1.5,3.0,62,0.00,,,0.00,VWS V14.01,2013-03-15 23:02:00,
2013-03-15 19:03:00,59.3,46.3,29.87,North,2,1.5,1.5,62,0.00,,,0.00,VWS V14.01,2013-03-15 23:03:00,
2013-03-15 19:04:00,59.2,46.2,29.87,North,11,3.0,3.0,62,0.00,,,0.00,VWS V14.01,2013-03-15 23:04:00,
2013-03-15 19:05:00,59.1,46.1,29.87,NNE,16,1.5,3.0,62,0.00,,,0.00,VWS V14.01,2013-03-15 23:05:00,
2013-03-15 19:08:00,59.0,46.4,29.87,NNE,14,1.5,3.0,63,0.00,,,0.00,VWS V14.01,2013-03-15 23:08:00,
2013-03-15 19:15:00,58.6,46.9,29.87,North,350,3.0,4.5,65,0.00,,,0.00,VWS V14.01,2013-03-15 23:15:00,
2013-03-15 19:20:00,57.9,46.6,29.87,North,360,1.5,3.0,66,0.00,,,0.00,VWS V14.01,2013-03-15 23:20:00,
2013-03-15 19:25:00,57.5,46.2,29.87,North,360,1.5,1.5,66,0.00,,,0.00,VWS V14.01,2013-03-15 23:25:00,
2013-03-15 19:30:00,57.2,46.4,29.87,North,2,1.5,1.5,67,0.00,,,0.00,VWS V14.01,2013-03-15 23:30:00,
2013-03-15 19:35:00,56.8,46.0,29.87,North,2,1.5,1.5,67,0.00,,,0.00,VWS V14.01,2013-03-15 23:35:00,
2013-03-15 19:40:00,56.5,45.7,29.87,North,2,1.5,1.5,67,0.00,,,0.00,VWS V14.01,2013-03-15 23:40:00,
2013-03-15 19:44:00,56.3,45.5,29.87,North,2,1.5,1.5,67,0.00,,,0.00,VWS V14.01,2013-03-15 23:44:00,
2013-03-15 19:49:00,56.2,45.4,29.87,ENE,67,1.5,1.5,67,0.00,,,0.00,VWS V14.01,2013-03-15 23:49:00,
2013-03-15 19:54:00,56.3,45.5,29.87,SE,129,1.5,3.0,67,0.00,,,0.00,VWS V14.01,2013-03-15 23:54:00,
2013-03-15 19:59:00,56.2,45.4,29.86,ESE,116,3.0,4.5,67,0.00,,,0.00,VWS V14.01,2013-03-15 23:59:00,
2013-03-15 20:04:00,56.1,45.7,29.86,SE,125,1.5,1.5,68,0.00,,,0.00,VWS V14.01,2013-03-16 00:04:00,
2013-03-15 20:09:00,55.6,45.2,29.86,SE,125,1.5,1.5,68,0.00,,,0.00,VWS V14.01,2013-03-16 00:09:00,
2013-03-15 20:14:00,55.2,45.2,29.86,ESE,123,1.5,3.0,69,0.00,,,0.00,VWS V14.01,2013-03-16 00:14:00,
2013-03-15 20:19:00,55.1,45.1,29.86,ESE,123,1.5,1.5,69,0.00,,,0.00,VWS V14.01,2013-03-16 00:19:00,
2013-03-15 20:24:00,55.1,45.1,29.86,ESE,104,3.0,3.0,69,0.00,,,0.00,VWS V14.01,2013-03-16 00:24:00,
2013-03-15 20:29:00,55.0,45.0,29.86,ESE,104,3.0,3.0,69,0.00,,,0.00,VWS V14.01,2013-03-16 00:29:00,
2013-03-15 20:34:00,55.0,45.0,29.85,ESE,119,1.5,3.0,69,0.00,,,0.00,VWS V14.01,2013-03-16 00:34:00,
2013-03-15 20:39:00,54.8,45.2,29.85,SE,127,1.5,1.5,70,0.00,,,0.00,VWS V14.01,2013-03-16 00:39:00,
2013-03-15 20:44:00,54.6,45.0,29.85,SE,131,3.0,3.0,70,0.00,,,0.00,VWS V14.01,2013-03-16 00:44:00,
2013-03-15 20:49:00,54.4,45.2,29.85,ESE,116,1.5,3.0,71,0.00,,,0.00,VWS V14.01,2013-03-16 00:49:00,
2013-03-15 20:54:00,54.1,45.3,29.85,ESE,116,1.5,1.5,72,0.00,,,0.00,VWS V14.01,2013-03-16 00:54:00,
2013-03-15 20:59:00,53.7,45.3,29.85,ESE,116,1.5,1.5,73,0.00,,,0.00,VWS V14.01,2013-03-16 00:59:00,
2013-03-15 21:04:00,53.0,45.0,29.85,ESE,116,1.5,1.5,74,0.00,,,0.00,VWS V14.01,2013-03-16 01:04:00,
2013-03-15 21:09:00,52.6,44.9,29.84,ESE,116,1.5,1.5,75,0.00,,,0.00,VWS V14.01,2013-03-16 01:09:00,
2013-03-15 21:14:00,52.5,44.8,29.84,ESE,116,1.5,1.5,75,0.00,,,0.00,VWS V14.01,2013-03-16 01:14:00,
2013-03-15 21:19:00,52.2,44.5,29.84,ESE,116,1.5,1.5,75,0.00,,,0.00,VWS V14.01,2013-03-16 01:19:00,
2013-03-15 21:24:00,52.0,44.7,29.84,ESE,116,1.5,1.5,76,0.00,,,0.00,VWS V14.01,2013-03-16 01:24:00,
2013-03-15 21:29:00,51.7,44.7,29.84,SE,144,3.0,3.0,77,0.00,,,0.00,VWS V14.01,2013-03-16 01:29:00,
2013-03-15 21:34:00,51.5,45.2,29.84,SSE,148,1.5,1.5,79,0.00,,,0.00,VWS V14.01,2013-03-16 01:34:00,
2013-03-15 21:39:00,51.4,45.1,29.84,SSE,147,1.5,1.5,79,0.00,,,0.00,VWS V14.01,2013-03-16 01:39:00,
2013-03-15 21:44:00,51.2,44.6,29.84,SE,144,4.5,4.5,78,0.00,,,0.00,VWS V14.01,2013-03-16 01:44:00,
2013-03-15 21:49:00,51.7,44.7,29.84,ESE,106,1.5,3.0,77,0.00,,,0.00,VWS V14.01,2013-03-16 01:49:00,
2013-03-15 21:54:00,52.1,45.1,29.84,SE,146,3.0,3.0,77,0.00,,,0.00,VWS V14.01,2013-03-16 01:54:00,
2013-03-15 21:59:00,52.3,45.0,29.84,SE,126,1.5,1.5,76,0.00,,,0.00,VWS V14.01,2013-03-16 01:59:00,
2013-03-15 22:04:00,52.3,45.0,29.84,SE,136,1.5,3.0,76,0.00,,,0.00,VWS V14.01,2013-03-16 02:04:00,
2013-03-15 22:09:00,52.4,45.1,29.83,SE,142,1.5,1.5,76,0.00,,,0.00,VWS V14.01,2013-03-16 02:09:00,
2013-03-15 22:14:00,52.4,45.1,29.84,SSE,168,1.5,1.5,76,0.00,,,0.00,VWS V14.01,2013-03-16 02:14:00,
2013-03-15 22:19:00,52.5,45.2,29.83,ESE,108,3.0,3.0,76,0.00,,,0.00,VWS V14.01,2013-03-16 02:19:00,
2013-03-15 22:24:00,52.5,45.2,29.83,East,96,1.5,1.5,76,0.00,,,0.00,VWS V14.01,2013-03-16 02:24:00,
2013-03-15 22:29:00,52.3,45.0,29.83,East,96,1.5,1.5,76,0.00,,,0.00,VWS V14.01,2013-03-16 02:29:00,
2013-03-15 22:34:00,52.0,45.0,29.83,East,94,1.5,1.5,77,0.00,,,0.00,VWS V14.01,2013-03-16 02:34:00,
2013-03-15 22:39:00,51.8,45.2,29.82,SSW,209,1.5,1.5,78,0.00,,,0.00,VWS V14.01,2013-03-16 02:39:00,
2013-03-15 22:44:00,51.5,45.5,29.82,NNE,30,6.0,6.0,80,0.00,,,0.00,VWS V14.01,2013-03-16 02:44:00,
2013-03-15 22:49:00,51.2,45.2,29.82,ESE,104,1.5,3.0,80,0.00,,,0.00,VWS V14.01,2013-03-16 02:49:00,
2013-03-15 22:54:00,51.0,45.1,29.81,SE,127,3.0,4.5,80,0.00,,,0.00,VWS V14.01,2013-03-16 02:54:00,
2013-03-15 22:59:00,51.4,45.1,29.81,SE,127,1.5,4.5,79,0.00,,,0.00,VWS V14.01,2013-03-16 02:59:00,
2013-03-15 23:04:00,51.6,45.0,29.81,ESE,111,3.0,3.0,78,0.00,,,0.00,VWS V14.01,2013-03-16 03:04:00,
2013-03-15 23:09:00,51.7,45.1,29.80,ESE,114,3.0,3.0,78,0.00,,,0.00,VWS V14.01,2013-03-16 03:09:00,
2013-03-15 23:14:00,51.8,45.2,29.80,East,96,1.5,3.0,78,0.00,,,0.00,VWS V14.01,2013-03-16 03:14:00,
2013-03-15 23:19:00,52.1,45.1,29.80,East,82,4.5,6.0,77,0.00,,,0.00,VWS V14.01,2013-03-16 03:19:00,
2013-03-15 23:24:00,52.3,45.3,29.79,ENE,78,4.5,4.5,77,0.00,,,0.00,VWS V14.01,2013-03-16 03:24:00,
2013-03-15 23:29:00,52.1,45.5,29.79,ENE,68,4.5,4.5,78,0.00,,,0.00,VWS V14.01,2013-03-16 03:29:00,
2013-03-15 23:34:00,51.8,45.2,29.79,East,89,3.0,3.0,78,0.00,,,0.00,VWS V14.01,2013-03-16 03:34:00,
2013-03-15 23:39:00,51.6,45.0,29.78,East,96,3.0,3.0,78,0.00,,,0.00,VWS V14.01,2013-03-16 03:39:00,
2013-03-15 23:44:00,51.5,45.2,29.77,ESE,105,3.0,4.5,79,0.00,,,0.00,VWS V14.01,2013-03-16 03:44:00,
2013-03-15 23:49:00,51.4,45.1,29.77,East,99,1.5,3.0,79,0.00,,,0.00,VWS V14.01,2013-03-16 03:49:00,
2013-03-15 23:54:00,51.7,45.1,29.77,East,101,4.5,7.5,78,0.00,,,0.00,VWS V14.01,2013-03-16 03:54:00,
2013-03-15 23:59:00,52.3,45.3,29.77,ESE,120,1.5,1.5,77,0.00,,,0.00,VWS V14.01,2013-03-16 03:59:00,